Time,TemperatureF,DewpointF,PressureIn,WindDirection,WindDirectionDegrees,WindSpeedMPH,WindSpeedGustMPH,Humidity,HourlyPrecipIn,Conditions,Clouds,dailyrainin,SoftwareType,DateUTC
2013-05-22 00:00:00,53.2,52.9,30.00,NNE,25,2.0,11.0,99,0.00,,---,0.17,VWS V14.01,2013-05-22 04:00:00,
2013-05-22 00:01:00,53.2,52.9,30.00,NNW,341,4.0,10.0,99,0.00,,---,0.00,VWS V14.01,2013-05-22 04:01:00,
2013-05-22 00:02:00,53.1,52.8,30.00,NW,324,3.0,10.0,99,0.00,,---,0.00,VWS V14.01,2013-05-22 04:02:00,
2013-05-22 00:03:00,53.1,52.8,30.00,NE,38,6.0,10.0,99,0.00,,---,0.00,VWS V14.01,2013-05-22 04:03:00,
2013-05-22 00:04:00,53.1,52.8,30.00,NW,318,2.0,10.0,99,0.00,,---,0.00,VWS V14.01,2013-05-22 04:04:00,
2013-05-22 00:05:00,53.1,52.8,30.00,North,360,0.0,10.0,99,0.00,,---,0.00,VWS V14.01,2013-05-22 04:05:00,
2013-05-22 00:06:00,53.1,52.8,30.00,North,360,0.0,10.0,99,0.00,,---,0.00,VWS V14.01,2013-05-22 04:06:00,
2013-05-22 00:07:00,52.9,52.9,30.00,North,351,2.0,10.0,100,0.00,,---,0.00,VWS V14.01,2013-05-22 04:07:00,
2013-05-22 00:08:00,52.9,52.9,30.00,NE,38,4.0,10.0,100,0.00,,---,0.00,VWS V14.01,2013-05-22 04:08:00,
2013-05-22 00:09:00,52.9,52.9,30.00,NE,38,5.0,10.0,100,0.00,,---,0.00,VWS V14.01,2013-05-22 04:09:00,
2013-05-22 00:10:00,52.9,52.9,30.00,North,11,5.0,10.0,100,0.00,,---,0.00,VWS V14.01,2013-05-22 04:10:00,
2013-05-22 00:11:00,52.9,52.9,30.00,NNE,15,0.0,5.0,100,0.00,,---,0.00,VWS V14.01,2013-05-22 04:11:00,
2013-05-22 00:12:00,52.9,52.9,30.00,NNE,15,0.0,5.0,100,0.00,,---,0.00,VWS V14.01,2013-05-22 04:12:00,
2013-05-22 00:13:00,52.9,52.9,30.00,NNE,15,4.0,5.0,100,0.00,,---,0.00,VWS V14.01,2013-05-22 04:13:00,
2013-05-22 00:14:00,52.9,52.9,30.00,SE,126,0.0,6.0,100,0.00,,---,0.00,VWS V14.01,2013-05-22 04:14:00,
2013-05-22 00:15:00,52.9,52.9,29.98,ENE,70,0.0,6.0,100,0.00,,---,0.00,VWS V14.01,2013-05-22 04:15:00,
2013-05-22 00:16:00,52.9,52.9,29.98,NNE,25,1.0,6.0,100,0.00,,---,0.00,VWS V14.01,2013-05-22 04:16:00,
2013-05-22 00:17:00,52.9,52.9,29.98,NE,48,0.0,7.0,100,0.00,,---,0.00,VWS V14.01,2013-05-22 04:17:00,
2013-05-22 00:18:00,52.9,52.9,29.98,NE,48,0.0,7.0,100,0.00,,---,0.00,VWS V14.01,2013-05-22 04:18:00,
2013-05-22 00:19:00,52.9,52.9,29.98,NW,326,4.0,7.0,100,0.00,,---,0.00,VWS V14.01,2013-05-22 04:19:00,
2013-05-22 00:20:00,52.9,52.9,29.98,NNE,24,7.0,7.0,100,0.00,,---,0.00,VWS V14.01,2013-05-22 04:20:00,
2013-05-22 00:21:00,52.9,52.9,29.98,NNW,340,3.0,7.0,100,0.00,,---,0.00,VWS V14.01,2013-05-22 04:21:00,
2013-05-22 00:22:00,52.9,52.9,29.98,NNE,22,4.0,9.0,100,0.00,,---,0.00,VWS V14.01,2013-05-22 04:22:00,
2013-05-22 00:23:00,52.9,52.9,29.98,NNE,21,2.0,9.0,100,0.00,,---,0.00,VWS V14.01,2013-05-22 04:23:00,
2013-05-22 00:24:00,52.9,52.9,29.98,NNE,32,4.0,9.0,100,0.00,,---,0.00,VWS V14.01,2013-05-22 04:24:00,
2013-05-22 00:25:00,52.9,52.9,29.98,NNE,17,5.0,11.0,100,0.00,,---,0.00,VWS V14.01,2013-05-22 04:25:00,
2013-05-22 00:26:00,52.8,52.8,29.98,NE,41,2.0,11.0,100,0.00,,---,0.00,VWS V14.01,2013-05-22 04:26:00,
2013-05-22 00:27:00,52.8,52.8,29.98,WNW,285,4.0,11.0,100,0.00,,---,0.00,VWS V14.01,2013-05-22 04:27:00,
2013-05-22 00:28:00,52.8,52.8,29.98,NNE,15,2.0,11.0,100,0.00,,---,0.00,VWS V14.01,2013-05-22 04:28:00,
2013-05-22 00:29:00,52.8,52.8,29.98,NNE,24,2.0,11.0,100,0.00,,---,0.00,VWS V14.01,2013-05-22 04:29:00,
2013-05-22 00:30:00,52.8,52.8,29.98,NNE,26,3.0,11.0,100,0.00,,---,0.00,VWS V14.01,2013-05-22 04:30:00,
2013-05-22 00:31:00,52.6,52.6,29.98,NW,306,4.0,7.0,100,0.00,,---,0.00,VWS V14.01,2013-05-22 04:31:00,
2013-05-22 00:32:00,52.6,52.6,29.98,NNE,18,0.0,7.0,100,0.00,,---,0.00,VWS V14.01,2013-05-22 04:32:00,
2013-05-22 00:33:00,52.6,52.6,29.98,WSW,242,0.0,7.0,100,0.00,,---,0.00,VWS V14.01,2013-05-22 04:33:00,
2013-05-22 00:34:00,52.6,52.6,29.98,ESE,117,4.0,7.0,100,0.00,,---,0.00,VWS V14.01,2013-05-22 04:34:00,
2013-05-22 00:35:00,52.6,52.6,29.98,NE,38,1.0,7.0,100,0.00,,---,0.00,VWS V14.01,2013-05-22 04:35:00,
2013-05-22 00:36:00,52.6,52.6,29.98,NE,38,0.0,7.0,100,0.00,,---,0.00,VWS V14.01,2013-05-22 04:36:00,
2013-05-22 00:37:00,52.6,52.6,29.98,North,11,3.0,7.0,100,0.00,,---,0.00,VWS V14.01,2013-05-22 04:37:00,
2013-05-22 00:38:00,52.6,52.6,29.98,South,169,1.0,7.0,100,0.00,,---,0.00,VWS V14.01,2013-05-22 04:38:00,
2013-05-22 00:39:00,52.6,52.6,29.98,NE,41,5.0,7.0,100,0.00,,---,0.00,VWS V14.01,2013-05-22 04:39:00,
2013-05-22 00:40:00,52.6,52.6,29.98,ENE,57,0.0,7.0,100,0.00,,---,0.00,VWS V14.01,2013-05-22 04:40:00,
2013-05-22 00:41:00,52.6,52.6,29.98,ENE,57,0.0,1.0,100,0.00,,---,0.00,VWS V14.01,2013-05-22 04:41:00,
2013-05-22 00:42:00,52.6,52.6,29.98,NNE,24,1.0,5.0,100,0.00,,---,0.00,VWS V14.01,2013-05-22 04:42:00,
2013-05-22 00:43:00,52.6,52.6,29.98,NNW,338,0.0,5.0,100,0.00,,---,0.00,VWS V14.01,2013-05-22 04:43:00,
2013-05-22 00:44:00,52.6,52.6,29.98,ESE,110,1.0,5.0,100,0.00,,---,0.00,VWS V14.01,2013-05-22 04:44:00,
2013-05-22 00:45:00,52.6,52.6,29.96,NE,44,2.0,5.0,100,0.00,,---,0.00,VWS V14.01,2013-05-22 04:45:00,
2013-05-22 00:46:00,52.6,52.6,29.96,ESE,123,0.0,5.0,100,0.00,,---,0.00,VWS V14.01,2013-05-22 04:46:00,
2013-05-22 00:47:00,52.6,52.3,29.96,NNE,14,3.0,6.0,99,0.00,,---,0.00,VWS V14.01,2013-05-22 04:47:00,
2013-05-22 00:48:00,52.5,52.2,29.96,SE,134,0.0,7.0,99,0.00,,---,0.00,VWS V14.01,2013-05-22 04:48:00,
2013-05-22 00:49:00,52.5,52.2,29.96,SE,134,0.0,7.0,99,0.00,,---,0.00,VWS V14.01,2013-05-22 04:49:00,
2013-05-22 00:50:00,52.5,52.2,29.96,NNE,19,0.0,7.0,99,0.00,,---,0.00,VWS V14.01,2013-05-22 04:50:00,
2013-05-22 00:51:00,52.5,52.2,29.96,NE,51,5.0,5.0,99,0.00,,---,0.00,VWS V14.01,2013-05-22 04:51:00,
2013-05-22 00:52:00,52.5,52.2,29.96,NE,39,0.0,5.0,99,0.00,,---,0.00,VWS V14.01,2013-05-22 04:52:00,
2013-05-22 00:53:00,52.5,52.2,29.96,NE,39,0.0,5.0,99,0.00,,---,0.00,VWS V14.01,2013-05-22 04:53:00,
2013-05-22 00:54:00,52.5,52.2,29.96,NE,39,0.0,5.0,99,0.00,,---,0.00,VWS V14.01,2013-05-22 04:54:00,
2013-05-22 00:55:00,52.5,52.2,29.96,NE,39,0.0,5.0,99,0.00,,---,0.00,VWS V14.01,2013-05-22 04:55:00,
2013-05-22 00:56:00,52.5,52.2,29.96,NNE,32,0.0,6.0,99,0.00,,---,0.00,VWS V14.01,2013-05-22 04:56:00,
2013-05-22 00:57:00,52.5,52.2,29.96,NNE,33,1.0,6.0,99,0.00,,---,0.00,VWS V14.01,2013-05-22 04:57:00,
2013-05-22 00:58:00,52.5,52.2,29.96,NNE,33,1.0,6.0,99,0.00,,---,0.00,VWS V14.01,2013-05-22 04:58:00,
2013-05-22 00:59:00,52.5,52.2,29.96,NNE,33,4.0,6.0,99,0.00,,---,0.00,VWS V14.01,2013-05-22 04:59:00,
2013-05-22 01:00:00,52.5,52.2,29.96,NNE,33,0.0,6.0,99,0.00,,---,0.00,VWS V14.01,2013-05-22 05:00:00,
2013-05-22 01:01:00,52.5,52.2,29.96,NNE,33,0.0,0.0,99,0.00,,---,0.00,VWS V14.01,2013-05-22 05:01:00,
2013-05-22 01:02:00,52.5,52.2,29.96,NNE,33,0.0,0.0,99,0.00,,---,0.00,VWS V14.01,2013-05-22 05:02:00,
2013-05-22 01:03:00,52.5,52.2,29.96,NNE,30,5.0,5.0,99,0.00,,---,0.00,VWS V14.01,2013-05-22 05:03:00,
2013-05-22 01:04:00,52.5,52.2,29.96,NNE,30,2.0,5.0,99,0.00,,---,0.00,VWS V14.01,2013-05-22 05:04:00,
2013-05-22 01:05:00,52.5,52.2,29.96,East,93,4.0,5.0,99,0.00,,---,0.00,VWS V14.01,2013-05-22 05:05:00,
2013-05-22 01:06:00,52.5,52.2,29.96,East,94,0.0,5.0,99,0.00,,---,0.00,VWS V14.01,2013-05-22 05:06:00,
2013-05-22 01:07:00,52.5,52.2,29.96,ENE,63,0.0,5.0,99,0.00,,---,0.00,VWS V14.01,2013-05-22 05:07:00,
2013-05-22 01:08:00,52.5,52.2,29.96,NNE,23,4.0,5.0,99,0.00,,---,0.00,VWS V14.01,2013-05-22 05:08:00,
2013-05-22 01:09:00,52.5,52.2,29.96,NNE,23,0.0,5.0,99,0.00,,---,0.00,VWS V14.01,2013-05-22 05:09:00,
2013-05-22 01:10:00,52.5,52.2,29.96,SE,144,0.0,5.0,99,0.00,,---,0.00,VWS V14.01,2013-05-22 05:10:00,
2013-05-22 01:11:00,52.5,52.2,29.96,ENE,67,0.0,3.0,99,0.00,,---,0.00,VWS V14.01,2013-05-22 05:11:00,
2013-05-22 01:12:00,52.5,52.2,29.96,NE,42,0.0,3.0,99,0.00,,---,0.00,VWS V14.01,2013-05-22 05:12:00,
2013-05-22 01:13:00,52.5,52.2,29.96,NE,42,2.0,3.0,99,0.00,,---,0.00,VWS V14.01,2013-05-22 05:13:00,
2013-05-22 01:14:00,52.3,52.0,29.96,NE,45,4.0,5.0,99,0.00,,---,0.00,VWS V14.01,2013-05-22 05:14:00,
2013-05-22 01:15:00,52.3,52.0,29.96,NNE,32,0.0,5.0,99,0.00,,---,0.00,VWS V14.01,2013-05-22 05:15:00,
2013-05-22 01:16:00,52.3,52.0,29.96,NNE,32,0.0,5.0,99,0.00,,---,0.00,VWS V14.01,2013-05-22 05:16:00,
2013-05-22 01:17:00,52.3,52.0,29.96,SSE,157,2.0,5.0,99,0.00,,---,0.00,VWS V14.01,2013-05-22 05:17:00,
2013-05-22 01:18:00,52.3,52.0,29.96,SSE,157,0.0,5.0,99,0.00,,---,0.00,VWS V14.01,2013-05-22 05:18:00,
2013-05-22 01:19:00,52.3,52.0,29.96,NNE,24,7.0,14.0,99,0.00,,---,0.00,VWS V14.01,2013-05-22 05:19:00,
2013-05-22 01:20:00,52.3,52.0,29.96,NNE,24,0.0,14.0,99,0.00,,---,0.00,VWS V14.01,2013-05-22 05:20:00,
2013-05-22 01:21:00,52.3,52.0,29.96,NNE,24,0.0,3.0,99,0.00,,---,0.00,VWS V14.01,2013-05-22 05:21:00,
2013-05-22 01:22:00,52.3,52.0,29.96,East,82,1.0,3.0,99,0.00,,---,0.00,VWS V14.01,2013-05-22 05:22:00,
2013-05-22 01:23:00,52.3,51.8,29.96,East,82,3.0,4.0,98,0.00,,---,0.00,VWS V14.01,2013-05-22 05:23:00,
2013-05-22 01:24:00,52.3,51.8,29.96,East,92,1.0,5.0,98,0.00,,---,0.00,VWS V14.01,2013-05-22 05:24:00,
2013-05-22 01:25:00,52.3,51.8,29.96,NE,36,0.0,5.0,98,0.00,,---,0.00,VWS V14.01,2013-05-22 05:25:00,
2013-05-22 01:26:00,52.3,51.8,29.96,NE,36,1.0,5.0,98,0.00,,---,0.00,VWS V14.01,2013-05-22 05:26:00,
2013-05-22 01:27:00,52.3,51.8,29.96,NE,42,2.0,5.0,98,0.00,,---,0.00,VWS V14.01,2013-05-22 05:27:00,
2013-05-22 01:28:00,52.3,51.8,29.96,ESE,115,5.0,5.0,98,0.00,,---,0.00,VWS V14.01,2013-05-22 05:28:00,
2013-05-22 01:29:00,52.3,51.8,29.96,ESE,108,4.0,5.0,98,0.00,,---,0.00,VWS V14.01,2013-05-22 05:29:00,
2013-05-22 01:30:00,52.3,51.8,29.95,NE,55,2.0,7.0,98,0.00,,---,0.00,VWS V14.01,2013-05-22 05:30:00,
2013-05-22 01:31:00,52.3,51.8,29.95,ESE,119,0.0,5.0,98,0.00,,---,0.00,VWS V14.01,2013-05-22 05:31:00,
2013-05-22 01:32:00,52.3,51.8,29.95,East,94,0.0,5.0,98,0.00,,---,0.00,VWS V14.01,2013-05-22 05:32:00,
2013-05-22 01:33:00,52.3,51.8,29.95,ESE,117,0.0,5.0,98,0.00,,---,0.00,VWS V14.01,2013-05-22 05:33:00,
2013-05-22 01:34:00,52.3,51.8,29.95,NNE,29,2.0,5.0,98,0.00,,---,0.00,VWS V14.01,2013-05-22 05:34:00,
2013-05-22 01:35:00,52.3,51.8,29.95,ESE,111,1.0,5.0,98,0.00,,---,0.00,VWS V14.01,2013-05-22 05:35:00,
2013-05-22 01:36:00,52.3,51.8,29.95,NNE,28,5.0,6.0,98,0.00,,---,0.00,VWS V14.01,2013-05-22 05:36:00,
2013-05-22 01:37:00,52.3,51.8,29.95,NNE,28,0.0,6.0,98,0.00,,---,0.00,VWS V14.01,2013-05-22 05:37:00,
2013-05-22 01:38:00,52.3,51.8,29.95,SE,126,1.0,7.0,98,0.00,,---,0.00,VWS V14.01,2013-05-22 05:38:00,
2013-05-22 01:39:00,52.3,51.8,29.95,SE,125,0.0,7.0,98,0.00,,---,0.00,VWS V14.01,2013-05-22 05:39:00,
2013-05-22 01:40:00,52.3,51.8,29.95,ESE,110,2.0,7.0,98,0.00,,---,0.00,VWS V14.01,2013-05-22 05:40:00,
2013-05-22 01:41:00,52.3,51.8,29.95,ESE,114,2.0,7.0,98,0.00,,---,0.00,VWS V14.01,2013-05-22 05:41:00,
2013-05-22 01:42:00,52.3,51.5,29.95,ESE,114,6.0,7.0,97,0.00,,---,0.00,VWS V14.01,2013-05-22 05:42:00,
2013-05-22 01:43:00,52.3,51.5,29.95,ESE,119,6.0,7.0,97,0.00,,---,0.00,VWS V14.01,2013-05-22 05:43:00,
2013-05-22 01:44:00,52.3,51.5,29.95,ESE,123,2.0,7.0,97,0.00,,---,0.00,VWS V14.01,2013-05-22 05:44:00,
2013-05-22 01:45:00,52.3,51.5,29.94,SE,129,0.0,7.0,97,0.00,,---,0.00,VWS V14.01,2013-05-22 05:45:00,
2013-05-22 01:46:00,52.3,51.5,29.94,ESE,119,2.0,7.0,97,0.00,,---,0.00,VWS V14.01,2013-05-22 05:46:00,
2013-05-22 01:47:00,52.3,51.5,29.94,NE,38,0.0,7.0,97,0.00,,---,0.00,VWS V14.01,2013-05-22 05:47:00,
2013-05-22 01:48:00,52.3,51.5,29.94,NE,38,0.0,7.0,97,0.00,,---,0.00,VWS V14.01,2013-05-22 05:48:00,
2013-05-22 01:49:00,52.3,51.5,29.94,NE,38,2.0,7.0,97,0.00,,---,0.00,VWS V14.01,2013-05-22 05:49:00,
2013-05-22 01:50:00,52.3,51.5,29.94,NE,38,0.0,7.0,97,0.00,,---,0.00,VWS V14.01,2013-05-22 05:50:00,
2013-05-22 01:51:00,52.5,51.7,29.94,NE,38,0.0,0.0,97,0.00,,---,0.00,VWS V14.01,2013-05-22 05:51:00,
2013-05-22 01:52:00,52.5,51.7,29.94,NE,38,0.0,0.0,97,0.00,,---,0.00,VWS V14.01,2013-05-22 05:52:00,
2013-05-22 01:53:00,52.5,51.7,29.94,NE,38,0.0,1.0,97,0.00,,---,0.00,VWS V14.01,2013-05-22 05:53:00,
2013-05-22 01:54:00,52.5,51.7,29.94,East,88,4.0,4.0,97,0.00,,---,0.00,VWS V14.01,2013-05-22 05:54:00,
2013-05-22 01:55:00,52.5,51.7,29.94,East,90,2.0,4.0,97,0.00,,---,0.00,VWS V14.01,2013-05-22 05:55:00,
2013-05-22 01:56:00,52.5,51.7,29.94,East,90,1.0,4.0,97,0.00,,---,0.00,VWS V14.01,2013-05-22 05:56:00,
2013-05-22 01:57:00,52.5,51.7,29.94,East,90,0.0,4.0,97,0.00,,---,0.00,VWS V14.01,2013-05-22 05:57:00,
2013-05-22 01:58:00,52.5,51.7,29.94,East,90,0.0,4.0,97,0.00,,---,0.00,VWS V14.01,2013-05-22 05:58:00,
2013-05-22 01:59:00,52.5,51.7,29.94,East,90,0.0,4.0,97,0.00,,---,0.00,VWS V14.01,2013-05-22 05:59:00,
2013-05-22 02:00:00,52.5,51.7,29.93,East,90,0.0,4.0,97,0.00,,---,0.00,VWS V14.01,2013-05-22 06:00:00,
2013-05-22 02:01:00,52.5,51.7,29.93,East,90,0.0,4.0,97,0.00,,---,0.00,VWS V14.01,2013-05-22 06:01:00,
2013-05-22 02:02:00,52.5,51.7,29.93,East,90,0.0,4.0,97,0.00,,---,0.00,VWS V14.01,2013-05-22 06:02:00,
2013-05-22 02:03:00,52.5,51.7,29.93,East,90,0.0,4.0,97,0.00,,---,0.00,VWS V14.01,2013-05-22 06:03:00,
2013-05-22 02:04:00,52.5,51.7,29.93,East,90,0.0,4.0,97,0.00,,---,0.00,VWS V14.01,2013-05-22 06:04:00,
2013-05-22 02:05:00,52.5,51.7,29.93,East,90,0.0,4.0,97,0.00,,---,0.00,VWS V14.01,2013-05-22 06:05:00,
2013-05-22 02:06:00,52.6,51.8,29.93,East,90,2.0,4.0,97,0.00,,---,0.00,VWS V14.01,2013-05-22 06:06:00,
2013-05-22 02:07:00,52.6,51.8,29.93,East,90,0.0,4.0,97,0.00,,---,0.00,VWS V14.01,2013-05-22 06:07:00,
2013-05-22 02:08:00,52.5,51.7,29.93,ENE,67,2.0,4.0,97,0.00,,---,0.00,VWS V14.01,2013-05-22 06:08:00,
2013-05-22 02:09:00,52.5,51.7,29.93,ENE,67,0.0,4.0,97,0.00,,---,0.00,VWS V14.01,2013-05-22 06:09:00,
2013-05-22 02:10:00,52.5,51.7,29.93,ENE,67,0.0,4.0,97,0.00,,---,0.00,VWS V14.01,2013-05-22 06:10:00,
2013-05-22 02:11:00,52.5,51.7,29.93,ENE,67,0.0,0.0,97,0.00,,---,0.00,VWS V14.01,2013-05-22 06:11:00,
2013-05-22 02:12:00,52.6,51.8,29.93,ENE,67,0.0,0.0,97,0.00,,---,0.00,VWS V14.01,2013-05-22 06:12:00,
2013-05-22 02:13:00,52.6,51.8,29.93,ENE,67,1.0,2.0,97,0.00,,---,0.00,VWS V14.01,2013-05-22 06:13:00,
2013-05-22 02:14:00,52.6,51.8,29.93,ENE,68,0.0,2.0,97,0.00,,---,0.00,VWS V14.01,2013-05-22 06:14:00,
2013-05-22 02:15:00,52.6,51.8,29.94,ENE,68,0.0,2.0,97,0.00,,---,0.00,VWS V14.01,2013-05-22 06:15:00,
2013-05-22 02:16:00,52.6,51.8,29.94,ENE,68,0.0,2.0,97,0.00,,---,0.00,VWS V14.01,2013-05-22 06:16:00,
2013-05-22 02:17:00,52.6,51.8,29.94,ENE,68,0.0,2.0,97,0.00,,---,0.00,VWS V14.01,2013-05-22 06:17:00,
2013-05-22 02:18:00,52.6,51.8,29.94,ENE,68,0.0,3.0,97,0.00,,---,0.00,VWS V14.01,2013-05-22 06:18:00,
2013-05-22 02:19:00,52.6,51.8,29.94,ENE,68,0.0,3.0,97,0.00,,---,0.00,VWS V14.01,2013-05-22 06:19:00,
2013-05-22 02:20:00,52.6,51.8,29.94,ENE,68,0.0,3.0,97,0.00,,---,0.00,VWS V14.01,2013-05-22 06:20:00,
2013-05-22 02:21:00,52.6,51.8,29.94,ENE,68,0.0,0.0,97,0.00,,---,0.00,VWS V14.01,2013-05-22 06:21:00,
2013-05-22 02:22:00,52.6,51.8,29.94,ENE,68,0.0,0.0,97,0.00,,---,0.00,VWS V14.01,2013-05-22 06:22:00,
2013-05-22 02:23:00,52.6,51.8,29.94,ENE,68,0.0,2.0,97,0.00,,---,0.00,VWS V14.01,2013-05-22 06:23:00,
2013-05-22 02:24:00,52.6,51.8,29.94,ENE,68,0.0,2.0,97,0.00,,---,0.00,VWS V14.01,2013-05-22 06:24:00,
2013-05-22 02:25:00,52.6,51.8,29.94,ENE,68,0.0,2.0,97,0.00,,---,0.00,VWS V14.01,2013-05-22 06:25:00,
2013-05-22 02:26:00,52.6,51.8,29.94,ENE,68,0.0,2.0,97,0.00,,---,0.00,VWS V14.01,2013-05-22 06:26:00,
2013-05-22 02:27:00,52.6,51.8,29.94,ENE,68,0.0,2.0,97,0.00,,---,0.00,VWS V14.01,2013-05-22 06:27:00,
2013-05-22 02:28:00,52.6,51.8,29.94,ENE,68,0.0,2.0,97,0.00,,---,0.00,VWS V14.01,2013-05-22 06:28:00,
2013-05-22 02:29:00,52.6,51.8,29.94,ENE,68,0.0,2.0,97,0.00,,---,0.00,VWS V14.01,2013-05-22 06:29:00,
2013-05-22 02:30:00,52.6,51.8,29.94,ENE,68,0.0,2.0,97,0.00,,---,0.00,VWS V14.01,2013-05-22 06:30:00,
2013-05-22 02:31:00,52.6,51.8,29.94,ENE,68,0.0,0.0,97,0.00,,---,0.00,VWS V14.01,2013-05-22 06:31:00,
2013-05-22 02:32:00,52.6,51.8,29.94,ENE,68,0.0,0.0,97,0.00,,---,0.00,VWS V14.01,2013-05-22 06:32:00,
2013-05-22 02:33:00,52.6,51.8,29.94,ENE,68,0.0,0.0,97,0.00,,---,0.00,VWS V14.01,2013-05-22 06:33:00,
2013-05-22 02:34:00,52.6,51.8,29.94,ENE,68,0.0,0.0,97,0.00,,---,0.00,VWS V14.01,2013-05-22 06:34:00,
2013-05-22 02:35:00,52.6,51.8,29.94,ENE,68,0.0,2.0,97,0.00,,---,0.00,VWS V14.01,2013-05-22 06:35:00,
2013-05-22 02:36:00,52.8,52.0,29.94,ENE,68,0.0,2.0,97,0.00,,---,0.00,VWS V14.01,2013-05-22 06:36:00,
2013-05-22 02:37:00,52.8,52.0,29.94,ENE,68,0.0,2.0,97,0.00,,---,0.00,VWS V14.01,2013-05-22 06:37:00,
2013-05-22 02:38:00,52.8,52.0,29.94,ENE,68,0.0,2.0,97,0.00,,---,0.00,VWS V14.01,2013-05-22 06:38:00,
2013-05-22 02:39:00,52.8,52.0,29.94,ENE,68,0.0,2.0,97,0.00,,---,0.00,VWS V14.01,2013-05-22 06:39:00,
2013-05-22 02:40:00,52.8,52.0,29.94,ENE,68,0.0,2.0,97,0.00,,---,0.00,VWS V14.01,2013-05-22 06:40:00,
2013-05-22 02:41:00,52.8,52.0,29.94,ENE,68,0.0,2.0,97,0.00,,---,0.00,VWS V14.01,2013-05-22 06:41:00,
2013-05-22 02:42:00,52.8,52.0,29.94,ENE,68,0.0,2.0,97,0.00,,---,0.00,VWS V14.01,2013-05-22 06:42:00,
2013-05-22 02:43:00,52.8,52.0,29.94,ENE,68,0.0,2.0,97,0.00,,---,0.00,VWS V14.01,2013-05-22 06:43:00,
2013-05-22 02:44:00,52.8,52.0,29.94,ENE,68,0.0,2.0,97,0.00,,---,0.00,VWS V14.01,2013-05-22 06:44:00,
2013-05-22 02:45:00,52.8,52.0,29.94,ENE,68,0.0,2.0,97,0.00,,---,0.00,VWS V14.01,2013-05-22 06:45:00,
2013-05-22 02:46:00,52.8,52.0,29.94,ENE,68,0.0,2.0,97,0.00,,---,0.00,VWS V14.01,2013-05-22 06:46:00,
2013-05-22 02:47:00,52.8,52.0,29.94,ENE,68,0.0,2.0,97,0.00,,---,0.00,VWS V14.01,2013-05-22 06:47:00,
2013-05-22 02:48:00,52.8,52.0,29.94,ENE,68,0.0,2.0,97,0.00,,---,0.00,VWS V14.01,2013-05-22 06:48:00,
2013-05-22 02:49:00,52.8,52.0,29.94,ENE,68,0.0,2.0,97,0.00,,---,0.00,VWS V14.01,2013-05-22 06:49:00,
2013-05-22 02:50:00,52.8,52.0,29.94,ENE,68,0.0,2.0,97,0.00,,---,0.00,VWS V14.01,2013-05-22 06:50:00,
2013-05-22 02:51:00,52.8,52.0,29.94,ENE,68,0.0,0.0,97,0.00,,---,0.00,VWS V14.01,2013-05-22 06:51:00,
2013-05-22 02:52:00,52.8,52.0,29.94,ENE,68,0.0,0.0,97,0.00,,---,0.00,VWS V14.01,2013-05-22 06:52:00,
2013-05-22 02:53:00,52.8,52.0,29.94,ENE,68,0.0,0.0,97,0.00,,---,0.00,VWS V14.01,2013-05-22 06:53:00,
2013-05-22 02:54:00,52.8,52.0,29.94,ENE,68,0.0,0.0,97,0.00,,---,0.00,VWS V14.01,2013-05-22 06:54:00,
2013-05-22 02:55:00,52.8,52.0,29.94,ENE,68,0.0,0.0,97,0.00,,---,0.00,VWS V14.01,2013-05-22 06:55:00,
2013-05-22 02:56:00,52.8,52.0,29.94,ENE,68,0.0,0.0,97,0.00,,---,0.00,VWS V14.01,2013-05-22 06:56:00,
2013-05-22 02:57:00,52.8,52.0,29.94,ENE,68,0.0,0.0,97,0.00,,---,0.00,VWS V14.01,2013-05-22 06:57:00,
2013-05-22 02:58:00,52.8,52.0,29.94,ENE,68,0.0,0.0,97,0.00,,---,0.00,VWS V14.01,2013-05-22 06:58:00,
2013-05-22 02:59:00,52.8,52.0,29.94,ENE,68,0.0,0.0,97,0.00,,---,0.00,VWS V14.01,2013-05-22 06:59:00,
2013-05-22 03:00:00,52.8,52.0,29.94,ENE,68,0.0,0.0,97,0.00,,---,0.00,VWS V14.01,2013-05-22 07:00:00,
2013-05-22 03:01:00,52.9,52.1,29.94,ENE,68,0.0,0.0,97,0.00,,---,0.00,VWS V14.01,2013-05-22 07:01:00,
2013-05-22 03:02:00,52.9,52.1,29.94,ENE,68,0.0,0.0,97,0.00,,---,0.00,VWS V14.01,2013-05-22 07:02:00,
2013-05-22 03:03:00,52.9,52.1,29.94,ENE,68,0.0,0.0,97,0.00,,---,0.00,VWS V14.01,2013-05-22 07:03:00,
2013-05-22 03:04:00,52.9,52.1,29.94,ENE,68,0.0,0.0,97,0.00,,---,0.00,VWS V14.01,2013-05-22 07:04:00,
2013-05-22 03:05:00,52.9,52.1,29.94,ENE,68,0.0,0.0,97,0.00,,---,0.00,VWS V14.01,2013-05-22 07:05:00,
2013-05-22 03:06:00,52.9,52.1,29.94,ENE,68,0.0,0.0,97,0.00,,---,0.00,VWS V14.01,2013-05-22 07:06:00,
2013-05-22 03:07:00,52.9,52.1,29.94,ENE,68,0.0,2.0,97,0.00,,---,0.00,VWS V14.01,2013-05-22 07:07:00,
2013-05-22 03:08:00,52.9,52.1,29.94,ENE,68,0.0,2.0,97,0.00,,---,0.00,VWS V14.01,2013-05-22 07:08:00,
2013-05-22 03:09:00,52.9,52.1,29.94,ENE,68,0.0,2.0,97,0.00,,---,0.00,VWS V14.01,2013-05-22 07:09:00,
2013-05-22 03:10:00,52.9,52.1,29.94,ENE,68,0.0,2.0,97,0.00,,---,0.00,VWS V14.01,2013-05-22 07:10:00,
2013-05-22 03:11:00,52.9,52.1,29.94,ENE,68,0.0,0.0,97,0.00,,---,0.00,VWS V14.01,2013-05-22 07:11:00,
2013-05-22 03:12:00,52.9,52.1,29.94,ENE,68,0.0,0.0,97,0.00,,---,0.00,VWS V14.01,2013-05-22 07:12:00,
2013-05-22 03:13:00,52.9,52.1,29.94,ENE,68,0.0,0.0,97,0.00,,---,0.00,VWS V14.01,2013-05-22 07:13:00,
2013-05-22 03:14:00,52.9,52.1,29.94,ENE,68,0.0,0.0,97,0.00,,---,0.00,VWS V14.01,2013-05-22 07:14:00,
2013-05-22 03:15:00,52.9,52.1,29.95,ENE,68,0.0,0.0,97,0.00,,---,0.00,VWS V14.01,2013-05-22 07:15:00,
2013-05-22 03:16:00,52.9,52.1,29.95,ENE,68,0.0,0.0,97,0.00,,---,0.00,VWS V14.01,2013-05-22 07:16:00,
2013-05-22 03:17:00,52.9,52.1,29.95,ENE,68,0.0,0.0,97,0.00,,---,0.00,VWS V14.01,2013-05-22 07:17:00,
2013-05-22 03:18:00,52.9,52.1,29.95,ENE,68,0.0,0.0,97,0.00,,---,0.00,VWS V14.01,2013-05-22 07:18:00,
2013-05-22 03:19:00,52.9,52.1,29.95,NNW,329,3.0,3.0,97,0.00,,---,0.00,VWS V14.01,2013-05-22 07:19:00,
2013-05-22 03:20:00,52.9,52.1,29.95,NNW,329,2.0,4.0,97,0.00,,---,0.00,VWS V14.01,2013-05-22 07:20:00,
2013-05-22 03:21:00,52.9,52.1,29.95,WNW,286,1.0,5.0,97,0.00,,---,0.00,VWS V14.01,2013-05-22 07:21:00,
2013-05-22 03:22:00,52.9,52.1,29.95,WNW,286,0.0,5.0,97,0.00,,---,0.00,VWS V14.01,2013-05-22 07:22:00,
2013-05-22 03:23:00,53.1,52.3,29.95,West,277,1.0,5.0,97,0.00,,---,0.00,VWS V14.01,2013-05-22 07:23:00,
2013-05-22 03:24:00,53.1,52.3,29.95,West,277,0.0,5.0,97,0.00,,---,0.00,VWS V14.01,2013-05-22 07:24:00,
2013-05-22 03:25:00,53.1,52.3,29.95,West,277,2.0,5.0,97,0.00,,---,0.00,VWS V14.01,2013-05-22 07:25:00,
2013-05-22 03:26:00,53.1,52.3,29.95,West,277,3.0,5.0,97,0.00,,---,0.00,VWS V14.01,2013-05-22 07:26:00,
2013-05-22 03:27:00,53.1,52.3,29.95,WNW,288,0.0,6.0,97,0.00,,---,0.00,VWS V14.01,2013-05-22 07:27:00,
2013-05-22 03:28:00,53.1,52.3,29.95,WNW,288,0.0,6.0,97,0.00,,---,0.00,VWS V14.01,2013-05-22 07:28:00,
2013-05-22 03:29:00,53.1,52.3,29.95,WNW,288,0.0,6.0,97,0.00,,---,0.00,VWS V14.01,2013-05-22 07:29:00,
2013-05-22 03:30:00,53.1,52.3,29.99,WNW,288,0.0,6.0,97,0.00,,---,0.00,VWS V14.01,2013-05-22 07:30:00,
2013-05-22 03:31:00,53.1,52.3,29.99,WNW,288,0.0,1.0,97,0.00,,---,0.00,VWS V14.01,2013-05-22 07:31:00,
2013-05-22 03:32:00,53.1,52.3,29.99,WNW,288,3.0,3.0,97,0.00,,---,0.00,VWS V14.01,2013-05-22 07:32:00,
2013-05-22 03:33:00,53.1,52.3,29.99,WNW,288,0.0,3.0,97,0.00,,---,0.00,VWS V14.01,2013-05-22 07:33:00,
2013-05-22 03:34:00,53.1,52.3,29.99,NW,308,1.0,3.0,97,0.00,,---,0.00,VWS V14.01,2013-05-22 07:34:00,
2013-05-22 03:35:00,53.1,52.3,29.99,NW,308,0.0,3.0,97,0.00,,---,0.00,VWS V14.01,2013-05-22 07:35:00,
2013-05-22 03:36:00,53.1,52.3,29.99,NW,308,0.0,3.0,97,0.00,,---,0.00,VWS V14.01,2013-05-22 07:36:00,
2013-05-22 03:37:00,53.1,52.3,29.99,NW,326,2.0,5.0,97,0.00,,---,0.00,VWS V14.01,2013-05-22 07:37:00,
2013-05-22 03:38:00,53.1,52.3,29.99,NNW,332,1.0,5.0,97,0.00,,---,0.00,VWS V14.01,2013-05-22 07:38:00,
2013-05-22 03:39:00,53.1,52.3,29.99,NNW,332,0.0,5.0,97,0.00,,---,0.00,VWS V14.01,2013-05-22 07:39:00,
2013-05-22 03:40:00,53.1,52.3,29.99,NNW,332,0.0,5.0,97,0.00,,---,0.00,VWS V14.01,2013-05-22 07:40:00,
2013-05-22 03:41:00,53.1,52.3,29.99,NNW,332,0.0,0.0,97,0.00,,---,0.00,VWS V14.01,2013-05-22 07:41:00,
2013-05-22 03:42:00,53.1,52.3,29.99,NE,34,3.0,3.0,97,0.00,,---,0.00,VWS V14.01,2013-05-22 07:42:00,
2013-05-22 03:43:00,53.1,52.3,29.99,NE,34,0.0,3.0,97,0.00,,---,0.00,VWS V14.01,2013-05-22 07:43:00,
2013-05-22 03:44:00,53.1,52.3,29.99,NE,34,0.0,3.0,97,0.00,,---,0.00,VWS V14.01,2013-05-22 07:44:00,
2013-05-22 03:45:00,53.1,52.3,29.97,NE,34,0.0,3.0,97,0.00,,---,0.00,VWS V14.01,2013-05-22 07:45:00,
2013-05-22 03:46:00,53.1,52.3,29.97,NE,34,0.0,3.0,97,0.00,,---,0.00,VWS V14.01,2013-05-22 07:46:00,
2013-05-22 03:47:00,53.1,52.3,29.97,NE,34,0.0,3.0,97,0.00,,---,0.00,VWS V14.01,2013-05-22 07:47:00,
2013-05-22 03:48:00,53.1,52.3,29.97,NE,34,0.0,3.0,97,0.00,,---,0.00,VWS V14.01,2013-05-22 07:48:00,
2013-05-22 03:49:00,53.1,52.3,29.97,NE,34,0.0,3.0,97,0.00,,---,0.00,VWS V14.01,2013-05-22 07:49:00,
2013-05-22 03:50:00,53.1,52.3,29.97,NE,34,0.0,3.0,97,0.00,,---,0.00,VWS V14.01,2013-05-22 07:50:00,
2013-05-22 03:51:00,53.1,52.3,29.97,NE,34,0.0,0.0,97,0.00,,---,0.00,VWS V14.01,2013-05-22 07:51:00,
2013-05-22 03:52:00,53.1,52.3,29.97,NE,34,1.0,2.0,97,0.00,,---,0.00,VWS V14.01,2013-05-22 07:52:00,
2013-05-22 03:53:00,53.1,52.3,29.97,NE,34,0.0,3.0,97,0.00,,---,0.00,VWS V14.01,2013-05-22 07:53:00,
2013-05-22 03:54:00,53.1,52.3,29.97,NE,34,0.0,3.0,97,0.00,,---,0.00,VWS V14.01,2013-05-22 07:54:00,
2013-05-22 03:55:00,53.1,52.3,29.97,NE,34,0.0,3.0,97,0.00,,---,0.00,VWS V14.01,2013-05-22 07:55:00,
2013-05-22 03:56:00,53.1,52.3,29.97,NE,34,0.0,3.0,97,0.00,,---,0.00,VWS V14.01,2013-05-22 07:56:00,
2013-05-22 03:57:00,53.1,52.3,29.97,NE,34,0.0,3.0,97,0.00,,---,0.00,VWS V14.01,2013-05-22 07:57:00,
2013-05-22 03:58:00,53.1,52.3,29.97,NE,34,0.0,3.0,97,0.00,,---,0.00,VWS V14.01,2013-05-22 07:58:00,
2013-05-22 03:59:00,52.9,52.1,29.97,NE,34,1.0,3.0,97,0.00,,---,0.00,VWS V14.01,2013-05-22 07:59:00,
2013-05-22 04:00:00,52.9,52.1,29.95,NE,34,0.0,3.0,97,0.00,,---,0.00,VWS V14.01,2013-05-22 08:00:00,
2013-05-22 04:01:00,52.9,52.1,29.95,NE,34,0.0,0.0,97,0.00,,---,0.00,VWS V14.01,2013-05-22 08:01:00,
2013-05-22 04:02:00,52.9,52.3,29.95,NE,34,0.0,1.0,98,0.00,,---,0.00,VWS V14.01,2013-05-22 08:02:00,
2013-05-22 04:03:00,52.9,52.3,29.95,NE,34,0.0,1.0,98,0.00,,---,0.00,VWS V14.01,2013-05-22 08:03:00,
2013-05-22 04:04:00,52.9,52.3,29.95,NE,34,0.0,1.0,98,0.00,,---,0.00,VWS V14.01,2013-05-22 08:04:00,
2013-05-22 04:05:00,52.9,52.3,29.95,NE,34,0.0,1.0,98,0.00,,---,0.00,VWS V14.01,2013-05-22 08:05:00,
2013-05-22 04:06:00,52.9,52.3,29.95,NE,34,0.0,1.0,98,0.00,,---,0.00,VWS V14.01,2013-05-22 08:06:00,
2013-05-22 04:07:00,52.9,52.3,29.95,NE,34,0.0,1.0,98,0.00,,---,0.00,VWS V14.01,2013-05-22 08:07:00,
2013-05-22 04:08:00,52.9,52.3,29.95,NE,34,0.0,1.0,98,0.00,,---,0.00,VWS V14.01,2013-05-22 08:08:00,
2013-05-22 04:09:00,52.9,52.3,29.95,NE,34,0.0,1.0,98,0.00,,---,0.00,VWS V14.01,2013-05-22 08:09:00,
2013-05-22 04:10:00,52.9,52.3,29.95,NE,34,0.0,1.0,98,0.00,,---,0.00,VWS V14.01,2013-05-22 08:10:00,
2013-05-22 04:11:00,52.9,52.3,29.95,NE,34,0.0,1.0,98,0.00,,---,0.00,VWS V14.01,2013-05-22 08:11:00,
2013-05-22 04:12:00,52.9,52.3,29.95,NE,34,0.0,1.0,98,0.00,,---,0.00,VWS V14.01,2013-05-22 08:12:00,
2013-05-22 04:13:00,52.9,52.3,29.95,NE,34,0.0,3.0,98,0.00,,---,0.00,VWS V14.01,2013-05-22 08:13:00,
2013-05-22 04:14:00,52.9,52.3,29.95,NE,34,0.0,3.0,98,0.00,,---,0.00,VWS V14.01,2013-05-22 08:14:00,
2013-05-22 04:15:00,52.9,52.3,29.94,NE,34,0.0,3.0,98,0.00,,---,0.00,VWS V14.01,2013-05-22 08:15:00,
2013-05-22 04:16:00,52.9,52.3,29.94,NE,34,0.0,3.0,98,0.00,,---,0.00,VWS V14.01,2013-05-22 08:16:00,
2013-05-22 04:17:00,52.8,52.2,29.94,NE,34,0.0,3.0,98,0.00,,---,0.00,VWS V14.01,2013-05-22 08:17:00,
2013-05-22 04:18:00,52.8,52.2,29.94,NE,34,0.0,3.0,98,0.00,,---,0.00,VWS V14.01,2013-05-22 08:18:00,
2013-05-22 04:19:00,52.8,52.2,29.94,NE,34,0.0,3.0,98,0.00,,---,0.00,VWS V14.01,2013-05-22 08:19:00,
2013-05-22 04:20:00,52.8,52.2,29.94,NE,34,0.0,3.0,98,0.00,,---,0.00,VWS V14.01,2013-05-22 08:20:00,
2013-05-22 04:21:00,52.8,52.2,29.94,NE,34,2.0,3.0,98,0.00,,---,0.00,VWS V14.01,2013-05-22 08:21:00,
2013-05-22 04:22:00,52.8,52.2,29.94,NE,34,0.0,3.0,98,0.00,,---,0.00,VWS V14.01,2013-05-22 08:22:00,
2013-05-22 04:23:00,52.8,52.2,29.94,NE,34,0.0,3.0,98,0.00,,---,0.00,VWS V14.01,2013-05-22 08:23:00,
2013-05-22 04:24:00,52.8,52.2,29.94,NE,34,0.0,3.0,98,0.00,,---,0.00,VWS V14.01,2013-05-22 08:24:00,
2013-05-22 04:25:00,52.8,52.2,29.94,NE,34,0.0,3.0,98,0.00,,---,0.00,VWS V14.01,2013-05-22 08:25:00,
2013-05-22 04:26:00,52.8,52.2,29.94,NE,34,0.0,3.0,98,0.00,,---,0.00,VWS V14.01,2013-05-22 08:26:00,
2013-05-22 04:27:00,52.8,52.2,29.94,NE,34,0.0,3.0,98,0.00,,---,0.00,VWS V14.01,2013-05-22 08:27:00,
2013-05-22 04:28:00,52.8,52.2,29.94,NE,34,0.0,3.0,98,0.00,,---,0.00,VWS V14.01,2013-05-22 08:28:00,
2013-05-22 04:29:00,52.8,52.2,29.94,NE,34,0.0,3.0,98,0.00,,---,0.00,VWS V14.01,2013-05-22 08:29:00,
2013-05-22 04:30:00,52.8,52.2,29.94,NE,34,0.0,3.0,98,0.00,,---,0.00,VWS V14.01,2013-05-22 08:30:00,
2013-05-22 04:31:00,52.8,52.2,29.94,NE,34,0.0,0.0,98,0.00,,---,0.00,VWS V14.01,2013-05-22 08:31:00,
2013-05-22 04:32:00,52.8,52.2,29.94,NE,34,0.0,0.0,98,0.00,,---,0.00,VWS V14.01,2013-05-22 08:32:00,
2013-05-22 04:33:00,52.8,52.2,29.94,NE,34,0.0,0.0,98,0.00,,---,0.00,VWS V14.01,2013-05-22 08:33:00,
2013-05-22 04:34:00,52.8,52.2,29.94,NE,34,0.0,0.0,98,0.00,,---,0.00,VWS V14.01,2013-05-22 08:34:00,
2013-05-22 04:35:00,52.8,52.2,29.94,NE,34,0.0,0.0,98,0.00,,---,0.00,VWS V14.01,2013-05-22 08:35:00,
2013-05-22 04:36:00,52.8,52.2,29.94,NE,34,0.0,0.0,98,0.00,,---,0.00,VWS V14.01,2013-05-22 08:36:00,
2013-05-22 04:37:00,52.8,52.2,29.94,NE,34,0.0,0.0,98,0.00,,---,0.00,VWS V14.01,2013-05-22 08:37:00,
2013-05-22 04:38:00,52.8,52.2,29.94,NE,34,0.0,0.0,98,0.00,,---,0.00,VWS V14.01,2013-05-22 08:38:00,
2013-05-22 04:39:00,52.8,52.2,29.94,NE,34,0.0,0.0,98,0.00,,---,0.00,VWS V14.01,2013-05-22 08:39:00,
2013-05-22 04:40:00,52.8,52.2,29.94,NE,34,0.0,0.0,98,0.00,,---,0.00,VWS V14.01,2013-05-22 08:40:00,
2013-05-22 04:41:00,52.8,52.2,29.94,NE,34,0.0,0.0,98,0.00,,---,0.00,VWS V14.01,2013-05-22 08:41:00,
2013-05-22 04:42:00,52.8,52.2,29.94,NE,34,0.0,0.0,98,0.00,,---,0.00,VWS V14.01,2013-05-22 08:42:00,
2013-05-22 04:43:00,52.8,52.2,29.94,NE,34,0.0,0.0,98,0.00,,---,0.00,VWS V14.01,2013-05-22 08:43:00,
2013-05-22 04:44:00,52.8,52.2,29.94,NE,34,0.0,0.0,98,0.00,,---,0.00,VWS V14.01,2013-05-22 08:44:00,
2013-05-22 04:45:00,52.8,52.2,29.95,NE,34,0.0,0.0,98,0.00,,---,0.00,VWS V14.01,2013-05-22 08:45:00,
2013-05-22 04:46:00,52.9,52.3,29.95,NE,34,0.0,0.0,98,0.00,,---,0.00,VWS V14.01,2013-05-22 08:46:00,
2013-05-22 04:47:00,52.8,52.2,29.95,NE,34,0.0,0.0,98,0.00,,---,0.00,VWS V14.01,2013-05-22 08:47:00,
2013-05-22 04:48:00,52.9,52.3,29.95,NE,34,0.0,0.0,98,0.00,,---,0.00,VWS V14.01,2013-05-22 08:48:00,
2013-05-22 04:49:00,52.9,52.3,29.95,NE,34,0.0,0.0,98,0.00,,---,0.00,VWS V14.01,2013-05-22 08:49:00,
2013-05-22 04:50:00,52.9,52.3,29.95,NE,34,0.0,0.0,98,0.00,,---,0.00,VWS V14.01,2013-05-22 08:50:00,
2013-05-22 04:51:00,52.9,52.3,29.95,NE,34,0.0,0.0,98,0.00,,---,0.00,VWS V14.01,2013-05-22 08:51:00,
2013-05-22 04:52:00,52.9,52.3,29.95,NE,34,0.0,0.0,98,0.00,,---,0.00,VWS V14.01,2013-05-22 08:52:00,
2013-05-22 04:53:00,52.9,52.3,29.95,NE,34,0.0,0.0,98,0.00,,---,0.00,VWS V14.01,2013-05-22 08:53:00,
2013-05-22 04:54:00,52.9,52.3,29.95,NE,34,0.0,0.0,98,0.00,,---,0.00,VWS V14.01,2013-05-22 08:54:00,
2013-05-22 04:55:00,52.9,52.3,29.95,NE,34,0.0,0.0,98,0.00,,---,0.00,VWS V14.01,2013-05-22 08:55:00,
2013-05-22 04:56:00,52.9,52.3,29.95,NE,34,0.0,0.0,98,0.00,,---,0.00,VWS V14.01,2013-05-22 08:56:00,
2013-05-22 04:57:00,52.9,52.3,29.95,NE,34,0.0,0.0,98,0.00,,---,0.00,VWS V14.01,2013-05-22 08:57:00,
2013-05-22 04:58:00,52.9,52.3,29.95,NE,34,0.0,0.0,98,0.00,,---,0.00,VWS V14.01,2013-05-22 08:58:00,
2013-05-22 04:59:00,52.9,52.3,29.95,NE,34,0.0,0.0,98,0.00,,---,0.00,VWS V14.01,2013-05-22 08:59:00,
2013-05-22 05:00:00,52.9,52.3,29.94,NE,34,0.0,0.0,98,0.00,,---,0.00,VWS V14.01,2013-05-22 09:00:00,
2013-05-22 05:01:00,52.9,52.3,29.94,NE,34,0.0,0.0,98,0.00,,---,0.00,VWS V14.01,2013-05-22 09:01:00,
2013-05-22 05:02:00,52.9,52.3,29.94,NE,34,0.0,0.0,98,0.00,,---,0.00,VWS V14.01,2013-05-22 09:02:00,
2013-05-22 05:03:00,52.9,52.3,29.94,NE,34,0.0,0.0,98,0.00,,---,0.00,VWS V14.01,2013-05-22 09:03:00,
2013-05-22 05:04:00,52.9,52.3,29.94,NE,34,0.0,0.0,98,0.00,,---,0.00,VWS V14.01,2013-05-22 09:04:00,
2013-05-22 05:05:00,52.9,52.3,29.94,NE,34,0.0,0.0,98,0.00,,---,0.00,VWS V14.01,2013-05-22 09:05:00,
2013-05-22 05:06:00,52.9,52.3,29.94,NE,34,0.0,0.0,98,0.00,,---,0.00,VWS V14.01,2013-05-22 09:06:00,
2013-05-22 05:07:00,52.9,52.3,29.94,NE,34,0.0,0.0,98,0.00,,---,0.00,VWS V14.01,2013-05-22 09:07:00,
2013-05-22 05:08:00,52.9,52.3,29.94,NE,34,0.0,0.0,98,0.00,,---,0.00,VWS V14.01,2013-05-22 09:08:00,
2013-05-22 05:09:00,52.9,52.3,29.94,NE,34,0.0,0.0,98,0.00,,---,0.00,VWS V14.01,2013-05-22 09:09:00,
2013-05-22 05:10:00,52.9,52.3,29.94,NE,34,0.0,0.0,98,0.00,,---,0.00,VWS V14.01,2013-05-22 09:10:00,
2013-05-22 05:11:00,52.9,52.3,29.94,NE,34,0.0,0.0,98,0.00,,---,0.00,VWS V14.01,2013-05-22 09:11:00,
2013-05-22 05:12:00,52.9,52.3,29.94,NE,34,0.0,0.0,98,0.00,,---,0.00,VWS V14.01,2013-05-22 09:12:00,
2013-05-22 05:13:00,52.9,52.3,29.94,NE,34,0.0,0.0,98,0.00,,---,0.00,VWS V14.01,2013-05-22 09:13:00,
2013-05-22 05:14:00,52.9,52.3,29.94,NE,34,0.0,0.0,98,0.00,,---,0.00,VWS V14.01,2013-05-22 09:14:00,
2013-05-22 05:15:00,53.1,52.5,29.93,NE,34,0.0,0.0,98,0.00,,---,0.00,VWS V14.01,2013-05-22 09:15:00,
2013-05-22 05:16:00,53.1,52.5,29.93,NE,34,0.0,0.0,98,0.00,,---,0.00,VWS V14.01,2013-05-22 09:16:00,
2013-05-22 05:17:00,53.1,52.5,29.93,NE,34,0.0,0.0,98,0.00,,---,0.00,VWS V14.01,2013-05-22 09:17:00,
2013-05-22 05:18:00,53.1,52.5,29.93,NE,34,0.0,0.0,98,0.00,,---,0.00,VWS V14.01,2013-05-22 09:18:00,
2013-05-22 05:19:00,53.1,52.5,29.93,NE,34,0.0,0.0,98,0.00,,---,0.00,VWS V14.01,2013-05-22 09:19:00,
2013-05-22 05:20:00,53.1,52.5,29.93,NE,34,0.0,0.0,98,0.00,,---,0.00,VWS V14.01,2013-05-22 09:20:00,
2013-05-22 05:21:00,53.1,52.5,29.93,NE,34,0.0,0.0,98,0.00,,---,0.00,VWS V14.01,2013-05-22 09:21:00,
2013-05-22 05:22:00,52.9,52.3,29.93,NE,34,0.0,0.0,98,0.00,,---,0.00,VWS V14.01,2013-05-22 09:22:00,
2013-05-22 05:23:00,52.9,52.3,29.93,NE,34,0.0,0.0,98,0.00,,---,0.00,VWS V14.01,2013-05-22 09:23:00,
2013-05-22 05:24:00,52.9,52.3,29.93,NE,34,0.0,0.0,98,0.00,,---,0.00,VWS V14.01,2013-05-22 09:24:00,
2013-05-22 05:25:00,53.1,52.5,29.93,NE,34,0.0,0.0,98,0.00,,---,0.00,VWS V14.01,2013-05-22 09:25:00,
2013-05-22 05:26:00,53.1,52.5,29.93,NE,34,0.0,0.0,98,0.00,,---,0.00,VWS V14.01,2013-05-22 09:26:00,
2013-05-22 05:27:00,53.1,52.5,29.93,NE,34,0.0,0.0,98,0.00,,---,0.00,VWS V14.01,2013-05-22 09:27:00,
2013-05-22 05:28:00,53.1,52.5,29.93,NE,34,0.0,0.0,98,0.00,,---,0.00,VWS V14.01,2013-05-22 09:28:00,
2013-05-22 05:29:00,53.1,52.8,29.93,NE,34,0.0,0.0,99,0.00,,---,0.00,VWS V14.01,2013-05-22 09:29:00,
2013-05-22 05:30:00,53.1,52.8,29.93,NE,34,0.0,0.0,99,0.00,,---,0.00,VWS V14.01,2013-05-22 09:30:00,
2013-05-22 05:31:00,53.1,52.8,29.93,NE,34,0.0,0.0,99,0.00,,---,0.00,VWS V14.01,2013-05-22 09:31:00,
2013-05-22 05:32:00,53.2,52.9,29.93,NE,34,0.0,0.0,99,0.00,,---,0.00,VWS V14.01,2013-05-22 09:32:00,
2013-05-22 05:33:00,53.2,52.9,29.93,NE,34,0.0,0.0,99,0.00,,---,0.00,VWS V14.01,2013-05-22 09:33:00,
2013-05-22 05:34:00,53.2,52.7,29.93,NE,34,0.0,0.0,98,0.00,,---,0.00,VWS V14.01,2013-05-22 09:34:00,
2013-05-22 05:35:00,53.2,52.7,29.93,NE,34,0.0,0.0,98,0.00,,---,0.00,VWS V14.01,2013-05-22 09:35:00,
2013-05-22 05:36:00,53.2,52.7,29.93,NE,34,0.0,0.0,98,0.00,,---,0.00,VWS V14.01,2013-05-22 09:36:00,
2013-05-22 05:37:00,53.2,52.9,29.93,NE,34,0.0,0.0,99,0.00,,---,0.00,VWS V14.01,2013-05-22 09:37:00,
2013-05-22 05:38:00,53.2,52.9,29.93,NE,34,0.0,0.0,99,0.00,,---,0.00,VWS V14.01,2013-05-22 09:38:00,
2013-05-22 05:39:00,53.2,52.7,29.93,NE,34,0.0,0.0,98,0.00,,---,0.00,VWS V14.01,2013-05-22 09:39:00,
2013-05-22 05:40:00,53.2,52.9,29.93,NE,34,0.0,0.0,99,0.00,,---,0.00,VWS V14.01,2013-05-22 09:40:00,
2013-05-22 05:41:00,53.2,52.9,29.93,NE,34,0.0,0.0,99,0.00,,---,0.00,VWS V14.01,2013-05-22 09:41:00,
2013-05-22 05:42:00,53.2,52.7,29.93,NE,34,0.0,0.0,98,0.00,,---,0.00,VWS V14.01,2013-05-22 09:42:00,
2013-05-22 05:43:00,53.2,52.9,29.93,NE,34,2.0,3.0,99,0.00,,---,0.00,VWS V14.01,2013-05-22 09:43:00,
2013-05-22 05:44:00,53.2,52.9,29.93,NE,34,0.0,3.0,99,0.00,,---,0.00,VWS V14.01,2013-05-22 09:44:00,
2013-05-22 05:45:00,53.2,52.9,29.93,NE,34,0.0,3.0,99,0.00,,---,0.00,VWS V14.01,2013-05-22 09:45:00,
2013-05-22 05:46:00,53.2,52.7,29.93,NE,34,1.0,3.0,98,0.00,,---,0.00,VWS V14.01,2013-05-22 09:46:00,
2013-05-22 05:47:00,53.2,52.7,29.93,NE,34,0.0,3.0,98,0.00,,---,0.00,VWS V14.01,2013-05-22 09:47:00,
2013-05-22 05:48:00,53.2,52.7,29.93,NE,34,0.0,3.0,98,0.00,,---,0.00,VWS V14.01,2013-05-22 09:48:00,
2013-05-22 05:49:00,53.2,52.7,29.93,NE,34,0.0,3.0,98,0.00,,---,0.00,VWS V14.01,2013-05-22 09:49:00,
2013-05-22 05:50:00,53.2,52.9,29.93,NE,34,0.0,3.0,99,0.00,,---,0.00,VWS V14.01,2013-05-22 09:50:00,
2013-05-22 05:51:00,53.2,52.7,29.93,NE,34,0.0,0.0,98,0.00,,---,0.00,VWS V14.01,2013-05-22 09:51:00,
2013-05-22 05:52:00,53.2,52.9,29.93,NE,34,0.0,0.0,99,0.00,,---,0.00,VWS V14.01,2013-05-22 09:52:00,
2013-05-22 05:53:00,53.2,52.7,29.93,NE,34,0.0,0.0,98,0.00,,---,0.00,VWS V14.01,2013-05-22 09:53:00,
2013-05-22 05:54:00,53.2,52.9,29.93,NE,34,0.0,0.0,99,0.00,,---,0.00,VWS V14.01,2013-05-22 09:54:00,
2013-05-22 05:55:00,53.2,52.9,29.93,NE,34,0.0,0.0,99,0.00,,---,0.00,VWS V14.01,2013-05-22 09:55:00,
2013-05-22 05:56:00,53.2,52.9,29.93,NE,34,0.0,0.0,99,0.00,,---,0.00,VWS V14.01,2013-05-22 09:56:00,
2013-05-22 05:57:00,53.2,52.9,29.93,NE,34,0.0,0.0,99,0.00,,---,0.00,VWS V14.01,2013-05-22 09:57:00,
2013-05-22 05:58:00,53.2,52.9,29.93,NE,34,0.0,0.0,99,0.00,,---,0.00,VWS V14.01,2013-05-22 09:58:00,
2013-05-22 05:59:00,53.3,53.0,29.93,NE,34,0.0,0.0,99,0.00,,---,0.00,VWS V14.01,2013-05-22 09:59:00,
2013-05-22 06:00:00,53.3,53.0,29.95,NE,34,1.0,1.0,99,0.00,,---,0.00,VWS V14.01,2013-05-22 10:00:00,
2013-05-22 06:01:00,53.3,53.0,29.95,NE,34,0.0,1.0,99,0.00,,---,0.00,VWS V14.01,2013-05-22 10:01:00,
2013-05-22 06:02:00,53.3,52.8,29.95,NE,34,0.0,1.0,98,0.00,,---,0.00,VWS V14.01,2013-05-22 10:02:00,
2013-05-22 06:03:00,53.3,53.0,29.95,NE,34,0.0,1.0,99,0.00,,---,0.00,VWS V14.01,2013-05-22 10:03:00,
2013-05-22 06:04:00,53.3,53.0,29.95,NE,34,0.0,1.0,99,0.00,,---,0.00,VWS V14.01,2013-05-22 10:04:00,
2013-05-22 06:05:00,53.3,53.0,29.95,NE,34,0.0,1.0,99,0.00,,---,0.00,VWS V14.01,2013-05-22 10:05:00,
2013-05-22 06:06:00,53.3,53.0,29.95,NE,34,0.0,1.0,99,0.00,,---,0.00,VWS V14.01,2013-05-22 10:06:00,
2013-05-22 06:07:00,53.3,53.0,29.95,NE,34,0.0,1.0,99,0.00,,---,0.00,VWS V14.01,2013-05-22 10:07:00,
2013-05-22 06:08:00,53.3,53.0,29.95,NE,34,0.0,1.0,99,0.00,,---,0.00,VWS V14.01,2013-05-22 10:08:00,
2013-05-22 06:09:00,53.3,53.0,29.95,NE,34,0.0,1.0,99,0.00,,---,0.00,VWS V14.01,2013-05-22 10:09:00,
2013-05-22 06:10:00,53.3,53.0,29.95,NE,34,0.0,1.0,99,0.00,,---,0.00,VWS V14.01,2013-05-22 10:10:00,
2013-05-22 06:11:00,53.5,53.2,29.95,NE,34,0.0,0.0,99,0.00,,---,0.00,VWS V14.01,2013-05-22 10:11:00,
2013-05-22 06:12:00,53.5,53.2,29.95,NE,34,0.0,0.0,99,0.00,,---,0.00,VWS V14.01,2013-05-22 10:12:00,
2013-05-22 06:13:00,53.5,53.2,29.95,NE,34,0.0,0.0,99,0.00,,---,0.00,VWS V14.01,2013-05-22 10:13:00,
2013-05-22 06:14:00,53.5,53.2,29.95,NE,34,0.0,0.0,99,0.00,,---,0.00,VWS V14.01,2013-05-22 10:14:00,
2013-05-22 06:15:00,53.5,53.2,29.94,NE,34,0.0,0.0,99,0.00,,---,0.00,VWS V14.01,2013-05-22 10:15:00,
2013-05-22 06:16:00,53.5,53.2,29.94,NE,34,0.0,0.0,99,0.00,,---,0.00,VWS V14.01,2013-05-22 10:16:00,
2013-05-22 06:17:00,53.5,53.2,29.94,NE,34,0.0,0.0,99,0.00,,---,0.00,VWS V14.01,2013-05-22 10:17:00,
2013-05-22 06:18:00,53.5,53.0,29.94,NE,34,0.0,0.0,98,0.00,,---,0.00,VWS V14.01,2013-05-22 10:18:00,
2013-05-22 06:19:00,53.5,53.2,29.94,NE,34,0.0,0.0,99,0.00,,---,0.00,VWS V14.01,2013-05-22 10:19:00,
2013-05-22 06:20:00,53.5,53.2,29.94,NE,34,0.0,0.0,99,0.00,,---,0.00,VWS V14.01,2013-05-22 10:20:00,
2013-05-22 06:21:00,53.5,53.2,29.94,NE,34,0.0,0.0,99,0.00,,---,0.00,VWS V14.01,2013-05-22 10:21:00,
2013-05-22 06:22:00,53.5,53.2,29.94,NE,34,0.0,0.0,99,0.00,,---,0.00,VWS V14.01,2013-05-22 10:22:00,
2013-05-22 06:23:00,53.5,53.2,29.94,NE,34,0.0,1.0,99,0.00,,---,0.00,VWS V14.01,2013-05-22 10:23:00,
2013-05-22 06:24:00,53.6,53.3,29.94,NE,34,1.0,2.0,99,0.00,,---,0.00,VWS V14.01,2013-05-22 10:24:00,
2013-05-22 06:25:00,53.6,53.3,29.94,NE,34,0.0,2.0,99,0.00,,---,0.00,VWS V14.01,2013-05-22 10:25:00,
2013-05-22 06:26:00,53.6,53.3,29.94,NE,34,3.0,3.0,99,0.00,,---,0.00,VWS V14.01,2013-05-22 10:26:00,
2013-05-22 06:27:00,53.6,53.3,29.94,NE,34,4.0,4.0,99,0.00,,---,0.00,VWS V14.01,2013-05-22 10:27:00,
2013-05-22 06:28:00,53.6,53.3,29.94,SSW,197,4.0,5.0,99,0.00,,---,0.00,VWS V14.01,2013-05-22 10:28:00,
2013-05-22 06:29:00,53.6,53.3,29.94,South,190,2.0,5.0,99,0.00,,---,0.00,VWS V14.01,2013-05-22 10:29:00,
2013-05-22 06:30:00,53.8,53.5,29.92,South,190,0.0,5.0,99,0.00,,---,0.00,VWS V14.01,2013-05-22 10:30:00,
2013-05-22 06:31:00,53.8,53.5,29.92,South,191,0.0,1.0,99,0.00,,---,0.00,VWS V14.01,2013-05-22 10:31:00,
2013-05-22 06:32:00,53.8,53.5,29.92,South,191,0.0,1.0,99,0.00,,---,0.00,VWS V14.01,2013-05-22 10:32:00,
2013-05-22 06:33:00,53.8,53.5,29.92,South,191,1.0,2.0,99,0.00,,---,0.00,VWS V14.01,2013-05-22 10:33:00,
2013-05-22 06:34:00,53.8,53.5,29.92,South,190,3.0,3.0,99,0.00,,---,0.00,VWS V14.01,2013-05-22 10:34:00,
2013-05-22 06:35:00,53.8,53.5,29.92,SSW,198,3.0,4.0,99,0.00,,---,0.00,VWS V14.01,2013-05-22 10:35:00,
2013-05-22 06:36:00,53.8,53.5,29.92,SSW,197,3.0,4.0,99,0.00,,---,0.00,VWS V14.01,2013-05-22 10:36:00,
2013-05-22 06:37:00,53.8,53.5,29.92,SSW,197,0.0,4.0,99,0.00,,---,0.00,VWS V14.01,2013-05-22 10:37:00,
2013-05-22 06:38:00,53.8,53.5,29.92,SSW,197,0.0,4.0,99,0.00,,---,0.00,VWS V14.01,2013-05-22 10:38:00,
2013-05-22 06:39:00,53.9,53.6,29.92,SSW,197,0.0,4.0,99,0.00,,---,0.00,VWS V14.01,2013-05-22 10:39:00,
2013-05-22 06:40:00,53.9,53.6,29.92,SSW,197,0.0,4.0,99,0.00,,---,0.00,VWS V14.01,2013-05-22 10:40:00,
2013-05-22 06:41:00,54.1,53.8,29.92,SSW,197,0.0,1.0,99,0.00,,---,0.00,VWS V14.01,2013-05-22 10:41:00,
2013-05-22 06:42:00,54.1,53.8,29.92,SSW,197,0.0,1.0,99,0.00,,---,0.00,VWS V14.01,2013-05-22 10:42:00,
2013-05-22 06:43:00,54.1,53.8,29.92,SSW,197,0.0,1.0,99,0.00,,---,0.00,VWS V14.01,2013-05-22 10:43:00,
2013-05-22 06:44:00,54.1,53.8,29.92,SSW,197,0.0,4.0,99,0.00,,---,0.00,VWS V14.01,2013-05-22 10:44:00,
2013-05-22 06:45:00,54.1,53.8,29.90,SSW,197,0.0,4.0,99,0.00,,---,0.00,VWS V14.01,2013-05-22 10:45:00,
2013-05-22 06:46:00,54.1,53.8,29.90,SSW,197,0.0,4.0,99,0.00,,---,0.00,VWS V14.01,2013-05-22 10:46:00,
2013-05-22 06:47:00,54.1,53.8,29.90,SSW,197,0.0,4.0,99,0.00,,---,0.00,VWS V14.01,2013-05-22 10:47:00,
2013-05-22 06:48:00,54.1,53.8,29.90,SSW,197,0.0,4.0,99,0.00,,---,0.00,VWS V14.01,2013-05-22 10:48:00,
2013-05-22 06:49:00,54.2,53.9,29.90,SSW,197,0.0,4.0,99,0.00,,---,0.00,VWS V14.01,2013-05-22 10:49:00,
2013-05-22 06:50:00,54.2,53.9,29.90,SSW,197,0.0,4.0,99,0.00,,---,0.00,VWS V14.01,2013-05-22 10:50:00,
2013-05-22 06:51:00,54.2,53.9,29.90,SSW,197,0.0,0.0,99,0.00,,---,0.00,VWS V14.01,2013-05-22 10:51:00,
2013-05-22 06:52:00,54.2,53.9,29.90,SSW,197,0.0,0.0,99,0.00,,---,0.00,VWS V14.01,2013-05-22 10:52:00,
2013-05-22 06:53:00,54.4,54.1,29.90,SSW,197,1.0,1.0,99,0.00,,---,0.00,VWS V14.01,2013-05-22 10:53:00,
2013-05-22 06:54:00,54.4,54.1,29.90,SSW,197,2.0,2.0,99,0.00,,---,0.00,VWS V14.01,2013-05-22 10:54:00,
2013-05-22 06:55:00,54.4,54.1,29.90,SSW,197,1.0,3.0,99,0.00,,---,0.00,VWS V14.01,2013-05-22 10:55:00,
2013-05-22 06:56:00,54.4,54.1,29.90,SSW,197,1.0,3.0,99,0.00,,---,0.00,VWS V14.01,2013-05-22 10:56:00,
2013-05-22 06:57:00,54.5,54.2,29.90,SSW,197,0.0,3.0,99,0.00,,---,0.00,VWS V14.01,2013-05-22 10:57:00,
2013-05-22 06:58:00,54.5,54.2,29.90,SSW,197,2.0,3.0,99,0.00,,---,0.00,VWS V14.01,2013-05-22 10:58:00,
2013-05-22 06:59:00,54.5,54.2,29.90,SSW,197,0.0,3.0,99,0.00,,---,0.00,VWS V14.01,2013-05-22 10:59:00,
2013-05-22 07:00:00,54.7,54.4,29.92,SSW,197,0.0,3.0,99,0.00,,---,0.00,VWS V14.01,2013-05-22 11:00:00,
2013-05-22 07:01:00,54.7,54.4,29.92,SSW,198,3.0,3.0,99,0.00,,---,0.00,VWS V14.01,2013-05-22 11:01:00,
2013-05-22 07:02:00,54.7,54.4,29.92,South,188,3.0,4.0,99,0.00,,---,0.00,VWS V14.01,2013-05-22 11:02:00,
2013-05-22 07:03:00,54.7,54.4,29.92,SSW,197,2.0,5.0,99,0.00,,---,0.00,VWS V14.01,2013-05-22 11:03:00,
2013-05-22 07:04:00,54.7,54.4,29.92,South,186,2.0,5.0,99,0.00,,---,0.00,VWS V14.01,2013-05-22 11:04:00,
2013-05-22 07:05:00,54.7,54.4,29.92,South,186,0.0,5.0,99,0.00,,---,0.00,VWS V14.01,2013-05-22 11:05:00,
2013-05-22 07:06:00,54.7,54.4,29.92,South,186,0.0,5.0,99,0.00,,---,0.00,VWS V14.01,2013-05-22 11:06:00,
2013-05-22 07:07:00,54.7,54.4,29.92,South,186,0.0,5.0,99,0.00,,---,0.00,VWS V14.01,2013-05-22 11:07:00,
2013-05-22 07:08:00,54.7,54.4,29.92,South,186,2.0,5.0,99,0.00,,---,0.00,VWS V14.01,2013-05-22 11:08:00,
2013-05-22 07:09:00,54.8,54.5,29.92,South,186,1.0,5.0,99,0.00,,---,0.00,VWS V14.01,2013-05-22 11:09:00,
2013-05-22 07:10:00,54.8,54.5,29.92,South,186,2.0,5.0,99,0.00,,---,0.00,VWS V14.01,2013-05-22 11:10:00,
2013-05-22 07:11:00,54.8,54.5,29.92,South,186,0.0,2.0,99,0.00,,---,0.00,VWS V14.01,2013-05-22 11:11:00,
2013-05-22 07:12:00,54.8,54.5,29.92,South,186,0.0,2.0,99,0.00,,---,0.00,VWS V14.01,2013-05-22 11:12:00,
2013-05-22 07:13:00,54.8,54.5,29.92,South,186,2.0,3.0,99,0.00,,---,0.00,VWS V14.01,2013-05-22 11:13:00,
2013-05-22 07:14:00,54.8,54.5,29.92,South,186,0.0,4.0,99,0.00,,---,0.00,VWS V14.01,2013-05-22 11:14:00,
2013-05-22 07:15:00,54.8,54.5,29.92,South,186,0.0,4.0,99,0.00,,---,0.00,VWS V14.01,2013-05-22 11:15:00,
2013-05-22 07:16:00,55.0,54.7,29.92,South,186,0.0,4.0,99,0.00,,---,0.00,VWS V14.01,2013-05-22 11:16:00,
2013-05-22 07:17:00,55.0,54.7,29.92,South,186,0.0,4.0,99,0.00,,---,0.00,VWS V14.01,2013-05-22 11:17:00,
2013-05-22 07:18:00,55.0,54.7,29.92,South,186,0.0,4.0,99,0.00,,---,0.00,VWS V14.01,2013-05-22 11:18:00,
2013-05-22 07:19:00,55.0,54.7,29.92,South,186,0.0,4.0,99,0.00,,---,0.00,VWS V14.01,2013-05-22 11:19:00,
2013-05-22 07:20:00,55.0,54.7,29.92,South,186,0.0,4.0,99,0.00,,---,0.00,VWS V14.01,2013-05-22 11:20:00,
2013-05-22 07:21:00,55.1,54.8,29.92,South,186,2.0,3.0,99,0.00,,---,0.00,VWS V14.01,2013-05-22 11:21:00,
2013-05-22 07:22:00,55.1,54.8,29.92,South,186,0.0,3.0,99,0.00,,---,0.00,VWS V14.01,2013-05-22 11:22:00,
2013-05-22 07:23:00,55.1,54.8,29.92,South,186,0.0,3.0,99,0.00,,---,0.00,VWS V14.01,2013-05-22 11:23:00,
2013-05-22 07:24:00,55.1,54.8,29.92,South,186,0.0,3.0,99,0.00,,---,0.00,VWS V14.01,2013-05-22 11:24:00,
2013-05-22 07:25:00,55.1,54.8,29.92,South,186,0.0,3.0,99,0.00,,---,0.00,VWS V14.01,2013-05-22 11:25:00,
2013-05-22 07:26:00,55.1,54.8,29.92,South,186,0.0,3.0,99,0.00,,---,0.00,VWS V14.01,2013-05-22 11:26:00,
2013-05-22 07:27:00,55.1,54.8,29.92,South,186,0.0,3.0,99,0.00,,---,0.00,VWS V14.01,2013-05-22 11:27:00,
2013-05-22 07:28:00,55.1,54.8,29.92,South,186,0.0,3.0,99,0.00,,---,0.00,VWS V14.01,2013-05-22 11:28:00,
2013-05-22 07:29:00,55.3,55.0,29.92,South,186,0.0,3.0,99,0.00,,---,0.00,VWS V14.01,2013-05-22 11:29:00,
2013-05-22 07:30:00,55.3,55.0,29.92,South,186,2.0,3.0,99,0.00,,---,0.00,VWS V14.01,2013-05-22 11:30:00,
2013-05-22 07:31:00,55.3,55.0,29.92,South,186,1.0,3.0,99,0.00,,---,0.00,VWS V14.01,2013-05-22 11:31:00,
2013-05-22 07:32:00,55.3,55.0,29.92,South,186,2.0,3.0,99,0.00,,---,0.00,VWS V14.01,2013-05-22 11:32:00,
2013-05-22 07:33:00,55.4,55.1,29.92,South,186,0.0,3.0,99,0.00,,---,0.00,VWS V14.01,2013-05-22 11:33:00,
2013-05-22 07:34:00,55.4,55.1,29.92,South,186,3.0,3.0,99,0.00,,---,0.00,VWS V14.01,2013-05-22 11:34:00,
2013-05-22 07:35:00,55.4,55.1,29.92,South,186,3.0,3.0,99,0.00,,---,0.00,VWS V14.01,2013-05-22 11:35:00,
2013-05-22 07:36:00,55.4,55.1,29.92,South,186,2.0,4.0,99,0.00,,---,0.00,VWS V14.01,2013-05-22 11:36:00,
2013-05-22 07:37:00,55.6,55.3,29.92,South,186,0.0,4.0,99,0.00,,---,0.00,VWS V14.01,2013-05-22 11:37:00,
2013-05-22 07:38:00,55.6,55.3,29.92,WSW,238,2.0,4.0,99,0.00,,---,0.00,VWS V14.01,2013-05-22 11:38:00,
2013-05-22 07:39:00,55.6,55.3,29.92,WSW,238,1.0,4.0,99,0.00,,---,0.00,VWS V14.01,2013-05-22 11:39:00,
2013-05-22 07:40:00,55.7,55.4,29.92,WSW,238,0.0,4.0,99,0.00,,---,0.00,VWS V14.01,2013-05-22 11:40:00,
2013-05-22 07:41:00,55.7,55.4,29.92,WSW,238,0.0,1.0,99,0.00,,---,0.00,VWS V14.01,2013-05-22 11:41:00,
2013-05-22 07:42:00,55.7,55.4,29.92,WSW,238,0.0,1.0,99,0.00,,---,0.00,VWS V14.01,2013-05-22 11:42:00,
2013-05-22 07:43:00,55.7,55.4,29.92,WSW,238,0.0,1.0,99,0.00,,---,0.00,VWS V14.01,2013-05-22 11:43:00,
2013-05-22 07:44:00,55.7,55.4,29.92,WSW,238,0.0,1.0,99,0.00,,---,0.00,VWS V14.01,2013-05-22 11:44:00,
2013-05-22 07:45:00,55.7,55.4,29.92,SSE,165,2.0,3.0,99,0.00,,---,0.00,VWS V14.01,2013-05-22 11:45:00,
2013-05-22 07:46:00,55.7,55.4,29.92,SSW,203,1.0,4.0,99,0.00,,---,0.00,VWS V14.01,2013-05-22 11:46:00,
2013-05-22 07:47:00,55.7,55.4,29.92,SSW,203,0.0,4.0,99,0.00,,---,0.00,VWS V14.01,2013-05-22 11:47:00,
2013-05-22 07:48:00,55.9,55.6,29.92,SSW,203,0.0,4.0,99,0.00,,---,0.00,VWS V14.01,2013-05-22 11:48:00,
2013-05-22 07:49:00,55.9,55.6,29.92,SSW,203,0.0,4.0,99,0.00,,---,0.00,VWS V14.01,2013-05-22 11:49:00,
2013-05-22 07:50:00,55.9,55.6,29.92,SSW,203,0.0,4.0,99,0.00,,---,0.00,VWS V14.01,2013-05-22 11:50:00,
2013-05-22 07:51:00,55.9,55.6,29.92,SSW,203,0.0,0.0,99,0.00,,---,0.00,VWS V14.01,2013-05-22 11:51:00,
2013-05-22 07:52:00,56.0,55.7,29.92,SSW,203,0.0,0.0,99,0.00,,---,0.00,VWS V14.01,2013-05-22 11:52:00,
2013-05-22 07:53:00,56.0,55.7,29.92,SSW,203,0.0,0.0,99,0.00,,---,0.00,VWS V14.01,2013-05-22 11:53:00,
2013-05-22 07:54:00,56.0,55.7,29.92,SSW,204,0.0,1.0,99,0.00,,---,0.00,VWS V14.01,2013-05-22 11:54:00,
2013-05-22 07:55:00,56.0,55.7,29.92,SSW,204,0.0,1.0,99,0.00,,---,0.00,VWS V14.01,2013-05-22 11:55:00,
2013-05-22 07:56:00,56.0,55.7,29.92,SSW,204,0.0,1.0,99,0.00,,---,0.00,VWS V14.01,2013-05-22 11:56:00,
2013-05-22 07:57:00,56.0,55.7,29.92,SSW,204,0.0,1.0,99,0.00,,---,0.00,VWS V14.01,2013-05-22 11:57:00,
2013-05-22 07:58:00,56.2,55.9,29.92,WSW,258,2.0,4.0,99,0.00,,---,0.00,VWS V14.01,2013-05-22 11:58:00,
2013-05-22 07:59:00,56.2,55.9,29.92,WSW,254,0.0,4.0,99,0.00,,---,0.00,VWS V14.01,2013-05-22 11:59:00,
2013-05-22 08:00:00,56.2,55.9,29.91,SSW,200,5.0,5.0,99,0.00,,---,0.00,VWS V14.01,2013-05-22 12:00:00,
2013-05-22 08:01:00,56.3,56.0,29.91,SSW,203,3.0,5.0,99,0.00,,---,0.00,VWS V14.01,2013-05-22 12:01:00,
2013-05-22 08:02:00,56.3,56.0,29.91,SSW,203,0.0,5.0,99,0.00,,---,0.00,VWS V14.01,2013-05-22 12:02:00,
2013-05-22 08:03:00,56.3,56.0,29.91,SSW,203,0.0,5.0,99,0.00,,---,0.00,VWS V14.01,2013-05-22 12:03:00,
2013-05-22 08:04:00,56.3,56.0,29.91,SSW,203,0.0,5.0,99,0.00,,---,0.00,VWS V14.01,2013-05-22 12:04:00,
2013-05-22 08:05:00,56.5,56.2,29.91,West,271,2.0,5.0,99,0.00,,---,0.00,VWS V14.01,2013-05-22 12:05:00,
2013-05-22 08:06:00,56.5,56.2,29.91,West,271,0.0,5.0,99,0.00,,---,0.00,VWS V14.01,2013-05-22 12:06:00,
2013-05-22 08:07:00,56.5,56.2,29.91,West,271,0.0,5.0,99,0.00,,---,0.00,VWS V14.01,2013-05-22 12:07:00,
2013-05-22 08:08:00,56.5,56.2,29.91,West,271,0.0,5.0,99,0.00,,---,0.00,VWS V14.01,2013-05-22 12:08:00,
2013-05-22 08:09:00,56.5,56.2,29.91,West,271,1.0,5.0,99,0.00,,---,0.00,VWS V14.01,2013-05-22 12:09:00,
2013-05-22 08:10:00,56.5,56.2,29.91,SSW,194,0.0,5.0,99,0.00,,---,0.00,VWS V14.01,2013-05-22 12:10:00,
2013-05-22 08:11:00,56.6,56.3,29.91,SSW,210,3.0,5.0,99,0.00,,---,0.00,VWS V14.01,2013-05-22 12:11:00,
2013-05-22 08:12:00,56.6,56.3,29.91,SSW,210,0.0,5.0,99,0.00,,---,0.00,VWS V14.01,2013-05-22 12:12:00,
2013-05-22 08:13:00,56.7,56.4,29.91,SSW,210,0.0,5.0,99,0.00,,---,0.00,VWS V14.01,2013-05-22 12:13:00,
2013-05-22 08:14:00,56.7,56.4,29.91,SSW,211,0.0,5.0,99,0.00,,---,0.00,VWS V14.01,2013-05-22 12:14:00,
2013-05-22 08:15:00,56.9,56.6,29.92,SSW,211,0.0,5.0,99,0.00,,---,0.00,VWS V14.01,2013-05-22 12:15:00,
2013-05-22 08:16:00,56.9,56.6,29.92,SSW,210,0.0,5.0,99,0.00,,---,0.00,VWS V14.01,2013-05-22 12:16:00,
2013-05-22 08:17:00,57.0,56.7,29.92,SSW,198,3.0,5.0,99,0.00,,---,0.00,VWS V14.01,2013-05-22 12:17:00,
2013-05-22 08:18:00,57.0,56.7,29.92,SSW,196,0.0,5.0,99,0.00,,---,0.00,VWS V14.01,2013-05-22 12:18:00,
2013-05-22 08:19:00,57.0,56.7,29.92,SSW,203,0.0,5.0,99,0.00,,---,0.00,VWS V14.01,2013-05-22 12:19:00,
2013-05-22 08:20:00,57.2,56.9,29.92,SSW,203,0.0,5.0,99,0.00,,---,0.00,VWS V14.01,2013-05-22 12:20:00,
2013-05-22 08:21:00,57.2,56.9,29.92,SSW,203,1.0,4.0,99,0.00,,---,0.00,VWS V14.01,2013-05-22 12:21:00,
2013-05-22 08:22:00,57.3,57.0,29.92,SSW,203,2.0,4.0,99,0.00,,---,0.00,VWS V14.01,2013-05-22 12:22:00,
2013-05-22 08:23:00,57.3,57.0,29.92,SSW,203,1.0,4.0,99,0.00,,---,0.00,VWS V14.01,2013-05-22 12:23:00,
2013-05-22 08:24:00,57.5,57.2,29.92,SSW,200,1.0,4.0,99,0.00,,---,0.00,VWS V14.01,2013-05-22 12:24:00,
2013-05-22 08:25:00,57.5,57.2,29.92,SSW,200,2.0,4.0,99,0.00,,---,0.00,VWS V14.01,2013-05-22 12:25:00,
2013-05-22 08:26:00,57.5,57.2,29.92,SSW,198,6.0,6.0,99,0.00,,---,0.00,VWS V14.01,2013-05-22 12:26:00,
2013-05-22 08:27:00,57.5,57.2,29.92,SW,215,3.0,6.0,99,0.00,,---,0.00,VWS V14.01,2013-05-22 12:27:00,
2013-05-22 08:28:00,57.5,57.2,29.92,SW,234,2.0,6.0,99,0.00,,---,0.00,VWS V14.01,2013-05-22 12:28:00,
2013-05-22 08:29:00,57.6,57.3,29.92,SW,234,0.0,6.0,99,0.00,,---,0.00,VWS V14.01,2013-05-22 12:29:00,
2013-05-22 08:30:00,57.6,57.3,29.91,WSW,250,2.0,6.0,99,0.00,,---,0.00,VWS V14.01,2013-05-22 12:30:00,
2013-05-22 08:31:00,57.6,57.3,29.91,WSW,250,0.0,2.0,99,0.00,,---,0.00,VWS V14.01,2013-05-22 12:31:00,
2013-05-22 08:32:00,57.6,57.3,29.91,WSW,250,0.0,2.0,99,0.00,,---,0.00,VWS V14.01,2013-05-22 12:32:00,
2013-05-22 08:33:00,57.6,57.3,29.91,SW,217,0.0,2.0,99,0.00,,---,0.00,VWS V14.01,2013-05-22 12:33:00,
2013-05-22 08:34:00,57.6,57.3,29.91,SSW,201,1.0,2.0,99,0.00,,---,0.00,VWS V14.01,2013-05-22 12:34:00,
2013-05-22 08:35:00,57.8,57.8,29.91,SSW,201,0.0,3.0,100,0.00,,---,0.00,VWS V14.01,2013-05-22 12:35:00,
2013-05-22 08:36:00,57.8,57.5,29.91,SSW,201,3.0,3.0,99,0.00,,---,0.00,VWS V14.01,2013-05-22 12:36:00,
2013-05-22 08:37:00,58.0,57.7,29.91,SSW,208,4.0,5.0,99,0.00,,---,0.00,VWS V14.01,2013-05-22 12:37:00,
2013-05-22 08:38:00,58.0,57.7,29.91,SSW,204,5.0,5.0,99,0.00,,---,0.00,VWS V14.01,2013-05-22 12:38:00,
2013-05-22 08:39:00,58.0,57.7,29.91,SSW,202,2.0,5.0,99,0.00,,---,0.00,VWS V14.01,2013-05-22 12:39:00,
2013-05-22 08:40:00,58.0,57.7,29.91,SSW,203,0.0,5.0,99,0.00,,---,0.00,VWS V14.01,2013-05-22 12:40:00,
2013-05-22 08:41:00,58.1,57.8,29.91,SSW,203,0.0,3.0,99,0.00,,---,0.00,VWS V14.01,2013-05-22 12:41:00,
2013-05-22 08:42:00,58.1,57.8,29.91,SSW,203,0.0,3.0,99,0.00,,---,0.00,VWS V14.01,2013-05-22 12:42:00,
2013-05-22 08:43:00,58.1,57.8,29.91,SSW,203,0.0,3.0,99,0.00,,---,0.00,VWS V14.01,2013-05-22 12:43:00,
2013-05-22 08:44:00,58.1,57.8,29.91,SW,227,0.0,3.0,99,0.00,,---,0.00,VWS V14.01,2013-05-22 12:44:00,
2013-05-22 08:45:00,58.3,58.0,29.91,SW,227,0.0,3.0,99,0.00,,---,0.00,VWS V14.01,2013-05-22 12:45:00,
2013-05-22 08:46:00,58.3,57.7,29.91,SW,227,0.0,3.0,98,0.00,,---,0.00,VWS V14.01,2013-05-22 12:46:00,
2013-05-22 08:47:00,58.3,57.7,29.91,SW,227,0.0,3.0,98,0.00,,---,0.00,VWS V14.01,2013-05-22 12:47:00,
2013-05-22 08:48:00,58.3,57.7,29.91,SW,227,0.0,3.0,98,0.00,,---,0.00,VWS V14.01,2013-05-22 12:48:00,
2013-05-22 08:49:00,58.4,57.8,29.91,SW,227,0.0,3.0,98,0.00,,---,0.00,VWS V14.01,2013-05-22 12:49:00,
2013-05-22 08:50:00,58.4,57.8,29.91,SW,227,0.0,3.0,98,0.00,,---,0.00,VWS V14.01,2013-05-22 12:50:00,
2013-05-22 08:51:00,58.4,57.8,29.91,SW,227,0.0,1.0,98,0.00,,---,0.00,VWS V14.01,2013-05-22 12:51:00,
2013-05-22 08:52:00,58.4,57.8,29.91,WSW,239,2.0,2.0,98,0.00,,---,0.00,VWS V14.01,2013-05-22 12:52:00,
2013-05-22 08:53:00,58.4,57.8,29.91,WSW,239,0.0,2.0,98,0.00,,---,0.00,VWS V14.01,2013-05-22 12:53:00,
2013-05-22 08:54:00,58.6,58.0,29.91,WSW,239,0.0,2.0,98,0.00,,---,0.00,VWS V14.01,2013-05-22 12:54:00,
2013-05-22 08:55:00,58.6,58.0,29.91,WSW,239,0.0,2.0,98,0.00,,---,0.00,VWS V14.01,2013-05-22 12:55:00,
2013-05-22 08:56:00,58.6,58.0,29.91,WSW,239,0.0,2.0,98,0.00,,---,0.00,VWS V14.01,2013-05-22 12:56:00,
2013-05-22 08:57:00,58.6,58.0,29.91,WSW,239,0.0,2.0,98,0.00,,---,0.00,VWS V14.01,2013-05-22 12:57:00,
2013-05-22 08:58:00,58.7,58.1,29.91,WSW,239,0.0,2.0,98,0.00,,---,0.00,VWS V14.01,2013-05-22 12:58:00,
2013-05-22 08:59:00,58.7,58.1,29.91,WSW,239,0.0,2.0,98,0.00,,---,0.00,VWS V14.01,2013-05-22 12:59:00,
2013-05-22 09:00:00,58.7,58.1,29.92,WSW,239,0.0,2.0,98,0.00,,---,0.00,VWS V14.01,2013-05-22 13:00:00,
2013-05-22 09:01:00,58.7,58.1,29.92,WSW,239,0.0,0.0,98,0.00,,---,0.00,VWS V14.01,2013-05-22 13:01:00,
2013-05-22 09:02:00,58.9,58.3,29.92,WSW,239,0.0,0.0,98,0.00,,---,0.00,VWS V14.01,2013-05-22 13:02:00,
2013-05-22 09:03:00,58.9,58.3,29.92,WSW,239,0.0,1.0,98,0.00,,---,0.00,VWS V14.01,2013-05-22 13:03:00,
2013-05-22 09:04:00,58.9,58.3,29.92,West,279,3.0,5.0,98,0.00,,---,0.00,VWS V14.01,2013-05-22 13:04:00,
2013-05-22 09:05:00,58.9,58.3,29.92,West,279,0.0,5.0,98,0.00,,---,0.00,VWS V14.01,2013-05-22 13:05:00,
2013-05-22 09:06:00,58.9,58.3,29.92,West,279,0.0,5.0,98,0.00,,---,0.00,VWS V14.01,2013-05-22 13:06:00,
2013-05-22 09:07:00,59.0,58.4,29.92,West,279,0.0,5.0,98,0.00,,---,0.00,VWS V14.01,2013-05-22 13:07:00,
2013-05-22 09:08:00,59.2,58.6,29.92,West,279,0.0,5.0,98,0.00,,---,0.00,VWS V14.01,2013-05-22 13:08:00,
2013-05-22 09:09:00,59.2,58.6,29.92,West,279,0.0,5.0,98,0.00,,---,0.00,VWS V14.01,2013-05-22 13:09:00,
2013-05-22 09:10:00,59.3,58.7,29.92,West,279,0.0,5.0,98,0.00,,---,0.00,VWS V14.01,2013-05-22 13:10:00,
2013-05-22 09:11:00,59.3,58.7,29.92,West,279,0.0,0.0,98,0.00,,---,0.00,VWS V14.01,2013-05-22 13:11:00,
2013-05-22 09:12:00,59.3,58.7,29.92,West,279,0.0,0.0,98,0.00,,---,0.00,VWS V14.01,2013-05-22 13:12:00,
2013-05-22 09:13:00,59.5,58.9,29.92,West,279,0.0,1.0,98,0.00,,---,0.00,VWS V14.01,2013-05-22 13:13:00,
2013-05-22 09:14:00,59.5,58.9,29.92,West,279,0.0,2.0,98,0.00,,---,0.00,VWS V14.01,2013-05-22 13:14:00,
2013-05-22 09:15:00,59.5,58.9,29.92,West,279,0.0,2.0,98,0.00,,---,0.00,VWS V14.01,2013-05-22 13:15:00,
2013-05-22 09:16:00,59.6,59.0,29.92,West,279,0.0,2.0,98,0.00,,---,0.00,VWS V14.01,2013-05-22 13:16:00,
2013-05-22 09:17:00,59.6,59.0,29.92,West,279,0.0,2.0,98,0.00,,---,0.00,VWS V14.01,2013-05-22 13:17:00,
2013-05-22 09:18:00,59.8,59.2,29.92,West,279,0.0,2.0,98,0.00,,---,0.00,VWS V14.01,2013-05-22 13:18:00,
2013-05-22 09:19:00,59.8,59.2,29.92,West,279,0.0,2.0,98,0.00,,---,0.00,VWS V14.01,2013-05-22 13:19:00,
2013-05-22 09:20:00,59.8,59.2,29.92,West,279,0.0,2.0,98,0.00,,---,0.00,VWS V14.01,2013-05-22 13:20:00,
2013-05-22 09:21:00,59.8,59.2,29.92,West,279,0.0,0.0,98,0.00,,---,0.00,VWS V14.01,2013-05-22 13:21:00,
2013-05-22 09:22:00,59.8,59.2,29.92,West,279,0.0,1.0,98,0.00,,---,0.00,VWS V14.01,2013-05-22 13:22:00,
2013-05-22 09:23:00,59.9,59.3,29.92,West,279,0.0,1.0,98,0.00,,---,0.00,VWS V14.01,2013-05-22 13:23:00,
2013-05-22 09:24:00,59.9,59.3,29.92,West,279,0.0,1.0,98,0.00,,---,0.00,VWS V14.01,2013-05-22 13:24:00,
2013-05-22 09:25:00,59.9,59.3,29.92,West,279,0.0,1.0,98,0.00,,---,0.00,VWS V14.01,2013-05-22 13:25:00,
2013-05-22 09:26:00,60.1,59.5,29.92,SSE,158,0.0,2.0,98,0.00,,---,0.00,VWS V14.01,2013-05-22 13:26:00,
2013-05-22 09:27:00,60.1,59.5,29.92,SSW,195,1.0,2.0,98,0.00,,---,0.00,VWS V14.01,2013-05-22 13:27:00,
2013-05-22 09:28:00,60.1,59.5,29.92,SW,221,0.0,2.0,98,0.00,,---,0.00,VWS V14.01,2013-05-22 13:28:00,
2013-05-22 09:29:00,60.2,59.6,29.92,SW,221,0.0,2.0,98,0.00,,---,0.00,VWS V14.01,2013-05-22 13:29:00,
2013-05-22 09:30:00,60.2,59.6,29.92,SW,221,0.0,2.0,98,0.00,,---,0.00,VWS V14.01,2013-05-22 13:30:00,
2013-05-22 09:31:00,60.2,59.6,29.92,SW,221,0.0,0.0,98,0.00,,---,0.00,VWS V14.01,2013-05-22 13:31:00,
2013-05-22 09:32:00,60.4,59.8,29.92,SW,221,0.0,1.0,98,0.00,,---,0.00,VWS V14.01,2013-05-22 13:32:00,
2013-05-22 09:33:00,60.4,59.8,29.92,SW,223,1.0,1.0,98,0.00,,---,0.00,VWS V14.01,2013-05-22 13:33:00,
2013-05-22 09:34:00,60.5,59.7,29.92,SW,223,0.0,1.0,97,0.00,,---,0.00,VWS V14.01,2013-05-22 13:34:00,
2013-05-22 09:35:00,60.5,59.7,29.92,SW,223,0.0,1.0,97,0.00,,---,0.00,VWS V14.01,2013-05-22 13:35:00,
2013-05-22 09:36:00,60.5,59.7,29.92,SW,223,0.0,1.0,97,0.00,,---,0.00,VWS V14.01,2013-05-22 13:36:00,
2013-05-22 09:37:00,60.7,59.8,29.92,SW,223,0.0,1.0,97,0.00,,---,0.00,VWS V14.01,2013-05-22 13:37:00,
2013-05-22 09:38:00,60.7,59.8,29.92,SW,227,0.0,2.0,97,0.00,,---,0.00,VWS V14.01,2013-05-22 13:38:00,
2013-05-22 09:39:00,60.9,60.0,29.92,SW,227,0.0,2.0,97,0.00,,---,0.00,VWS V14.01,2013-05-22 13:39:00,
2013-05-22 09:40:00,61.0,60.2,29.92,SW,227,0.0,2.0,97,0.00,,---,0.00,VWS V14.01,2013-05-22 13:40:00,
2013-05-22 09:41:00,61.0,60.2,29.92,SW,227,0.0,0.0,97,0.00,,---,0.00,VWS V14.01,2013-05-22 13:41:00,
2013-05-22 09:42:00,61.2,60.3,29.92,SW,227,0.0,1.0,97,0.00,,---,0.00,VWS V14.01,2013-05-22 13:42:00,
2013-05-22 09:43:00,61.2,60.3,29.92,SW,227,0.0,1.0,97,0.00,,---,0.00,VWS V14.01,2013-05-22 13:43:00,
2013-05-22 09:44:00,61.3,60.4,29.92,SSW,200,0.0,1.0,97,0.00,,---,0.00,VWS V14.01,2013-05-22 13:44:00,
2013-05-22 09:45:00,61.3,60.4,29.92,SSW,200,0.0,1.0,97,0.00,,---,0.00,VWS V14.01,2013-05-22 13:45:00,
2013-05-22 09:46:00,61.5,60.6,29.92,SSW,200,0.0,1.0,97,0.00,,---,0.00,VWS V14.01,2013-05-22 13:46:00,
2013-05-22 09:47:00,61.6,60.7,29.92,SSW,200,0.0,1.0,97,0.00,,---,0.00,VWS V14.01,2013-05-22 13:47:00,
2013-05-22 09:48:00,61.6,60.7,29.92,SSW,200,0.0,1.0,97,0.00,,---,0.00,VWS V14.01,2013-05-22 13:48:00,
2013-05-22 09:49:00,61.8,60.7,29.92,SSW,200,0.0,1.0,96,0.00,,---,0.00,VWS V14.01,2013-05-22 13:49:00,
2013-05-22 09:50:00,61.8,60.7,29.92,SW,227,0.0,1.0,96,0.00,,---,0.00,VWS V14.01,2013-05-22 13:50:00,
2013-05-22 09:51:00,62.0,60.8,29.92,SW,227,0.0,0.0,96,0.00,,---,0.00,VWS V14.01,2013-05-22 13:51:00,
2013-05-22 09:52:00,62.0,60.8,29.92,SW,227,0.0,0.0,96,0.00,,---,0.00,VWS V14.01,2013-05-22 13:52:00,
2013-05-22 09:53:00,62.0,60.8,29.92,SW,227,0.0,0.0,96,0.00,,---,0.00,VWS V14.01,2013-05-22 13:53:00,
2013-05-22 09:54:00,62.1,61.0,29.92,SW,214,0.0,0.0,96,0.00,,---,0.00,VWS V14.01,2013-05-22 13:54:00,
2013-05-22 09:55:00,62.1,61.0,29.92,SW,214,0.0,0.0,96,0.00,,---,0.00,VWS V14.01,2013-05-22 13:55:00,
2013-05-22 09:56:00,62.3,61.2,29.92,SW,214,0.0,0.0,96,0.00,,---,0.00,VWS V14.01,2013-05-22 13:56:00,
2013-05-22 09:57:00,62.3,61.2,29.92,SW,214,0.0,0.0,96,0.00,,---,0.00,VWS V14.01,2013-05-22 13:57:00,
2013-05-22 09:58:00,62.4,61.2,29.92,SW,214,0.0,0.0,96,0.00,,---,0.00,VWS V14.01,2013-05-22 13:58:00,
2013-05-22 09:59:00,62.6,61.5,29.92,SW,215,1.0,1.0,96,0.00,,---,0.00,VWS V14.01,2013-05-22 13:59:00,
2013-05-22 10:00:00,62.6,61.2,29.93,SW,215,0.0,1.0,95,0.00,,---,0.00,VWS V14.01,2013-05-22 14:00:00,
2013-05-22 10:01:00,62.6,61.2,29.93,SW,215,0.0,0.0,95,0.00,,---,0.00,VWS V14.01,2013-05-22 14:01:00,
2013-05-22 10:02:00,62.7,61.2,29.93,SW,215,0.0,1.0,95,0.00,,---,0.00,VWS V14.01,2013-05-22 14:02:00,
2013-05-22 10:03:00,62.7,61.2,29.93,West,267,0.0,2.0,95,0.00,,---,0.00,VWS V14.01,2013-05-22 14:03:00,
2013-05-22 10:04:00,62.7,61.2,29.93,West,267,0.0,2.0,95,0.00,,---,0.00,VWS V14.01,2013-05-22 14:04:00,
2013-05-22 10:05:00,62.7,61.2,29.93,West,267,0.0,2.0,95,0.00,,---,0.00,VWS V14.01,2013-05-22 14:05:00,
2013-05-22 10:06:00,62.9,61.5,29.93,West,267,0.0,2.0,95,0.00,,---,0.00,VWS V14.01,2013-05-22 14:06:00,
2013-05-22 10:07:00,63.1,61.7,29.93,West,267,0.0,2.0,95,0.00,,---,0.00,VWS V14.01,2013-05-22 14:07:00,
2013-05-22 10:08:00,63.1,61.7,29.93,West,267,0.0,2.0,95,0.00,,---,0.00,VWS V14.01,2013-05-22 14:08:00,
2013-05-22 10:09:00,63.2,61.8,29.93,West,267,0.0,2.0,95,0.00,,---,0.00,VWS V14.01,2013-05-22 14:09:00,
2013-05-22 10:10:00,63.4,61.7,29.93,West,267,0.0,2.0,94,0.00,,---,0.00,VWS V14.01,2013-05-22 14:10:00,
2013-05-22 10:11:00,63.4,61.7,29.93,West,267,0.0,1.0,94,0.00,,---,0.00,VWS V14.01,2013-05-22 14:11:00,
2013-05-22 10:12:00,63.5,61.8,29.93,West,267,0.0,1.0,94,0.00,,---,0.00,VWS V14.01,2013-05-22 14:12:00,
2013-05-22 10:13:00,63.7,62.0,29.93,West,267,0.0,1.0,94,0.00,,---,0.00,VWS V14.01,2013-05-22 14:13:00,
2013-05-22 10:14:00,63.9,62.1,29.93,West,267,0.0,1.0,94,0.00,,---,0.00,VWS V14.01,2013-05-22 14:14:00,
2013-05-22 10:15:00,63.9,61.8,29.92,WSW,239,0.0,1.0,93,0.00,,---,0.00,VWS V14.01,2013-05-22 14:15:00,
2013-05-22 10:16:00,63.9,61.8,29.92,WSW,239,0.0,1.0,93,0.00,,---,0.00,VWS V14.01,2013-05-22 14:16:00,
2013-05-22 10:17:00,64.0,61.9,29.92,WSW,239,0.0,1.0,93,0.00,,---,0.00,VWS V14.01,2013-05-22 14:17:00,
2013-05-22 10:18:00,64.0,61.9,29.92,WSW,239,0.0,1.0,93,0.00,,---,0.00,VWS V14.01,2013-05-22 14:18:00,
2013-05-22 10:19:00,64.0,61.9,29.92,WSW,239,0.0,1.0,93,0.00,,---,0.00,VWS V14.01,2013-05-22 14:19:00,
2013-05-22 10:20:00,64.2,61.8,29.92,WSW,240,0.0,1.0,92,0.00,,---,0.00,VWS V14.01,2013-05-22 14:20:00,
2013-05-22 10:21:00,64.2,61.8,29.92,WSW,240,0.0,0.0,92,0.00,,---,0.00,VWS V14.01,2013-05-22 14:21:00,
2013-05-22 10:22:00,64.2,61.8,29.92,WSW,240,0.0,0.0,92,0.00,,---,0.00,VWS V14.01,2013-05-22 14:22:00,
2013-05-22 10:23:00,64.2,61.5,29.92,WSW,240,1.0,1.0,91,0.00,,---,0.00,VWS V14.01,2013-05-22 14:23:00,
2013-05-22 10:24:00,64.2,61.5,29.92,WSW,240,0.0,1.0,91,0.00,,---,0.00,VWS V14.01,2013-05-22 14:24:00,
2013-05-22 10:25:00,64.2,61.5,29.92,WSW,240,0.0,1.0,91,0.00,,---,0.00,VWS V14.01,2013-05-22 14:25:00,
2013-05-22 10:26:00,64.3,61.6,29.92,WSW,239,0.0,1.0,91,0.00,,---,0.00,VWS V14.01,2013-05-22 14:26:00,
2013-05-22 10:27:00,64.5,61.8,29.92,WSW,239,0.0,1.0,91,0.00,,---,0.00,VWS V14.01,2013-05-22 14:27:00,
2013-05-22 10:28:00,64.7,62.0,29.92,WSW,239,0.0,1.0,91,0.00,,---,0.00,VWS V14.01,2013-05-22 14:28:00,
2013-05-22 10:29:00,64.8,62.1,29.92,WSW,239,0.0,1.0,91,0.00,,---,0.00,VWS V14.01,2013-05-22 14:29:00,
2013-05-22 10:30:00,65.0,62.3,29.93,WSW,239,0.0,1.0,91,0.00,,---,0.00,VWS V14.01,2013-05-22 14:30:00,
2013-05-22 10:31:00,65.0,62.3,29.93,WSW,239,0.0,0.0,91,0.00,,---,0.00,VWS V14.01,2013-05-22 14:31:00,
2013-05-22 10:32:00,65.2,62.2,29.93,WSW,239,0.0,0.0,90,0.00,,---,0.00,VWS V14.01,2013-05-22 14:32:00,
2013-05-22 10:33:00,65.3,62.3,29.93,WSW,239,0.0,0.0,90,0.00,,---,0.00,VWS V14.01,2013-05-22 14:33:00,
2013-05-22 10:34:00,65.3,62.3,29.93,WSW,239,0.0,0.0,90,0.00,,---,0.00,VWS V14.01,2013-05-22 14:34:00,
2013-05-22 10:35:00,65.5,62.5,29.93,WSW,239,0.0,0.0,90,0.00,,---,0.00,VWS V14.01,2013-05-22 14:35:00,
2013-05-22 10:36:00,65.5,62.5,29.93,WSW,239,0.0,0.0,90,0.00,,---,0.00,VWS V14.01,2013-05-22 14:36:00,
2013-05-22 10:37:00,65.6,62.6,29.93,WSW,239,0.0,0.0,90,0.00,,---,0.00,VWS V14.01,2013-05-22 14:37:00,
2013-05-22 10:38:00,65.6,62.6,29.93,WSW,239,0.0,1.0,90,0.00,,---,0.00,VWS V14.01,2013-05-22 14:38:00,
2013-05-22 10:39:00,65.8,62.5,29.93,WSW,239,0.0,1.0,89,0.00,,---,0.00,VWS V14.01,2013-05-22 14:39:00,
2013-05-22 10:40:00,65.8,62.5,29.93,WSW,239,0.0,1.0,89,0.00,,---,0.00,VWS V14.01,2013-05-22 14:40:00,
2013-05-22 10:41:00,65.8,62.5,29.93,WSW,239,0.0,0.0,89,0.00,,---,0.00,VWS V14.01,2013-05-22 14:41:00,
2013-05-22 10:42:00,66.0,62.7,29.93,WSW,239,0.0,0.0,89,0.00,,---,0.00,VWS V14.01,2013-05-22 14:42:00,
2013-05-22 10:43:00,66.0,62.7,29.93,WSW,239,0.0,0.0,89,0.00,,---,0.00,VWS V14.01,2013-05-22 14:43:00,
2013-05-22 10:44:00,66.0,62.7,29.93,WSW,239,0.0,0.0,89,0.00,,---,0.00,VWS V14.01,2013-05-22 14:44:00,
2013-05-22 10:45:00,66.1,62.8,29.92,WSW,239,0.0,0.0,89,0.00,,---,0.00,VWS V14.01,2013-05-22 14:45:00,
2013-05-22 10:46:00,66.1,62.8,29.92,WSW,239,0.0,0.0,89,0.00,,---,0.00,VWS V14.01,2013-05-22 14:46:00,
2013-05-22 10:47:00,66.3,62.6,29.92,WSW,239,0.0,0.0,88,0.00,,---,0.00,VWS V14.01,2013-05-22 14:47:00,
2013-05-22 10:48:00,66.3,62.6,29.92,WSW,239,0.0,0.0,88,0.00,,---,0.00,VWS V14.01,2013-05-22 14:48:00,
2013-05-22 10:49:00,66.4,62.7,29.92,WSW,239,0.0,1.0,88,0.00,,---,0.00,VWS V14.01,2013-05-22 14:49:00,
2013-05-22 10:50:00,66.4,62.7,29.92,SSW,201,4.0,4.0,88,0.00,,---,0.00,VWS V14.01,2013-05-22 14:50:00,
2013-05-22 10:51:00,66.4,62.4,29.92,SSW,200,0.0,5.0,87,0.00,,---,0.00,VWS V14.01,2013-05-22 14:51:00,
2013-05-22 10:52:00,66.4,62.4,29.92,SSW,200,0.0,5.0,87,0.00,,---,0.00,VWS V14.01,2013-05-22 14:52:00,
2013-05-22 10:53:00,66.4,62.4,29.92,SSW,200,0.0,5.0,87,0.00,,---,0.00,VWS V14.01,2013-05-22 14:53:00,
2013-05-22 10:54:00,66.6,62.6,29.92,ENE,70,0.0,5.0,87,0.00,,---,0.00,VWS V14.01,2013-05-22 14:54:00,
2013-05-22 10:55:00,66.6,62.6,29.92,ENE,70,0.0,5.0,87,0.00,,---,0.00,VWS V14.01,2013-05-22 14:55:00,
2013-05-22 10:56:00,66.6,62.3,29.92,ENE,70,1.0,5.0,86,0.00,,---,0.00,VWS V14.01,2013-05-22 14:56:00,
2013-05-22 10:57:00,66.8,62.5,29.92,ENE,70,0.0,5.0,86,0.00,,---,0.00,VWS V14.01,2013-05-22 14:57:00,
2013-05-22 10:58:00,66.8,62.5,29.92,ENE,70,0.0,5.0,86,0.00,,---,0.00,VWS V14.01,2013-05-22 14:58:00,
2013-05-22 10:59:00,66.8,62.5,29.92,ENE,70,0.0,5.0,86,0.00,,---,0.00,VWS V14.01,2013-05-22 14:59:00,
2013-05-22 11:00:00,66.8,62.5,29.92,ENE,70,0.0,5.0,86,0.00,,---,0.00,VWS V14.01,2013-05-22 15:00:00,
2013-05-22 11:01:00,66.8,62.5,29.92,ENE,70,0.0,2.0,86,0.00,,---,0.00,VWS V14.01,2013-05-22 15:01:00,
2013-05-22 11:02:00,66.8,62.2,29.92,ENE,70,0.0,2.0,85,0.00,,---,0.00,VWS V14.01,2013-05-22 15:02:00,
2013-05-22 11:03:00,66.8,62.2,29.92,ENE,70,1.0,2.0,85,0.00,,---,0.00,VWS V14.01,2013-05-22 15:03:00,
2013-05-22 11:04:00,66.8,62.2,29.92,ENE,70,0.0,3.0,85,0.00,,---,0.00,VWS V14.01,2013-05-22 15:04:00,
2013-05-22 11:05:00,66.8,62.2,29.92,ENE,70,0.0,3.0,85,0.00,,---,0.00,VWS V14.01,2013-05-22 15:05:00,
2013-05-22 11:06:00,66.8,62.2,29.92,ENE,70,0.0,3.0,85,0.00,,---,0.00,VWS V14.01,2013-05-22 15:06:00,
2013-05-22 11:07:00,66.8,62.2,29.92,ENE,70,0.0,3.0,85,0.00,,---,0.00,VWS V14.01,2013-05-22 15:07:00,
2013-05-22 11:08:00,66.8,62.2,29.92,ESE,122,0.0,3.0,85,0.00,,---,0.00,VWS V14.01,2013-05-22 15:08:00,
2013-05-22 11:09:00,66.9,62.2,29.92,ESE,123,0.0,3.0,85,0.00,,---,0.00,VWS V14.01,2013-05-22 15:09:00,
2013-05-22 11:10:00,66.9,62.2,29.92,ESE,122,0.0,3.0,85,0.00,,---,0.00,VWS V14.01,2013-05-22 15:10:00,
2013-05-22 11:11:00,66.9,62.2,29.92,ESE,122,0.0,1.0,85,0.00,,---,0.00,VWS V14.01,2013-05-22 15:11:00,
2013-05-22 11:12:00,66.9,62.2,29.92,ESE,122,0.0,1.0,85,0.00,,---,0.00,VWS V14.01,2013-05-22 15:12:00,
2013-05-22 11:13:00,66.9,62.2,29.92,ESE,123,0.0,1.0,85,0.00,,---,0.00,VWS V14.01,2013-05-22 15:13:00,
2013-05-22 11:14:00,66.9,62.2,29.92,ESE,122,0.0,1.0,85,0.00,,---,0.00,VWS V14.01,2013-05-22 15:14:00,
2013-05-22 11:15:00,67.1,62.5,29.92,ESE,122,0.0,1.0,85,0.00,,---,0.00,VWS V14.01,2013-05-22 15:15:00,
2013-05-22 11:16:00,67.1,62.5,29.92,ESE,123,0.0,1.0,85,0.00,,---,0.00,VWS V14.01,2013-05-22 15:16:00,
2013-05-22 11:17:00,67.1,62.5,29.92,ESE,123,0.0,1.0,85,0.00,,---,0.00,VWS V14.01,2013-05-22 15:17:00,
2013-05-22 11:18:00,67.1,62.5,29.92,ESE,122,0.0,1.0,85,0.00,,---,0.00,VWS V14.01,2013-05-22 15:18:00,
2013-05-22 11:19:00,67.1,62.1,29.92,ESE,122,0.0,1.0,84,0.00,,---,0.00,VWS V14.01,2013-05-22 15:19:00,
2013-05-22 11:20:00,66.9,61.9,29.92,ESE,123,0.0,1.0,84,0.00,,---,0.00,VWS V14.01,2013-05-22 15:20:00,
2013-05-22 11:21:00,67.1,62.1,29.92,SE,125,0.0,1.0,84,0.00,,---,0.00,VWS V14.01,2013-05-22 15:21:00,
2013-05-22 11:22:00,67.1,62.1,29.92,SSW,196,3.0,4.0,84,0.00,,---,0.00,VWS V14.01,2013-05-22 15:22:00,
2013-05-22 11:23:00,67.1,62.1,29.92,SSW,196,0.0,4.0,84,0.00,,---,0.00,VWS V14.01,2013-05-22 15:23:00,
2013-05-22 11:24:00,67.1,62.1,29.92,SSW,196,0.0,4.0,84,0.00,,---,0.00,VWS V14.01,2013-05-22 15:24:00,
2013-05-22 11:25:00,67.1,62.1,29.92,SSW,196,0.0,4.0,84,0.00,,---,0.00,VWS V14.01,2013-05-22 15:25:00,
2013-05-22 11:26:00,67.1,62.1,29.92,SSW,196,0.0,4.0,84,0.00,,---,0.00,VWS V14.01,2013-05-22 15:26:00,
2013-05-22 11:27:00,67.1,62.1,29.92,SSW,196,0.0,4.0,84,0.00,,---,0.00,VWS V14.01,2013-05-22 15:27:00,
2013-05-22 11:28:00,67.1,62.1,29.92,SSW,196,0.0,4.0,84,0.00,,---,0.00,VWS V14.01,2013-05-22 15:28:00,
2013-05-22 11:29:00,67.1,62.1,29.92,SSW,196,0.0,4.0,84,0.00,,---,0.00,VWS V14.01,2013-05-22 15:29:00,
2013-05-22 11:30:00,67.3,62.3,29.92,SSW,196,0.0,4.0,84,0.00,,---,0.00,VWS V14.01,2013-05-22 15:30:00,
2013-05-22 11:31:00,67.3,62.3,29.92,SE,124,1.0,1.0,84,0.00,,---,0.00,VWS V14.01,2013-05-22 15:31:00,
2013-05-22 11:32:00,67.1,61.8,29.92,SE,124,0.0,1.0,83,0.00,,---,0.00,VWS V14.01,2013-05-22 15:32:00,
2013-05-22 11:33:00,67.1,61.8,29.92,SE,124,0.0,1.0,83,0.00,,---,0.00,VWS V14.01,2013-05-22 15:33:00,
2013-05-22 11:34:00,67.1,61.8,29.92,East,92,0.0,2.0,83,0.00,,---,0.00,VWS V14.01,2013-05-22 15:34:00,
2013-05-22 11:35:00,67.1,62.1,29.92,East,92,0.0,2.0,84,0.00,,---,0.00,VWS V14.01,2013-05-22 15:35:00,
2013-05-22 11:36:00,67.1,62.1,29.92,East,92,0.0,2.0,84,0.00,,---,0.00,VWS V14.01,2013-05-22 15:36:00,
2013-05-22 11:37:00,67.1,62.1,29.92,East,92,0.0,2.0,84,0.00,,---,0.00,VWS V14.01,2013-05-22 15:37:00,
2013-05-22 11:38:00,67.3,62.3,29.92,SSW,199,0.0,4.0,84,0.00,,---,0.00,VWS V14.01,2013-05-22 15:38:00,
2013-05-22 11:39:00,67.1,61.8,29.92,SSW,199,0.0,4.0,83,0.00,,---,0.00,VWS V14.01,2013-05-22 15:39:00,
2013-05-22 11:40:00,67.1,61.8,29.92,SSW,200,0.0,4.0,83,0.00,,---,0.00,VWS V14.01,2013-05-22 15:40:00,
2013-05-22 11:41:00,67.3,62.0,29.92,SSW,199,2.0,2.0,83,0.00,,---,0.00,VWS V14.01,2013-05-22 15:41:00,
2013-05-22 11:42:00,67.1,61.8,29.92,SSW,199,0.0,2.0,83,0.00,,---,0.00,VWS V14.01,2013-05-22 15:42:00,
2013-05-22 11:43:00,67.3,62.0,29.92,SSW,199,1.0,2.0,83,0.00,,---,0.00,VWS V14.01,2013-05-22 15:43:00,
2013-05-22 11:44:00,67.3,62.0,29.92,SSW,198,0.0,4.0,83,0.00,,---,0.00,VWS V14.01,2013-05-22 15:44:00,
2013-05-22 11:45:00,67.3,62.0,29.92,SSW,198,0.0,4.0,83,0.00,,---,0.00,VWS V14.01,2013-05-22 15:45:00,
2013-05-22 11:46:00,67.3,62.0,29.92,SSW,198,0.0,4.0,83,0.00,,---,0.00,VWS V14.01,2013-05-22 15:46:00,
2013-05-22 11:47:00,67.3,62.0,29.92,SSW,195,0.0,4.0,83,0.00,,---,0.00,VWS V14.01,2013-05-22 15:47:00,
2013-05-22 11:48:00,67.3,62.3,29.92,SSW,195,1.0,4.0,84,0.00,,---,0.00,VWS V14.01,2013-05-22 15:48:00,
2013-05-22 11:49:00,67.3,62.0,29.92,SSW,195,0.0,4.0,83,0.00,,---,0.00,VWS V14.01,2013-05-22 15:49:00,
2013-05-22 11:50:00,67.3,62.0,29.92,SSW,201,0.0,4.0,83,0.00,,---,0.00,VWS V14.01,2013-05-22 15:50:00,
2013-05-22 11:51:00,67.3,62.0,29.92,SSW,200,2.0,2.0,83,0.00,,---,0.00,VWS V14.01,2013-05-22 15:51:00,
2013-05-22 11:52:00,67.3,62.0,29.92,SSW,201,3.0,4.0,83,0.00,,---,0.00,VWS V14.01,2013-05-22 15:52:00,
2013-05-22 11:53:00,67.3,62.0,29.92,SSW,200,0.0,4.0,83,0.00,,---,0.00,VWS V14.01,2013-05-22 15:53:00,
2013-05-22 11:54:00,67.3,62.0,29.92,SSW,200,0.0,4.0,83,0.00,,---,0.00,VWS V14.01,2013-05-22 15:54:00,
2013-05-22 11:55:00,67.3,62.0,29.92,SE,129,0.0,4.0,83,0.00,,---,0.00,VWS V14.01,2013-05-22 15:55:00,
2013-05-22 11:56:00,67.3,62.0,29.92,SSW,200,4.0,4.0,83,0.00,,---,0.00,VWS V14.01,2013-05-22 15:56:00,
2013-05-22 11:57:00,67.3,62.0,29.92,SSW,198,4.0,5.0,83,0.00,,---,0.00,VWS V14.01,2013-05-22 15:57:00,
2013-05-22 11:58:00,67.3,62.0,29.92,SSW,198,0.0,5.0,83,0.00,,---,0.00,VWS V14.01,2013-05-22 15:58:00,
2013-05-22 11:59:00,67.3,62.0,29.92,SSW,198,0.0,5.0,83,0.00,,---,0.00,VWS V14.01,2013-05-22 15:59:00,
2013-05-22 12:00:00,67.3,62.0,29.92,SSE,156,1.0,5.0,83,0.00,,---,0.00,VWS V14.01,2013-05-22 16:00:00,
2013-05-22 12:01:00,67.4,62.4,29.92,SSE,156,0.0,1.0,84,0.00,,---,0.00,VWS V14.01,2013-05-22 16:01:00,
2013-05-22 12:02:00,67.4,62.1,29.92,South,175,0.0,2.0,83,0.00,,---,0.00,VWS V14.01,2013-05-22 16:02:00,
2013-05-22 12:03:00,67.4,62.1,29.92,East,86,0.0,2.0,83,0.00,,---,0.00,VWS V14.01,2013-05-22 16:03:00,
2013-05-22 12:04:00,67.4,62.1,29.92,East,86,1.0,2.0,83,0.00,,---,0.00,VWS V14.01,2013-05-22 16:04:00,
2013-05-22 12:05:00,67.6,62.3,29.92,East,86,0.0,2.0,83,0.00,,---,0.00,VWS V14.01,2013-05-22 16:05:00,
2013-05-22 12:06:00,67.6,62.6,29.92,East,86,1.0,2.0,84,0.00,,---,0.00,VWS V14.01,2013-05-22 16:06:00,
2013-05-22 12:07:00,67.8,62.5,29.92,SSW,197,0.0,3.0,83,0.00,,---,0.00,VWS V14.01,2013-05-22 16:07:00,
2013-05-22 12:08:00,67.8,62.5,29.92,SSE,149,0.0,3.0,83,0.00,,---,0.00,VWS V14.01,2013-05-22 16:08:00,
2013-05-22 12:09:00,67.8,62.5,29.92,SSE,150,1.0,3.0,83,0.00,,---,0.00,VWS V14.01,2013-05-22 16:09:00,
2013-05-22 12:10:00,67.8,62.5,29.92,SSW,200,0.0,4.0,83,0.00,,---,0.00,VWS V14.01,2013-05-22 16:10:00,
2013-05-22 12:11:00,67.8,62.5,29.92,SSW,200,3.0,3.0,83,0.00,,---,0.00,VWS V14.01,2013-05-22 16:11:00,
2013-05-22 12:12:00,67.8,62.5,29.92,SSW,200,0.0,3.0,83,0.00,,---,0.00,VWS V14.01,2013-05-22 16:12:00,
2013-05-22 12:13:00,67.9,62.5,29.92,SE,128,0.0,3.0,83,0.00,,---,0.00,VWS V14.01,2013-05-22 16:13:00,
2013-05-22 12:14:00,67.9,62.5,29.92,ESE,123,0.0,3.0,83,0.00,,---,0.00,VWS V14.01,2013-05-22 16:14:00,
2013-05-22 12:15:00,67.9,62.5,29.91,ESE,123,0.0,3.0,83,0.00,,---,0.00,VWS V14.01,2013-05-22 16:15:00,
2013-05-22 12:16:00,68.1,62.8,29.91,ESE,123,0.0,3.0,83,0.00,,---,0.00,VWS V14.01,2013-05-22 16:16:00,
2013-05-22 12:17:00,68.1,62.8,29.91,South,186,4.0,4.0,83,0.00,,---,0.00,VWS V14.01,2013-05-22 16:17:00,
2013-05-22 12:18:00,68.1,62.4,29.91,South,186,0.0,4.0,82,0.00,,---,0.00,VWS V14.01,2013-05-22 16:18:00,
2013-05-22 12:19:00,68.3,62.6,29.91,South,186,0.0,4.0,82,0.00,,---,0.00,VWS V14.01,2013-05-22 16:19:00,
2013-05-22 12:20:00,68.3,62.9,29.91,South,186,1.0,4.0,83,0.00,,---,0.00,VWS V14.01,2013-05-22 16:20:00,
2013-05-22 12:21:00,68.4,63.0,29.91,South,186,3.0,3.0,83,0.00,,---,0.00,VWS V14.01,2013-05-22 16:21:00,
2013-05-22 12:22:00,68.4,63.0,29.91,South,190,0.0,3.0,83,0.00,,---,0.00,VWS V14.01,2013-05-22 16:22:00,
2013-05-22 12:23:00,68.4,63.0,29.91,SSW,193,2.0,4.0,83,0.00,,---,0.00,VWS V14.01,2013-05-22 16:23:00,
2013-05-22 12:24:00,68.4,62.7,29.91,SSW,193,0.0,4.0,82,0.00,,---,0.00,VWS V14.01,2013-05-22 16:24:00,
2013-05-22 12:25:00,68.4,62.7,29.91,SSW,193,0.0,4.0,82,0.00,,---,0.00,VWS V14.01,2013-05-22 16:25:00,
2013-05-22 12:26:00,68.6,62.9,29.91,SSW,193,0.0,4.0,82,0.00,,---,0.00,VWS V14.01,2013-05-22 16:26:00,
2013-05-22 12:27:00,68.6,62.9,29.91,ENE,74,1.0,4.0,82,0.00,,---,0.00,VWS V14.01,2013-05-22 16:27:00,
2013-05-22 12:28:00,68.6,62.9,29.91,ENE,74,3.0,4.0,82,0.00,,---,0.00,VWS V14.01,2013-05-22 16:28:00,
2013-05-22 12:29:00,68.6,62.9,29.91,ENE,74,0.0,4.0,82,0.00,,---,0.00,VWS V14.01,2013-05-22 16:29:00,
2013-05-22 12:30:00,68.6,62.9,29.90,ENE,74,0.0,4.0,82,0.00,,---,0.00,VWS V14.01,2013-05-22 16:30:00,
2013-05-22 12:31:00,68.6,62.9,29.90,ENE,74,0.0,0.0,82,0.00,,---,0.00,VWS V14.01,2013-05-22 16:31:00,
2013-05-22 12:32:00,68.8,63.1,29.90,South,184,2.0,5.0,82,0.00,,---,0.00,VWS V14.01,2013-05-22 16:32:00,
2013-05-22 12:33:00,68.8,63.1,29.90,South,184,0.0,5.0,82,0.00,,---,0.00,VWS V14.01,2013-05-22 16:33:00,
2013-05-22 12:34:00,68.8,63.4,29.90,South,184,0.0,5.0,83,0.00,,---,0.00,VWS V14.01,2013-05-22 16:34:00,
2013-05-22 12:35:00,68.9,63.5,29.90,South,182,0.0,5.0,83,0.00,,---,0.00,VWS V14.01,2013-05-22 16:35:00,
2013-05-22 12:36:00,69.1,63.7,29.90,SSW,194,2.0,5.0,83,0.00,,---,0.00,VWS V14.01,2013-05-22 16:36:00,
2013-05-22 12:37:00,69.1,63.7,29.90,SSW,194,0.0,5.0,83,0.00,,---,0.00,VWS V14.01,2013-05-22 16:37:00,
2013-05-22 12:38:00,69.1,63.4,29.90,SE,142,0.0,5.0,82,0.00,,---,0.00,VWS V14.01,2013-05-22 16:38:00,
2013-05-22 12:39:00,69.1,63.4,29.90,SE,142,0.0,5.0,82,0.00,,---,0.00,VWS V14.01,2013-05-22 16:39:00,
2013-05-22 12:40:00,69.3,63.6,29.90,East,92,0.0,5.0,82,0.00,,---,0.00,VWS V14.01,2013-05-22 16:40:00,
2013-05-22 12:41:00,69.3,63.6,29.90,East,92,0.0,0.0,82,0.00,,---,0.00,VWS V14.01,2013-05-22 16:41:00,
2013-05-22 12:42:00,69.3,63.6,29.90,East,92,0.0,0.0,82,0.00,,---,0.00,VWS V14.01,2013-05-22 16:42:00,
2013-05-22 12:43:00,69.4,63.7,29.90,East,92,0.0,1.0,82,0.00,,---,0.00,VWS V14.01,2013-05-22 16:43:00,
2013-05-22 12:44:00,69.6,63.9,29.90,East,92,0.0,2.0,82,0.00,,---,0.00,VWS V14.01,2013-05-22 16:44:00,
2013-05-22 12:45:00,69.6,63.9,29.90,East,92,0.0,2.0,82,0.00,,---,0.00,VWS V14.01,2013-05-22 16:45:00,
2013-05-22 12:46:00,69.8,64.1,29.90,East,92,0.0,2.0,82,0.00,,---,0.00,VWS V14.01,2013-05-22 16:46:00,
2013-05-22 12:47:00,69.8,63.7,29.90,East,92,0.0,2.0,81,0.00,,---,0.00,VWS V14.01,2013-05-22 16:47:00,
2013-05-22 12:48:00,69.8,63.7,29.90,East,92,0.0,2.0,81,0.00,,---,0.00,VWS V14.01,2013-05-22 16:48:00,
2013-05-22 12:49:00,69.9,63.8,29.90,East,92,0.0,2.0,81,0.00,,---,0.00,VWS V14.01,2013-05-22 16:49:00,
2013-05-22 12:50:00,69.9,63.8,29.90,East,92,0.0,2.0,81,0.00,,---,0.00,VWS V14.01,2013-05-22 16:50:00,
2013-05-22 12:51:00,69.9,63.8,29.90,East,92,0.0,0.0,81,0.00,,---,0.00,VWS V14.01,2013-05-22 16:51:00,
2013-05-22 12:52:00,69.9,63.8,29.90,East,92,0.0,0.0,81,0.00,,---,0.00,VWS V14.01,2013-05-22 16:52:00,
2013-05-22 12:53:00,69.9,63.8,29.90,East,92,0.0,1.0,81,0.00,,---,0.00,VWS V14.01,2013-05-22 16:53:00,
2013-05-22 12:54:00,69.9,63.8,29.90,East,92,0.0,1.0,81,0.00,,---,0.00,VWS V14.01,2013-05-22 16:54:00,
2013-05-22 12:55:00,70.1,64.0,29.90,East,92,1.0,1.0,81,0.00,,---,0.00,VWS V14.01,2013-05-22 16:55:00,
2013-05-22 12:56:00,70.1,64.0,29.90,East,92,0.0,2.0,81,0.00,,---,0.00,VWS V14.01,2013-05-22 16:56:00,
2013-05-22 12:57:00,70.1,64.0,29.90,East,92,0.0,2.0,81,0.00,,---,0.00,VWS V14.01,2013-05-22 16:57:00,
2013-05-22 12:58:00,70.3,64.2,29.90,East,92,0.0,2.0,81,0.00,,---,0.00,VWS V14.01,2013-05-22 16:58:00,
2013-05-22 12:59:00,70.4,64.7,29.90,East,92,0.0,2.0,82,0.00,,---,0.00,VWS V14.01,2013-05-22 16:59:00,
2013-05-22 13:00:00,70.4,64.3,29.90,East,92,0.0,2.0,81,0.00,,---,0.00,VWS V14.01,2013-05-22 17:00:00,
2013-05-22 13:01:00,70.4,64.3,29.90,East,92,0.0,0.0,81,0.00,,---,0.00,VWS V14.01,2013-05-22 17:01:00,
2013-05-22 13:02:00,70.4,64.3,29.90,East,92,0.0,1.0,81,0.00,,---,0.00,VWS V14.01,2013-05-22 17:02:00,
2013-05-22 13:03:00,70.6,64.5,29.90,East,92,0.0,1.0,81,0.00,,---,0.00,VWS V14.01,2013-05-22 17:03:00,
2013-05-22 13:04:00,70.6,64.5,29.90,East,92,0.0,1.0,81,0.00,,---,0.00,VWS V14.01,2013-05-22 17:04:00,
2013-05-22 13:05:00,70.6,64.5,29.90,East,93,4.0,5.0,81,0.00,,---,0.00,VWS V14.01,2013-05-22 17:05:00,
2013-05-22 13:06:00,70.8,64.7,29.90,East,93,0.0,5.0,81,0.00,,---,0.00,VWS V14.01,2013-05-22 17:06:00,
2013-05-22 13:07:00,70.8,64.7,29.90,East,93,1.0,5.0,81,0.00,,---,0.00,VWS V14.01,2013-05-22 17:07:00,
2013-05-22 13:08:00,70.9,64.8,29.90,East,93,0.0,5.0,81,0.00,,---,0.00,VWS V14.01,2013-05-22 17:08:00,
2013-05-22 13:09:00,70.9,64.8,29.90,East,93,0.0,5.0,81,0.00,,---,0.00,VWS V14.01,2013-05-22 17:09:00,
2013-05-22 13:10:00,70.9,64.8,29.90,East,93,0.0,5.0,81,0.00,,---,0.00,VWS V14.01,2013-05-22 17:10:00,
2013-05-22 13:11:00,71.1,65.0,29.90,East,93,0.0,1.0,81,0.00,,---,0.00,VWS V14.01,2013-05-22 17:11:00,
2013-05-22 13:12:00,71.1,65.0,29.90,East,93,0.0,1.0,81,0.00,,---,0.00,VWS V14.01,2013-05-22 17:12:00,
2013-05-22 13:13:00,71.1,65.0,29.90,East,93,0.0,1.0,81,0.00,,---,0.00,VWS V14.01,2013-05-22 17:13:00,
2013-05-22 13:14:00,71.3,64.8,29.90,East,93,0.0,1.0,80,0.00,,---,0.00,VWS V14.01,2013-05-22 17:14:00,
2013-05-22 13:15:00,71.3,64.8,29.90,East,93,0.0,1.0,80,0.00,,---,0.00,VWS V14.01,2013-05-22 17:15:00,
2013-05-22 13:16:00,71.3,65.2,29.90,East,93,0.0,1.0,81,0.00,,---,0.00,VWS V14.01,2013-05-22 17:16:00,
2013-05-22 13:17:00,71.5,65.4,29.90,East,93,0.0,2.0,81,0.00,,---,0.00,VWS V14.01,2013-05-22 17:17:00,
2013-05-22 13:18:00,71.5,65.4,29.90,SE,141,1.0,5.0,81,0.00,,---,0.00,VWS V14.01,2013-05-22 17:18:00,
2013-05-22 13:19:00,71.5,65.0,29.90,SE,141,0.0,5.0,80,0.00,,---,0.00,VWS V14.01,2013-05-22 17:19:00,
2013-05-22 13:20:00,71.6,65.1,29.90,SE,141,0.0,5.0,80,0.00,,---,0.00,VWS V14.01,2013-05-22 17:20:00,
2013-05-22 13:21:00,71.6,65.1,29.90,SE,141,0.0,1.0,80,0.00,,---,0.00,VWS V14.01,2013-05-22 17:21:00,
2013-05-22 13:22:00,71.6,65.1,29.90,SE,141,0.0,1.0,80,0.00,,---,0.00,VWS V14.01,2013-05-22 17:22:00,
2013-05-22 13:23:00,71.6,65.1,29.90,SE,141,0.0,4.0,80,0.00,,---,0.00,VWS V14.01,2013-05-22 17:23:00,
2013-05-22 13:24:00,71.8,65.3,29.90,SE,141,0.0,4.0,80,0.00,,---,0.00,VWS V14.01,2013-05-22 17:24:00,
2013-05-22 13:25:00,71.8,65.3,29.90,SE,141,0.0,4.0,80,0.00,,---,0.00,VWS V14.01,2013-05-22 17:25:00,
2013-05-22 13:26:00,71.8,65.3,29.90,SE,141,2.0,4.0,80,0.00,,---,0.00,VWS V14.01,2013-05-22 17:26:00,
2013-05-22 13:27:00,71.8,65.3,29.90,SE,141,1.0,4.0,80,0.00,,---,0.00,VWS V14.01,2013-05-22 17:27:00,
2013-05-22 13:28:00,71.8,64.9,29.90,SSE,165,1.0,4.0,79,0.00,,---,0.00,VWS V14.01,2013-05-22 17:28:00,
2013-05-22 13:29:00,72.0,65.1,29.90,SSE,161,1.0,4.0,79,0.00,,---,0.00,VWS V14.01,2013-05-22 17:29:00,
2013-05-22 13:30:00,72.0,65.1,29.89,SSE,161,0.0,4.0,79,0.00,,---,0.00,VWS V14.01,2013-05-22 17:30:00,
2013-05-22 13:31:00,72.0,65.1,29.89,SSE,161,0.0,1.0,79,0.00,,---,0.00,VWS V14.01,2013-05-22 17:31:00,
2013-05-22 13:32:00,72.0,65.1,29.89,SSE,161,0.0,1.0,79,0.00,,---,0.00,VWS V14.01,2013-05-22 17:32:00,
2013-05-22 13:33:00,72.1,65.2,29.89,SSE,161,0.0,1.0,79,0.00,,---,0.00,VWS V14.01,2013-05-22 17:33:00,
2013-05-22 13:34:00,72.1,65.6,29.89,SSE,161,0.0,1.0,80,0.00,,---,0.00,VWS V14.01,2013-05-22 17:34:00,
2013-05-22 13:35:00,72.1,65.2,29.89,SSE,161,0.0,1.0,79,0.00,,---,0.00,VWS V14.01,2013-05-22 17:35:00,
2013-05-22 13:36:00,72.3,65.8,29.89,SSE,161,0.0,1.0,80,0.00,,---,0.00,VWS V14.01,2013-05-22 17:36:00,
2013-05-22 13:37:00,72.3,65.4,29.89,SSE,161,0.0,1.0,79,0.00,,---,0.00,VWS V14.01,2013-05-22 17:37:00,
2013-05-22 13:38:00,72.3,65.4,29.89,SSE,161,1.0,2.0,79,0.00,,---,0.00,VWS V14.01,2013-05-22 17:38:00,
2013-05-22 13:39:00,72.3,65.4,29.89,SSW,203,4.0,4.0,79,0.00,,---,0.00,VWS V14.01,2013-05-22 17:39:00,
2013-05-22 13:40:00,72.3,65.4,29.89,SSW,207,0.0,5.0,79,0.00,,---,0.00,VWS V14.01,2013-05-22 17:40:00,
2013-05-22 13:41:00,72.3,65.1,29.89,SSW,206,0.0,1.0,78,0.00,,---,0.00,VWS V14.01,2013-05-22 17:41:00,
2013-05-22 13:42:00,72.3,65.4,29.89,ESE,115,1.0,2.0,79,0.00,,---,0.00,VWS V14.01,2013-05-22 17:42:00,
2013-05-22 13:43:00,72.3,65.4,29.89,SSW,193,3.0,5.0,79,0.00,,---,0.00,VWS V14.01,2013-05-22 17:43:00,
2013-05-22 13:44:00,72.3,65.1,29.89,SSW,193,4.0,5.0,78,0.00,,---,0.00,VWS V14.01,2013-05-22 17:44:00,
2013-05-22 13:45:00,72.3,65.1,29.89,SSW,213,4.0,5.0,78,0.00,,---,0.00,VWS V14.01,2013-05-22 17:45:00,
2013-05-22 13:46:00,72.3,65.1,29.89,SSW,197,5.0,6.0,78,0.00,,---,0.00,VWS V14.01,2013-05-22 17:46:00,
2013-05-22 13:47:00,72.1,64.9,29.89,SSE,161,1.0,6.0,78,0.00,,---,0.00,VWS V14.01,2013-05-22 17:47:00,
2013-05-22 13:48:00,72.1,64.9,29.89,SSE,165,0.0,6.0,78,0.00,,---,0.00,VWS V14.01,2013-05-22 17:48:00,
2013-05-22 13:49:00,72.1,64.9,29.89,SSE,165,0.0,6.0,78,0.00,,---,0.00,VWS V14.01,2013-05-22 17:49:00,
2013-05-22 13:50:00,72.1,64.9,29.89,SSE,165,0.0,6.0,78,0.00,,---,0.00,VWS V14.01,2013-05-22 17:50:00,
2013-05-22 13:51:00,72.1,64.9,29.89,SSE,165,0.0,2.0,78,0.00,,---,0.00,VWS V14.01,2013-05-22 17:51:00,
2013-05-22 13:52:00,72.0,64.8,29.89,SSE,165,0.0,2.0,78,0.00,,---,0.00,VWS V14.01,2013-05-22 17:52:00,
2013-05-22 13:53:00,71.8,64.6,29.89,SSE,164,0.0,2.0,78,0.00,,---,0.00,VWS V14.01,2013-05-22 17:53:00,
2013-05-22 13:54:00,71.8,64.9,29.89,SSW,194,0.0,3.0,79,0.00,,---,0.00,VWS V14.01,2013-05-22 17:54:00,
2013-05-22 13:55:00,71.8,64.9,29.89,SSW,194,0.0,3.0,79,0.00,,---,0.00,VWS V14.01,2013-05-22 17:55:00,
2013-05-22 13:56:00,71.8,64.9,29.89,SSW,196,0.0,3.0,79,0.00,,---,0.00,VWS V14.01,2013-05-22 17:56:00,
2013-05-22 13:57:00,71.8,64.9,29.89,South,170,0.0,3.0,79,0.00,,---,0.00,VWS V14.01,2013-05-22 17:57:00,
2013-05-22 13:58:00,71.8,64.9,29.89,South,172,0.0,3.0,79,0.00,,---,0.00,VWS V14.01,2013-05-22 17:58:00,
2013-05-22 13:59:00,71.8,64.9,29.89,South,188,1.0,4.0,79,0.00,,---,0.00,VWS V14.01,2013-05-22 17:59:00,
2013-05-22 14:00:00,71.6,64.8,29.89,South,188,0.0,4.0,79,0.00,,---,0.00,VWS V14.01,2013-05-22 18:00:00,
2013-05-22 14:01:00,71.6,64.8,29.89,SSE,152,0.0,0.0,79,0.00,,---,0.00,VWS V14.01,2013-05-22 18:01:00,
2013-05-22 14:02:00,71.6,65.1,29.89,SSW,194,0.0,3.0,80,0.00,,---,0.00,VWS V14.01,2013-05-22 18:02:00,
2013-05-22 14:03:00,71.6,65.1,29.89,SSW,194,0.0,3.0,80,0.00,,---,0.00,VWS V14.01,2013-05-22 18:03:00,
2013-05-22 14:04:00,71.6,65.1,29.89,SSW,194,0.0,3.0,80,0.00,,---,0.00,VWS V14.01,2013-05-22 18:04:00,
2013-05-22 14:05:00,71.8,65.3,29.89,SSW,194,0.0,3.0,80,0.00,,---,0.00,VWS V14.01,2013-05-22 18:05:00,
2013-05-22 14:06:00,71.8,65.3,29.89,SSW,196,0.0,3.0,80,0.00,,---,0.00,VWS V14.01,2013-05-22 18:06:00,
2013-05-22 14:07:00,71.6,65.1,29.89,SSW,195,1.0,5.0,80,0.00,,---,0.00,VWS V14.01,2013-05-22 18:07:00,
2013-05-22 14:08:00,71.6,65.1,29.89,SSW,197,0.0,5.0,80,0.00,,---,0.00,VWS V14.01,2013-05-22 18:08:00,
2013-05-22 14:09:00,71.6,65.1,29.89,SSW,197,0.0,5.0,80,0.00,,---,0.00,VWS V14.01,2013-05-22 18:09:00,
2013-05-22 14:10:00,71.6,65.1,29.89,SSW,197,0.0,5.0,80,0.00,,---,0.00,VWS V14.01,2013-05-22 18:10:00,
2013-05-22 14:11:00,71.6,65.1,29.89,SSW,202,1.0,3.0,80,0.00,,---,0.00,VWS V14.01,2013-05-22 18:11:00,
2013-05-22 14:12:00,71.6,64.8,29.89,SSW,202,0.0,3.0,79,0.00,,---,0.00,VWS V14.01,2013-05-22 18:12:00,
2013-05-22 14:13:00,71.6,65.1,29.89,SSW,200,1.0,3.0,80,0.00,,---,0.00,VWS V14.01,2013-05-22 18:13:00,
2013-05-22 14:14:00,71.5,65.0,29.89,SSW,201,3.0,4.0,80,0.00,,---,0.00,VWS V14.01,2013-05-22 18:14:00,
2013-05-22 14:15:00,71.5,64.7,29.89,SSW,201,0.0,4.0,79,0.00,,---,0.00,VWS V14.01,2013-05-22 18:15:00,
2013-05-22 14:16:00,71.5,65.0,29.89,SSW,201,0.0,4.0,80,0.00,,---,0.00,VWS V14.01,2013-05-22 18:16:00,
2013-05-22 14:17:00,71.3,64.8,29.89,SSW,201,3.0,5.0,80,0.00,,---,0.00,VWS V14.01,2013-05-22 18:17:00,
2013-05-22 14:18:00,71.3,64.5,29.89,SSW,196,2.0,5.0,79,0.00,,---,0.00,VWS V14.01,2013-05-22 18:18:00,
2013-05-22 14:19:00,71.3,64.8,29.89,SSW,194,4.0,5.0,80,0.00,,---,0.00,VWS V14.01,2013-05-22 18:19:00,
2013-05-22 14:20:00,71.1,64.6,29.89,South,186,2.0,5.0,80,0.00,,---,0.00,VWS V14.01,2013-05-22 18:20:00,
2013-05-22 14:21:00,71.1,64.6,29.89,South,186,3.0,3.0,80,0.00,,---,0.00,VWS V14.01,2013-05-22 18:21:00,
2013-05-22 14:22:00,71.1,64.6,29.89,South,189,3.0,3.0,80,0.00,,---,0.00,VWS V14.01,2013-05-22 18:22:00,
2013-05-22 14:23:00,70.9,64.4,29.89,South,189,1.0,3.0,80,0.00,,---,0.00,VWS V14.01,2013-05-22 18:23:00,
2013-05-22 14:24:00,70.9,64.4,29.89,South,180,3.0,6.0,80,0.00,,---,0.00,VWS V14.01,2013-05-22 18:24:00,
2013-05-22 14:25:00,70.9,64.4,29.89,SSW,192,0.0,6.0,80,0.00,,---,0.00,VWS V14.01,2013-05-22 18:25:00,
2013-05-22 14:26:00,70.8,64.3,29.89,SSW,192,0.0,6.0,80,0.00,,---,0.00,VWS V14.01,2013-05-22 18:26:00,
2013-05-22 14:27:00,70.8,64.7,29.89,South,190,0.0,6.0,81,0.00,,---,0.00,VWS V14.01,2013-05-22 18:27:00,
2013-05-22 14:28:00,70.8,64.7,29.89,South,190,1.0,6.0,81,0.00,,---,0.00,VWS V14.01,2013-05-22 18:28:00,
2013-05-22 14:29:00,70.8,64.7,29.89,South,189,0.0,6.0,81,0.00,,---,0.00,VWS V14.01,2013-05-22 18:29:00,
2013-05-22 14:30:00,70.6,64.5,29.89,SSE,159,2.0,6.0,81,0.00,,---,0.00,VWS V14.01,2013-05-22 18:30:00,
2013-05-22 14:31:00,70.6,64.5,29.89,SW,223,4.0,4.0,81,0.00,,---,0.00,VWS V14.01,2013-05-22 18:31:00,
2013-05-22 14:32:00,70.6,64.5,29.89,SW,222,3.0,5.0,81,0.00,,---,0.00,VWS V14.01,2013-05-22 18:32:00,
2013-05-22 14:33:00,70.6,64.5,29.89,SW,222,0.0,5.0,81,0.00,,---,0.00,VWS V14.01,2013-05-22 18:33:00,
2013-05-22 14:34:00,70.4,64.3,29.89,SW,222,0.0,5.0,81,0.00,,---,0.00,VWS V14.01,2013-05-22 18:34:00,
2013-05-22 14:35:00,70.4,64.3,29.89,SW,223,0.0,5.0,81,0.00,,---,0.00,VWS V14.01,2013-05-22 18:35:00,
2013-05-22 14:36:00,70.4,64.7,29.89,SW,223,0.0,5.0,82,0.00,,---,0.00,VWS V14.01,2013-05-22 18:36:00,
2013-05-22 14:37:00,70.4,64.7,29.89,SSE,161,0.0,5.0,82,0.00,,---,0.00,VWS V14.01,2013-05-22 18:37:00,
2013-05-22 14:38:00,70.4,64.7,29.89,SSE,161,0.0,5.0,82,0.00,,---,0.00,VWS V14.01,2013-05-22 18:38:00,
2013-05-22 14:39:00,70.4,64.7,29.89,SSE,164,0.0,5.0,82,0.00,,---,0.00,VWS V14.01,2013-05-22 18:39:00,
2013-05-22 14:40:00,70.4,64.7,29.89,South,178,0.0,5.0,82,0.00,,---,0.00,VWS V14.01,2013-05-22 18:40:00,
2013-05-22 14:41:00,70.4,64.7,29.89,SSW,207,2.0,6.0,82,0.00,,---,0.00,VWS V14.01,2013-05-22 18:41:00,
2013-05-22 14:42:00,70.4,64.7,29.89,South,188,2.0,6.0,82,0.00,,---,0.00,VWS V14.01,2013-05-22 18:42:00,
2013-05-22 14:43:00,70.4,64.7,29.89,South,169,0.0,6.0,82,0.00,,---,0.00,VWS V14.01,2013-05-22 18:43:00,
2013-05-22 14:44:00,70.4,64.7,29.89,East,94,0.0,6.0,82,0.00,,---,0.00,VWS V14.01,2013-05-22 18:44:00,
2013-05-22 14:45:00,70.4,64.7,29.89,East,94,0.0,6.0,82,0.00,,---,0.00,VWS V14.01,2013-05-22 18:45:00,
2013-05-22 14:46:00,70.4,64.7,29.89,SSW,207,5.0,6.0,82,0.00,,---,0.00,VWS V14.01,2013-05-22 18:46:00,
2013-05-22 14:47:00,70.4,64.7,29.89,SSE,149,2.0,6.0,82,0.00,,---,0.00,VWS V14.01,2013-05-22 18:47:00,
2013-05-22 14:48:00,70.4,64.7,29.89,SSE,147,0.0,6.0,82,0.00,,---,0.00,VWS V14.01,2013-05-22 18:48:00,
2013-05-22 14:49:00,70.4,64.7,29.89,SSE,147,0.0,6.0,82,0.00,,---,0.00,VWS V14.01,2013-05-22 18:49:00,
2013-05-22 14:50:00,70.4,64.7,29.89,SSW,192,3.0,6.0,82,0.00,,---,0.00,VWS V14.01,2013-05-22 18:50:00,
2013-05-22 14:51:00,70.4,64.3,29.89,SSW,209,0.0,4.0,81,0.00,,---,0.00,VWS V14.01,2013-05-22 18:51:00,
2013-05-22 14:52:00,70.4,64.7,29.89,SSW,194,3.0,5.0,82,0.00,,---,0.00,VWS V14.01,2013-05-22 18:52:00,
2013-05-22 14:53:00,70.4,64.3,29.89,South,182,1.0,5.0,81,0.00,,---,0.00,VWS V14.01,2013-05-22 18:53:00,
2013-05-22 14:54:00,70.6,64.8,29.89,South,187,0.0,5.0,82,0.00,,---,0.00,VWS V14.01,2013-05-22 18:54:00,
2013-05-22 14:55:00,70.6,64.5,29.89,South,187,0.0,5.0,81,0.00,,---,0.00,VWS V14.01,2013-05-22 18:55:00,
2013-05-22 14:56:00,70.6,64.8,29.89,SE,140,0.0,5.0,82,0.00,,---,0.00,VWS V14.01,2013-05-22 18:56:00,
2013-05-22 14:57:00,70.6,64.8,29.89,South,183,0.0,5.0,82,0.00,,---,0.00,VWS V14.01,2013-05-22 18:57:00,
2013-05-22 14:58:00,70.6,64.8,29.89,SSW,207,3.0,5.0,82,0.00,,---,0.00,VWS V14.01,2013-05-22 18:58:00,
2013-05-22 14:59:00,70.6,64.8,29.89,SSW,207,0.0,5.0,82,0.00,,---,0.00,VWS V14.01,2013-05-22 18:59:00,
2013-05-22 15:00:00,70.6,64.5,29.89,SSW,205,0.0,5.0,81,0.00,,---,0.00,VWS V14.01,2013-05-22 19:00:00,
2013-05-22 15:01:00,70.6,64.5,29.89,SSW,206,0.0,3.0,81,0.00,,---,0.00,VWS V14.01,2013-05-22 19:01:00,
2013-05-22 15:02:00,70.6,64.5,29.89,SSW,205,0.0,4.0,81,0.00,,---,0.00,VWS V14.01,2013-05-22 19:02:00,
2013-05-22 15:03:00,70.6,64.5,29.89,SSW,202,4.0,6.0,81,0.00,,---,0.00,VWS V14.01,2013-05-22 19:03:00,
2013-05-22 15:04:00,70.6,64.5,29.89,SSW,202,0.0,6.0,81,0.00,,---,0.00,VWS V14.01,2013-05-22 19:04:00,
2013-05-22 15:05:00,70.6,64.5,29.89,SSW,202,2.0,6.0,81,0.00,,---,0.00,VWS V14.01,2013-05-22 19:05:00,
2013-05-22 15:06:00,70.6,64.5,29.89,SSW,200,0.0,6.0,81,0.00,,---,0.00,VWS V14.01,2013-05-22 19:06:00,
2013-05-22 15:07:00,70.4,64.3,29.89,South,171,0.0,6.0,81,0.00,,---,0.00,VWS V14.01,2013-05-22 19:07:00,
2013-05-22 15:08:00,70.4,64.7,29.89,South,180,1.0,6.0,82,0.00,,---,0.00,VWS V14.01,2013-05-22 19:08:00,
2013-05-22 15:09:00,70.4,64.7,29.89,South,180,0.0,6.0,82,0.00,,---,0.00,VWS V14.01,2013-05-22 19:09:00,
2013-05-22 15:10:00,70.6,64.8,29.89,South,178,1.0,6.0,82,0.00,,---,0.00,VWS V14.01,2013-05-22 19:10:00,
2013-05-22 15:11:00,70.6,64.8,29.89,South,178,1.0,2.0,82,0.00,,---,0.00,VWS V14.01,2013-05-22 19:11:00,
2013-05-22 15:12:00,70.6,65.2,29.89,South,175,0.0,2.0,83,0.00,,---,0.00,VWS V14.01,2013-05-22 19:12:00,
2013-05-22 15:13:00,70.6,64.8,29.89,East,101,1.0,4.0,82,0.00,,---,0.00,VWS V14.01,2013-05-22 19:13:00,
2013-05-22 15:14:00,70.6,64.8,29.89,ESE,107,0.0,5.0,82,0.00,,---,0.00,VWS V14.01,2013-05-22 19:14:00,
2013-05-22 15:15:00,70.8,65.0,29.89,ESE,107,2.0,5.0,82,0.00,,---,0.00,VWS V14.01,2013-05-22 19:15:00,
2013-05-22 15:16:00,70.8,65.0,29.89,ESE,107,2.0,5.0,82,0.00,,---,0.00,VWS V14.01,2013-05-22 19:16:00,
2013-05-22 15:17:00,70.8,64.7,29.89,ESE,121,0.0,5.0,81,0.00,,---,0.00,VWS V14.01,2013-05-22 19:17:00,
2013-05-22 15:18:00,70.8,64.7,29.89,ENE,69,3.0,5.0,81,0.00,,---,0.00,VWS V14.01,2013-05-22 19:18:00,
2013-05-22 15:19:00,70.8,65.0,29.89,ENE,71,2.0,5.0,82,0.00,,---,0.00,VWS V14.01,2013-05-22 19:19:00,
2013-05-22 15:20:00,70.8,65.0,29.89,ENE,71,0.0,5.0,82,0.00,,---,0.00,VWS V14.01,2013-05-22 19:20:00,
2013-05-22 15:21:00,70.8,65.0,29.89,ENE,71,0.0,0.0,82,0.00,,---,0.00,VWS V14.01,2013-05-22 19:21:00,
2013-05-22 15:22:00,70.8,65.0,29.89,ENE,71,1.0,1.0,82,0.00,,---,0.00,VWS V14.01,2013-05-22 19:22:00,
2013-05-22 15:23:00,70.8,65.0,29.89,ENE,71,0.0,3.0,82,0.00,,---,0.00,VWS V14.01,2013-05-22 19:23:00,
2013-05-22 15:24:00,70.8,65.0,29.89,SE,131,4.0,4.0,82,0.00,,---,0.00,VWS V14.01,2013-05-22 19:24:00,
2013-05-22 15:25:00,70.8,65.0,29.89,SE,131,0.0,5.0,82,0.00,,---,0.00,VWS V14.01,2013-05-22 19:25:00,
2013-05-22 15:26:00,70.8,65.0,29.89,SE,131,0.0,5.0,82,0.00,,---,0.00,VWS V14.01,2013-05-22 19:26:00,
2013-05-22 15:27:00,70.8,64.7,29.89,SE,131,0.0,5.0,81,0.00,,---,0.00,VWS V14.01,2013-05-22 19:27:00,
2013-05-22 15:28:00,70.8,64.7,29.89,SE,131,0.0,5.0,81,0.00,,---,0.00,VWS V14.01,2013-05-22 19:28:00,
2013-05-22 15:29:00,70.9,64.8,29.89,SE,131,0.0,5.0,81,0.00,,---,0.00,VWS V14.01,2013-05-22 19:29:00,
2013-05-22 15:30:00,70.9,64.8,29.89,SE,131,0.0,5.0,81,0.00,,---,0.00,VWS V14.01,2013-05-22 19:30:00,
2013-05-22 15:31:00,70.9,64.8,29.89,SE,131,0.0,0.0,81,0.00,,---,0.00,VWS V14.01,2013-05-22 19:31:00,
2013-05-22 15:32:00,70.9,64.8,29.89,SSE,167,1.0,2.0,81,0.00,,---,0.00,VWS V14.01,2013-05-22 19:32:00,
2013-05-22 15:33:00,70.9,64.8,29.89,SSE,165,0.0,2.0,81,0.00,,---,0.00,VWS V14.01,2013-05-22 19:33:00,
2013-05-22 15:34:00,70.9,64.8,29.89,SSE,165,1.0,2.0,81,0.00,,---,0.00,VWS V14.01,2013-05-22 19:34:00,
2013-05-22 15:35:00,70.9,64.8,29.89,SSE,165,0.0,2.0,81,0.00,,---,0.00,VWS V14.01,2013-05-22 19:35:00,
2013-05-22 15:36:00,70.9,64.8,29.89,SSE,165,0.0,2.0,81,0.00,,---,0.00,VWS V14.01,2013-05-22 19:36:00,
2013-05-22 15:37:00,71.1,65.0,29.89,SSE,166,0.0,2.0,81,0.00,,---,0.00,VWS V14.01,2013-05-22 19:37:00,
2013-05-22 15:38:00,71.1,65.0,29.89,SSE,166,0.0,2.0,81,0.00,,---,0.00,VWS V14.01,2013-05-22 19:38:00,
2013-05-22 15:39:00,71.1,65.0,29.89,SSE,166,0.0,2.0,81,0.00,,---,0.00,VWS V14.01,2013-05-22 19:39:00,
2013-05-22 15:40:00,71.3,65.2,29.89,SSE,166,0.0,2.0,81,0.00,,---,0.00,VWS V14.01,2013-05-22 19:40:00,
2013-05-22 15:41:00,71.3,65.2,29.89,SSE,166,0.0,0.0,81,0.00,,---,0.00,VWS V14.01,2013-05-22 19:41:00,
2013-05-22 15:42:00,71.3,65.2,29.89,SSE,166,0.0,1.0,81,0.00,,---,0.00,VWS V14.01,2013-05-22 19:42:00,
2013-05-22 15:43:00,71.5,65.4,29.89,SSE,166,0.0,1.0,81,0.00,,---,0.00,VWS V14.01,2013-05-22 19:43:00,
2013-05-22 15:44:00,71.5,65.4,29.89,SSW,196,2.0,4.0,81,0.00,,---,0.00,VWS V14.01,2013-05-22 19:44:00,
2013-05-22 15:45:00,71.5,65.4,29.88,SSW,196,0.0,4.0,81,0.00,,---,0.00,VWS V14.01,2013-05-22 19:45:00,
2013-05-22 15:46:00,71.6,65.5,29.88,SSW,198,0.0,4.0,81,0.00,,---,0.00,VWS V14.01,2013-05-22 19:46:00,
2013-05-22 15:47:00,71.6,65.5,29.88,SSW,198,2.0,4.0,81,0.00,,---,0.00,VWS V14.01,2013-05-22 19:47:00,
2013-05-22 15:48:00,71.6,65.5,29.88,SSW,197,2.0,4.0,81,0.00,,---,0.00,VWS V14.01,2013-05-22 19:48:00,
2013-05-22 15:49:00,71.6,65.1,29.88,SSW,193,0.0,4.0,80,0.00,,---,0.00,VWS V14.01,2013-05-22 19:49:00,
2013-05-22 15:50:00,71.6,65.1,29.88,SSW,193,0.0,4.0,80,0.00,,---,0.00,VWS V14.01,2013-05-22 19:50:00,
2013-05-22 15:51:00,71.6,65.1,29.88,SSE,155,0.0,1.0,80,0.00,,---,0.00,VWS V14.01,2013-05-22 19:51:00,
2013-05-22 15:52:00,71.6,65.1,29.88,SSE,158,0.0,1.0,80,0.00,,---,0.00,VWS V14.01,2013-05-22 19:52:00,
2013-05-22 15:53:00,71.6,65.1,29.88,SSE,164,1.0,2.0,80,0.00,,---,0.00,VWS V14.01,2013-05-22 19:53:00,
2013-05-22 15:54:00,71.6,65.1,29.88,South,171,0.0,4.0,80,0.00,,---,0.00,VWS V14.01,2013-05-22 19:54:00,
2013-05-22 15:55:00,71.6,65.1,29.88,SE,141,1.0,4.0,80,0.00,,---,0.00,VWS V14.01,2013-05-22 19:55:00,
2013-05-22 15:56:00,71.6,65.1,29.88,SE,141,0.0,4.0,80,0.00,,---,0.00,VWS V14.01,2013-05-22 19:56:00,
2013-05-22 15:57:00,71.6,65.1,29.88,SSW,202,2.0,5.0,80,0.00,,---,0.00,VWS V14.01,2013-05-22 19:57:00,
2013-05-22 15:58:00,71.6,65.1,29.88,SSW,203,0.0,5.0,80,0.00,,---,0.00,VWS V14.01,2013-05-22 19:58:00,
2013-05-22 15:59:00,71.6,65.1,29.88,SSW,200,2.0,6.0,80,0.00,,---,0.00,VWS V14.01,2013-05-22 19:59:00,
2013-05-22 16:00:00,71.5,64.7,29.88,SSW,202,2.0,6.0,79,0.00,,---,0.00,VWS V14.01,2013-05-22 20:00:00,
2013-05-22 16:01:00,71.5,64.7,29.88,SSW,192,4.0,6.0,79,0.00,,---,0.00,VWS V14.01,2013-05-22 20:01:00,
2013-05-22 16:02:00,71.3,64.5,29.88,South,186,0.0,6.0,79,0.00,,---,0.00,VWS V14.01,2013-05-22 20:02:00,
2013-05-22 16:03:00,71.3,64.5,29.88,SSW,197,0.0,6.0,79,0.00,,---,0.00,VWS V14.01,2013-05-22 20:03:00,
2013-05-22 16:04:00,71.1,64.3,29.88,SSE,150,4.0,6.0,79,0.00,,---,0.00,VWS V14.01,2013-05-22 20:04:00,
2013-05-22 16:05:00,71.1,64.6,29.88,SSE,150,0.0,6.0,80,0.00,,---,0.00,VWS V14.01,2013-05-22 20:05:00,
2013-05-22 16:06:00,70.9,64.4,29.88,SSE,150,0.0,6.0,80,0.00,,---,0.00,VWS V14.01,2013-05-22 20:06:00,
2013-05-22 16:07:00,70.8,64.3,29.88,SSW,196,3.0,6.0,80,0.00,,---,0.00,VWS V14.01,2013-05-22 20:07:00,
2013-05-22 16:08:00,70.8,64.3,29.88,South,178,1.0,6.0,80,0.00,,---,0.00,VWS V14.01,2013-05-22 20:08:00,
2013-05-22 16:09:00,70.6,64.1,29.88,SE,140,0.0,6.0,80,0.00,,---,0.00,VWS V14.01,2013-05-22 20:09:00,
2013-05-22 16:10:00,70.4,63.9,29.88,SE,140,1.0,6.0,80,0.00,,---,0.00,VWS V14.01,2013-05-22 20:10:00,
2013-05-22 16:11:00,70.4,63.9,29.88,SE,142,5.0,5.0,80,0.00,,---,0.00,VWS V14.01,2013-05-22 20:11:00,
2013-05-22 16:12:00,70.3,64.2,29.88,SE,141,5.0,5.0,81,0.00,,---,0.00,VWS V14.01,2013-05-22 20:12:00,
2013-05-22 16:13:00,70.1,64.0,29.88,SE,141,0.0,5.0,81,0.00,,---,0.00,VWS V14.01,2013-05-22 20:13:00,
2013-05-22 16:14:00,70.1,64.0,29.88,SE,141,1.0,5.0,81,0.00,,---,0.00,VWS V14.01,2013-05-22 20:14:00,
2013-05-22 16:15:00,69.9,63.8,29.88,South,173,1.0,5.0,81,0.00,,---,0.00,VWS V14.01,2013-05-22 20:15:00,
2013-05-22 16:16:00,69.9,63.8,29.88,SSE,163,0.0,5.0,81,0.00,,---,0.00,VWS V14.01,2013-05-22 20:16:00,
2013-05-22 16:17:00,69.9,63.8,29.88,SSE,161,0.0,5.0,81,0.00,,---,0.00,VWS V14.01,2013-05-22 20:17:00,
2013-05-22 16:18:00,69.8,63.7,29.88,SE,142,1.0,8.0,81,0.00,,---,0.00,VWS V14.01,2013-05-22 20:18:00,
2013-05-22 16:19:00,69.8,63.7,29.88,SSW,192,4.0,8.0,81,0.00,,---,0.00,VWS V14.01,2013-05-22 20:19:00,
2013-05-22 16:20:00,69.6,63.9,29.88,SSW,192,4.0,8.0,82,0.00,,---,0.00,VWS V14.01,2013-05-22 20:20:00,
2013-05-22 16:21:00,69.6,63.9,29.88,SE,146,4.0,5.0,82,0.00,,---,0.00,VWS V14.01,2013-05-22 20:21:00,
2013-05-22 16:22:00,69.4,63.7,29.88,SSW,200,7.0,9.0,82,0.00,,---,0.00,VWS V14.01,2013-05-22 20:22:00,
2013-05-22 16:23:00,69.4,63.7,29.88,SSW,204,0.0,9.0,82,0.00,,---,0.00,VWS V14.01,2013-05-22 20:23:00,
2013-05-22 16:24:00,69.4,63.7,29.88,SSW,201,4.0,9.0,82,0.00,,---,0.00,VWS V14.01,2013-05-22 20:24:00,
2013-05-22 16:25:00,69.3,63.6,29.88,South,191,0.0,9.0,82,0.00,,---,0.00,VWS V14.01,2013-05-22 20:25:00,
2013-05-22 16:26:00,69.3,63.9,29.88,South,190,4.0,9.0,83,0.00,,---,0.00,VWS V14.01,2013-05-22 20:26:00,
2013-05-22 16:27:00,69.3,63.6,29.88,SE,130,4.0,9.0,82,0.00,,---,0.00,VWS V14.01,2013-05-22 20:27:00,
2013-05-22 16:28:00,69.1,63.4,29.88,SSW,200,3.0,9.0,82,0.00,,---,0.00,VWS V14.01,2013-05-22 20:28:00,
2013-05-22 16:29:00,69.1,63.7,29.88,SE,136,0.0,9.0,83,0.00,,---,0.00,VWS V14.01,2013-05-22 20:29:00,
2013-05-22 16:30:00,68.9,63.5,29.88,SE,136,1.0,9.0,83,0.00,,---,0.00,VWS V14.01,2013-05-22 20:30:00,
2013-05-22 16:31:00,68.8,63.4,29.88,SE,136,0.0,6.0,83,0.00,,---,0.00,VWS V14.01,2013-05-22 20:31:00,
2013-05-22 16:32:00,68.8,63.4,29.88,SSW,195,0.0,6.0,83,0.00,,---,0.00,VWS V14.01,2013-05-22 20:32:00,
2013-05-22 16:33:00,68.8,63.4,29.88,SSW,195,0.0,6.0,83,0.00,,---,0.00,VWS V14.01,2013-05-22 20:33:00,
2013-05-22 16:34:00,68.6,63.2,29.88,SSW,206,3.0,6.0,83,0.00,,---,0.00,VWS V14.01,2013-05-22 20:34:00,
2013-05-22 16:35:00,68.6,63.2,29.88,SSW,206,0.0,6.0,83,0.00,,---,0.00,VWS V14.01,2013-05-22 20:35:00,
2013-05-22 16:36:00,68.6,63.2,29.88,SSW,206,0.0,6.0,83,0.00,,---,0.00,VWS V14.01,2013-05-22 20:36:00,
2013-05-22 16:37:00,68.6,63.6,29.88,SSW,206,0.0,6.0,84,0.00,,---,0.00,VWS V14.01,2013-05-22 20:37:00,
2013-05-22 16:38:00,68.6,63.6,29.88,South,175,0.0,6.0,84,0.00,,---,0.00,VWS V14.01,2013-05-22 20:38:00,
2013-05-22 16:39:00,68.6,63.6,29.88,ESE,121,0.0,6.0,84,0.00,,---,0.00,VWS V14.01,2013-05-22 20:39:00,
2013-05-22 16:40:00,68.6,63.6,29.88,South,190,2.0,6.0,84,0.00,,---,0.00,VWS V14.01,2013-05-22 20:40:00,
2013-05-22 16:41:00,68.4,63.0,29.88,SSW,193,3.0,4.0,83,0.00,,---,0.00,VWS V14.01,2013-05-22 20:41:00,
2013-05-22 16:42:00,68.4,63.0,29.88,SSW,196,0.0,4.0,83,0.00,,---,0.00,VWS V14.01,2013-05-22 20:42:00,
2013-05-22 16:43:00,68.4,63.0,29.88,SSW,196,0.0,4.0,83,0.00,,---,0.00,VWS V14.01,2013-05-22 20:43:00,
2013-05-22 16:44:00,68.4,63.0,29.88,SSE,148,0.0,4.0,83,0.00,,---,0.00,VWS V14.01,2013-05-22 20:44:00,
2013-05-22 16:45:00,68.3,62.9,29.88,SE,146,0.0,4.0,83,0.00,,---,0.00,VWS V14.01,2013-05-22 20:45:00,
2013-05-22 16:46:00,68.3,62.9,29.88,SE,146,1.0,4.0,83,0.00,,---,0.00,VWS V14.01,2013-05-22 20:46:00,
2013-05-22 16:47:00,68.1,62.8,29.88,SE,146,0.0,4.0,83,0.00,,---,0.00,VWS V14.01,2013-05-22 20:47:00,
2013-05-22 16:48:00,68.1,62.8,29.88,SE,146,0.0,4.0,83,0.00,,---,0.00,VWS V14.01,2013-05-22 20:48:00,
2013-05-22 16:49:00,67.9,62.9,29.88,SE,146,0.0,4.0,84,0.00,,---,0.00,VWS V14.01,2013-05-22 20:49:00,
2013-05-22 16:50:00,67.9,62.9,29.88,SSE,147,1.0,4.0,84,0.00,,---,0.00,VWS V14.01,2013-05-22 20:50:00,
2013-05-22 16:51:00,67.8,62.8,29.88,SE,146,0.0,2.0,84,0.00,,---,0.00,VWS V14.01,2013-05-22 20:51:00,
2013-05-22 16:52:00,67.6,62.6,29.88,SE,146,0.0,2.0,84,0.00,,---,0.00,VWS V14.01,2013-05-22 20:52:00,
2013-05-22 16:53:00,67.6,62.6,29.88,SSE,147,0.0,2.0,84,0.00,,---,0.00,VWS V14.01,2013-05-22 20:53:00,
2013-05-22 16:54:00,67.4,62.4,29.88,SSE,147,0.0,2.0,84,0.00,,---,0.00,VWS V14.01,2013-05-22 20:54:00,
2013-05-22 16:55:00,67.3,62.3,29.88,East,81,0.0,2.0,84,0.00,,---,0.00,VWS V14.01,2013-05-22 20:55:00,
2013-05-22 16:56:00,67.3,62.3,29.88,ESE,121,0.0,4.0,84,0.00,,---,0.00,VWS V14.01,2013-05-22 20:56:00,
2013-05-22 16:57:00,67.1,62.1,29.88,ESE,121,0.0,4.0,84,0.00,,---,0.00,VWS V14.01,2013-05-22 20:57:00,
2013-05-22 16:58:00,67.1,62.1,29.88,ESE,121,0.0,4.0,84,0.00,,---,0.00,VWS V14.01,2013-05-22 20:58:00,
2013-05-22 16:59:00,67.1,62.5,29.88,ESE,121,0.0,4.0,85,0.00,,---,0.00,VWS V14.01,2013-05-22 20:59:00,
2013-05-22 17:00:00,66.9,62.2,29.88,ESE,121,0.0,4.0,85,0.00,,---,0.00,VWS V14.01,2013-05-22 21:00:00,
2013-05-22 17:01:00,66.9,62.2,29.88,ESE,121,0.0,0.0,85,0.00,,---,0.00,VWS V14.01,2013-05-22 21:01:00,
2013-05-22 17:02:00,66.8,62.2,29.88,ESE,121,0.0,0.0,85,0.00,,---,0.00,VWS V14.01,2013-05-22 21:02:00,
2013-05-22 17:03:00,66.8,62.2,29.88,ESE,121,0.0,0.0,85,0.00,,---,0.00,VWS V14.01,2013-05-22 21:03:00,
2013-05-22 17:04:00,66.6,62.0,29.88,ESE,121,0.0,1.0,85,0.00,,---,0.00,VWS V14.01,2013-05-22 21:04:00,
2013-05-22 17:05:00,66.4,62.1,29.88,ESE,121,0.0,1.0,86,0.00,,---,0.00,VWS V14.01,2013-05-22 21:05:00,
2013-05-22 17:06:00,66.3,62.0,29.88,ESE,121,0.0,1.0,86,0.00,,---,0.00,VWS V14.01,2013-05-22 21:06:00,
2013-05-22 17:07:00,66.1,61.8,29.88,ESE,121,0.0,1.0,86,0.00,,---,0.00,VWS V14.01,2013-05-22 21:07:00,
2013-05-22 17:08:00,66.1,61.8,29.88,ESE,121,0.0,1.0,86,0.00,,---,0.00,VWS V14.01,2013-05-22 21:08:00,
2013-05-22 17:09:00,66.0,61.7,29.88,ESE,121,0.0,1.0,86,0.00,,---,0.00,VWS V14.01,2013-05-22 21:09:00,
2013-05-22 17:10:00,65.8,61.5,29.88,ESE,121,0.0,1.0,86,0.00,,---,0.00,VWS V14.01,2013-05-22 21:10:00,
2013-05-22 17:11:00,65.8,61.8,29.88,ESE,121,0.0,1.0,87,0.00,,---,0.00,VWS V14.01,2013-05-22 21:11:00,
2013-05-22 17:12:00,65.6,61.6,29.88,ESE,121,0.0,1.0,87,0.00,,---,0.00,VWS V14.01,2013-05-22 21:12:00,
2013-05-22 17:13:00,65.6,61.6,29.88,ESE,121,2.0,4.0,87,0.00,,---,0.00,VWS V14.01,2013-05-22 21:13:00,
2013-05-22 17:14:00,65.3,61.3,29.88,ESE,122,1.0,4.0,87,0.00,,---,0.00,VWS V14.01,2013-05-22 21:14:00,
2013-05-22 17:15:00,65.2,61.2,29.87,SE,126,5.0,5.0,87,0.00,,---,0.00,VWS V14.01,2013-05-22 21:15:00,
2013-05-22 17:16:00,65.0,61.4,29.87,SE,126,1.0,5.0,88,0.00,,---,0.00,VWS V14.01,2013-05-22 21:16:00,
2013-05-22 17:17:00,65.0,61.4,29.87,SE,127,0.0,5.0,88,0.00,,---,0.00,VWS V14.01,2013-05-22 21:17:00,
2013-05-22 17:18:00,64.8,61.2,29.87,South,180,0.0,5.0,88,0.00,,---,0.00,VWS V14.01,2013-05-22 21:18:00,
2013-05-22 17:19:00,64.7,61.4,29.87,South,180,0.0,5.0,89,0.00,,---,0.00,VWS V14.01,2013-05-22 21:19:00,
2013-05-22 17:20:00,64.7,61.4,29.87,South,180,0.0,5.0,89,0.00,,---,0.00,VWS V14.01,2013-05-22 21:20:00,
2013-05-22 17:21:00,64.5,61.2,29.87,SE,145,5.0,5.0,89,0.00,,---,0.00,VWS V14.01,2013-05-22 21:21:00,
2013-05-22 17:22:00,64.5,61.2,29.87,SE,143,2.0,6.0,89,0.00,,---,0.00,VWS V14.01,2013-05-22 21:22:00,
2013-05-22 17:23:00,64.3,61.3,29.87,SE,143,0.0,6.0,90,0.00,,---,0.00,VWS V14.01,2013-05-22 21:23:00,
2013-05-22 17:24:00,64.2,60.9,29.87,SE,143,2.0,6.0,89,0.00,,---,0.00,VWS V14.01,2013-05-22 21:24:00,
2013-05-22 17:25:00,64.0,61.0,29.87,SE,140,4.0,6.0,90,0.00,,---,0.00,VWS V14.01,2013-05-22 21:25:00,
2013-05-22 17:26:00,63.9,60.9,29.87,South,184,1.0,6.0,90,0.00,,---,0.00,VWS V14.01,2013-05-22 21:26:00,
2013-05-22 17:27:00,63.7,60.7,29.87,SSW,193,0.0,6.0,90,0.00,,---,0.00,VWS V14.01,2013-05-22 21:27:00,
2013-05-22 17:28:00,63.7,60.7,29.87,SSW,192,0.0,6.0,90,0.00,,---,0.00,VWS V14.01,2013-05-22 21:28:00,
2013-05-22 17:29:00,63.5,60.8,29.87,SSW,200,0.0,6.0,91,0.00,,---,0.00,VWS V14.01,2013-05-22 21:29:00,
2013-05-22 17:30:00,63.5,60.8,29.87,SSW,198,4.0,6.0,91,0.00,,---,0.00,VWS V14.01,2013-05-22 21:30:00,
2013-05-22 17:31:00,63.5,60.8,29.87,South,171,0.0,4.0,91,0.00,,---,0.00,VWS V14.01,2013-05-22 21:31:00,
2013-05-22 17:32:00,63.4,60.7,29.87,South,170,0.0,4.0,91,0.00,,---,0.00,VWS V14.01,2013-05-22 21:32:00,
2013-05-22 17:33:00,63.4,60.7,29.87,SE,134,0.0,4.0,91,0.00,,---,0.00,VWS V14.01,2013-05-22 21:33:00,
2013-05-22 17:34:00,63.4,60.7,29.87,SE,134,0.0,4.0,91,0.00,,---,0.00,VWS V14.01,2013-05-22 21:34:00,
2013-05-22 17:35:00,63.2,60.8,29.87,SE,139,1.0,4.0,92,0.00,,---,0.00,VWS V14.01,2013-05-22 21:35:00,
2013-05-22 17:36:00,63.2,60.8,29.87,SSW,205,2.0,6.0,92,0.00,,---,0.00,VWS V14.01,2013-05-22 21:36:00,
2013-05-22 17:37:00,63.1,60.7,29.87,SSW,192,4.0,7.0,92,0.00,,---,0.00,VWS V14.01,2013-05-22 21:37:00,
2013-05-22 17:38:00,62.9,60.5,29.87,SE,136,0.0,7.0,92,0.00,,---,0.00,VWS V14.01,2013-05-22 21:38:00,
2013-05-22 17:39:00,62.9,60.5,29.87,South,188,3.0,7.0,92,0.00,,---,0.00,VWS V14.01,2013-05-22 21:39:00,
2013-05-22 17:40:00,62.7,60.3,29.87,SSW,200,2.0,7.0,92,0.00,,---,0.00,VWS V14.01,2013-05-22 21:40:00,
2013-05-22 17:41:00,62.7,60.3,29.87,SSW,200,0.0,6.0,92,0.00,,---,0.00,VWS V14.01,2013-05-22 21:41:00,
2013-05-22 17:42:00,62.7,60.3,29.87,SSW,200,0.0,6.0,92,0.00,,---,0.00,VWS V14.01,2013-05-22 21:42:00,
2013-05-22 17:43:00,62.6,60.5,29.87,SSW,200,0.0,6.0,93,0.00,,---,0.00,VWS V14.01,2013-05-22 21:43:00,
2013-05-22 17:44:00,62.6,60.5,29.87,SSW,195,5.0,6.0,93,0.00,,---,0.00,VWS V14.01,2013-05-22 21:44:00,
2013-05-22 17:45:00,62.4,60.3,29.89,SSW,199,0.0,6.0,93,0.00,,---,0.00,VWS V14.01,2013-05-22 21:45:00,
2013-05-22 17:46:00,62.4,60.3,29.89,SE,142,2.0,6.0,93,0.00,,---,0.00,VWS V14.01,2013-05-22 21:46:00,
2013-05-22 17:47:00,62.4,60.3,29.89,SE,142,0.0,6.0,93,0.00,,---,0.00,VWS V14.01,2013-05-22 21:47:00,
2013-05-22 17:48:00,62.4,60.3,29.89,South,182,3.0,6.0,93,0.00,,---,0.00,VWS V14.01,2013-05-22 21:48:00,
2013-05-22 17:49:00,62.3,60.2,29.89,SE,140,0.0,6.0,93,0.00,,---,0.00,VWS V14.01,2013-05-22 21:49:00,
2013-05-22 17:50:00,62.3,60.2,29.89,SE,136,2.0,6.0,93,0.00,,---,0.00,VWS V14.01,2013-05-22 21:50:00,
2013-05-22 17:51:00,62.3,60.6,29.89,SE,136,0.0,2.0,94,0.00,,---,0.00,VWS V14.01,2013-05-22 21:51:00,
2013-05-22 17:52:00,62.1,60.4,29.89,SE,144,0.0,2.0,94,0.00,,---,0.00,VWS V14.01,2013-05-22 21:52:00,
2013-05-22 17:53:00,62.1,60.4,29.89,SE,144,0.0,2.0,94,0.00,,---,0.00,VWS V14.01,2013-05-22 21:53:00,
2013-05-22 17:54:00,62.1,60.4,29.89,SE,144,1.0,2.0,94,0.00,,---,0.00,VWS V14.01,2013-05-22 21:54:00,
2013-05-22 17:55:00,62.1,60.4,29.89,SE,144,0.0,2.0,94,0.00,,---,0.00,VWS V14.01,2013-05-22 21:55:00,
2013-05-22 17:56:00,62.1,60.4,29.89,SE,144,1.0,4.0,94,0.00,,---,0.00,VWS V14.01,2013-05-22 21:56:00,
2013-05-22 17:57:00,62.0,60.3,29.89,SE,144,0.0,4.0,94,0.00,,---,0.00,VWS V14.01,2013-05-22 21:57:00,
2013-05-22 17:58:00,62.0,60.3,29.89,SE,144,0.0,4.0,94,0.00,,---,0.00,VWS V14.01,2013-05-22 21:58:00,
2013-05-22 17:59:00,62.0,60.6,29.89,SE,144,1.0,4.0,95,0.00,,---,0.00,VWS V14.01,2013-05-22 21:59:00,
2013-05-22 18:00:00,62.0,60.6,29.89,SSW,196,5.0,5.0,95,0.00,,---,0.00,VWS V14.01,2013-05-22 22:00:00,
2013-05-22 18:01:00,62.0,60.6,29.89,SSW,209,3.0,6.0,95,0.00,,---,0.00,VWS V14.01,2013-05-22 22:01:00,
2013-05-22 18:02:00,62.0,60.6,29.89,SSW,200,4.0,6.0,95,0.00,,---,0.00,VWS V14.01,2013-05-22 22:02:00,
2013-05-22 18:03:00,62.0,60.6,29.89,SSW,203,0.0,6.0,95,0.00,,---,0.00,VWS V14.01,2013-05-22 22:03:00,
2013-05-22 18:04:00,62.0,60.6,29.89,SSW,207,2.0,6.0,95,0.00,,---,0.00,VWS V14.01,2013-05-22 22:04:00,
2013-05-22 18:05:00,62.0,60.6,29.89,SSW,207,0.0,6.0,95,0.00,,---,0.00,VWS V14.01,2013-05-22 22:05:00,
2013-05-22 18:06:00,62.0,60.6,29.89,South,169,2.0,6.0,95,0.00,,---,0.00,VWS V14.01,2013-05-22 22:06:00,
2013-05-22 18:07:00,62.0,60.6,29.89,South,179,1.0,6.0,95,0.00,,---,0.00,VWS V14.01,2013-05-22 22:07:00,
2013-05-22 18:08:00,62.0,60.6,29.89,SSW,198,2.0,6.0,95,0.00,,---,0.00,VWS V14.01,2013-05-22 22:08:00,
2013-05-22 18:09:00,62.0,60.6,29.89,SSW,198,0.0,6.0,95,0.00,,---,0.00,VWS V14.01,2013-05-22 22:09:00,
2013-05-22 18:10:00,62.0,60.6,29.89,SSW,197,3.0,6.0,95,0.00,,---,0.00,VWS V14.01,2013-05-22 22:10:00,
2013-05-22 18:11:00,62.0,60.6,29.89,SSW,194,2.0,3.0,95,0.00,,---,0.00,VWS V14.01,2013-05-22 22:11:00,
2013-05-22 18:12:00,62.0,60.6,29.89,SSW,194,3.0,6.0,95,0.00,,---,0.00,VWS V14.01,2013-05-22 22:12:00,
2013-05-22 18:13:00,62.0,60.6,29.89,SSW,195,3.0,6.0,95,0.00,,---,0.00,VWS V14.01,2013-05-22 22:13:00,
2013-05-22 18:14:00,62.0,60.6,29.89,SSW,195,1.0,6.0,95,0.00,,---,0.00,VWS V14.01,2013-05-22 22:14:00,
2013-05-22 18:15:00,62.0,60.8,29.89,SSW,197,4.0,6.0,96,0.00,,---,0.00,VWS V14.01,2013-05-22 22:15:00,
2013-05-22 18:16:00,62.0,60.8,29.89,SSW,198,0.0,6.0,96,0.00,,---,0.00,VWS V14.01,2013-05-22 22:16:00,
2013-05-22 18:17:00,62.0,60.8,29.89,SSW,198,0.0,6.0,96,0.00,,---,0.00,VWS V14.01,2013-05-22 22:17:00,
2013-05-22 18:18:00,62.0,60.8,29.89,SSW,198,1.0,6.0,96,0.00,,---,0.00,VWS V14.01,2013-05-22 22:18:00,
2013-05-22 18:19:00,62.0,60.8,29.89,SSW,198,0.0,6.0,96,0.00,,---,0.00,VWS V14.01,2013-05-22 22:19:00,
2013-05-22 18:20:00,62.0,60.8,29.89,SSW,198,1.0,6.0,96,0.00,,---,0.00,VWS V14.01,2013-05-22 22:20:00,
2013-05-22 18:21:00,62.1,61.0,29.89,SSE,167,0.0,4.0,96,0.00,,---,0.00,VWS V14.01,2013-05-22 22:21:00,
2013-05-22 18:22:00,62.1,61.0,29.89,SSE,167,0.0,4.0,96,0.00,,---,0.00,VWS V14.01,2013-05-22 22:22:00,
2013-05-22 18:23:00,62.1,61.0,29.89,SE,146,2.0,5.0,96,0.00,,---,0.00,VWS V14.01,2013-05-22 22:23:00,
2013-05-22 18:24:00,62.1,61.0,29.89,SE,146,0.0,5.0,96,0.00,,---,0.00,VWS V14.01,2013-05-22 22:24:00,
2013-05-22 18:25:00,62.1,61.0,29.89,SE,146,0.0,5.0,96,0.00,,---,0.00,VWS V14.01,2013-05-22 22:25:00,
2013-05-22 18:26:00,62.1,61.0,29.89,SE,146,0.0,5.0,96,0.00,,---,0.00,VWS V14.01,2013-05-22 22:26:00,
2013-05-22 18:27:00,62.1,61.0,29.89,SE,146,0.0,5.0,96,0.00,,---,0.00,VWS V14.01,2013-05-22 22:27:00,
2013-05-22 18:28:00,62.1,61.0,29.89,SE,137,1.0,5.0,96,0.00,,---,0.00,VWS V14.01,2013-05-22 22:28:00,
2013-05-22 18:29:00,62.1,61.0,29.89,SE,137,0.0,5.0,96,0.00,,---,0.00,VWS V14.01,2013-05-22 22:29:00,
2013-05-22 18:30:00,62.1,61.0,29.89,SE,137,0.0,5.0,96,0.00,,---,0.00,VWS V14.01,2013-05-22 22:30:00,
2013-05-22 18:31:00,62.1,61.0,29.89,SE,137,0.0,0.0,96,0.00,,---,0.00,VWS V14.01,2013-05-22 22:31:00,
2013-05-22 18:32:00,62.1,61.0,29.89,SE,137,0.0,1.0,96,0.00,,---,0.00,VWS V14.01,2013-05-22 22:32:00,
2013-05-22 18:33:00,62.1,61.0,29.89,SE,137,0.0,1.0,96,0.00,,---,0.00,VWS V14.01,2013-05-22 22:33:00,
2013-05-22 18:34:00,62.1,61.0,29.89,SE,137,0.0,1.0,96,0.00,,---,0.00,VWS V14.01,2013-05-22 22:34:00,
2013-05-22 18:35:00,62.1,61.0,29.89,SE,137,0.0,1.0,96,0.00,,---,0.00,VWS V14.01,2013-05-22 22:35:00,
2013-05-22 18:36:00,62.1,61.0,29.89,SE,137,0.0,1.0,96,0.00,,---,0.00,VWS V14.01,2013-05-22 22:36:00,
2013-05-22 18:37:00,62.1,61.0,29.89,SE,137,0.0,1.0,96,0.00,,---,0.00,VWS V14.01,2013-05-22 22:37:00,
2013-05-22 18:38:00,62.1,61.0,29.89,SE,137,0.0,1.0,96,0.00,,---,0.00,VWS V14.01,2013-05-22 22:38:00,
2013-05-22 18:39:00,62.1,61.0,29.89,SE,137,0.0,1.0,96,0.00,,---,0.00,VWS V14.01,2013-05-22 22:39:00,
2013-05-22 18:40:00,62.1,61.0,29.89,SE,137,0.0,1.0,96,0.00,,---,0.00,VWS V14.01,2013-05-22 22:40:00,
2013-05-22 18:41:00,62.3,61.2,29.89,SE,137,0.0,0.0,96,0.00,,---,0.00,VWS V14.01,2013-05-22 22:41:00,
2013-05-22 18:42:00,62.3,61.2,29.89,SE,137,0.0,0.0,96,0.00,,---,0.00,VWS V14.01,2013-05-22 22:42:00,
2013-05-22 18:43:00,62.3,61.2,29.89,SE,137,0.0,0.0,96,0.00,,---,0.00,VWS V14.01,2013-05-22 22:43:00,
2013-05-22 18:44:00,62.3,61.2,29.89,SE,137,1.0,2.0,96,0.00,,---,0.00,VWS V14.01,2013-05-22 22:44:00,
2013-05-22 18:45:00,62.3,61.2,29.90,SE,137,0.0,2.0,96,0.00,,---,0.00,VWS V14.01,2013-05-22 22:45:00,
2013-05-22 18:46:00,62.3,61.2,29.90,SE,137,0.0,2.0,96,0.00,,---,0.00,VWS V14.01,2013-05-22 22:46:00,
2013-05-22 18:47:00,62.3,61.4,29.90,SE,137,0.0,2.0,97,0.00,,---,0.00,VWS V14.01,2013-05-22 22:47:00,
2013-05-22 18:48:00,62.4,61.5,29.90,SE,137,0.0,2.0,97,0.00,,---,0.00,VWS V14.01,2013-05-22 22:48:00,
2013-05-22 18:49:00,62.4,61.2,29.90,SE,137,0.0,2.0,96,0.00,,---,0.00,VWS V14.01,2013-05-22 22:49:00,
2013-05-22 18:50:00,62.4,61.2,29.90,SE,137,0.0,2.0,96,0.00,,---,0.00,VWS V14.01,2013-05-22 22:50:00,
2013-05-22 18:51:00,62.4,61.2,29.90,SE,137,0.0,1.0,96,0.00,,---,0.00,VWS V14.01,2013-05-22 22:51:00,
2013-05-22 18:52:00,62.4,61.2,29.90,SE,137,0.0,1.0,96,0.00,,---,0.00,VWS V14.01,2013-05-22 22:52:00,
2013-05-22 18:53:00,62.4,61.2,29.90,SE,137,0.0,1.0,96,0.00,,---,0.00,VWS V14.01,2013-05-22 22:53:00,
2013-05-22 18:54:00,62.4,61.2,29.90,SE,137,0.0,1.0,96,0.00,,---,0.00,VWS V14.01,2013-05-22 22:54:00,
2013-05-22 18:55:00,62.4,61.2,29.90,SE,137,0.0,1.0,96,0.00,,---,0.00,VWS V14.01,2013-05-22 22:55:00,
2013-05-22 18:56:00,62.4,61.2,29.90,SE,137,0.0,1.0,96,0.00,,---,0.00,VWS V14.01,2013-05-22 22:56:00,
2013-05-22 18:57:00,62.4,61.2,29.90,SE,137,0.0,1.0,96,0.00,,---,0.00,VWS V14.01,2013-05-22 22:57:00,
2013-05-22 18:58:00,62.4,61.2,29.90,SE,137,0.0,1.0,96,0.00,,---,0.00,VWS V14.01,2013-05-22 22:58:00,
2013-05-22 18:59:00,62.4,61.2,29.90,SE,137,0.0,1.0,96,0.00,,---,0.00,VWS V14.01,2013-05-22 22:59:00,
2013-05-22 19:00:00,62.3,61.2,29.90,SE,137,0.0,1.0,96,0.00,,---,0.00,VWS V14.01,2013-05-22 23:00:00,
2013-05-22 19:01:00,62.4,61.2,29.90,SE,137,0.0,0.0,96,0.00,,---,0.00,VWS V14.01,2013-05-22 23:01:00,
2013-05-22 19:02:00,62.4,61.2,29.90,SE,137,0.0,0.0,96,0.00,,---,0.00,VWS V14.01,2013-05-22 23:02:00,
2013-05-22 19:03:00,62.4,61.2,29.90,SE,137,0.0,1.0,96,0.00,,---,0.00,VWS V14.01,2013-05-22 23:03:00,
2013-05-22 19:04:00,62.4,61.2,29.90,SE,137,0.0,1.0,96,0.00,,---,0.00,VWS V14.01,2013-05-22 23:04:00,
2013-05-22 19:05:00,62.4,61.2,29.90,SE,137,0.0,1.0,96,0.00,,---,0.00,VWS V14.01,2013-05-22 23:05:00,
2013-05-22 19:06:00,62.4,61.2,29.90,SE,137,0.0,1.0,96,0.00,,---,0.00,VWS V14.01,2013-05-22 23:06:00,
2013-05-22 19:07:00,62.4,61.2,29.90,SE,137,0.0,1.0,96,0.00,,---,0.00,VWS V14.01,2013-05-22 23:07:00,
2013-05-22 19:08:00,62.4,61.2,29.90,SE,137,0.0,1.0,96,0.00,,---,0.00,VWS V14.01,2013-05-22 23:08:00,
2013-05-22 19:09:00,62.4,61.2,29.90,SE,137,0.0,1.0,96,0.00,,---,0.00,VWS V14.01,2013-05-22 23:09:00,
2013-05-22 19:10:00,62.4,61.5,29.90,SE,137,0.0,1.0,97,0.00,,---,0.00,VWS V14.01,2013-05-22 23:10:00,
2013-05-22 19:11:00,62.4,61.2,29.90,SE,137,0.0,0.0,96,0.00,,---,0.00,VWS V14.01,2013-05-22 23:11:00,
2013-05-22 19:12:00,62.4,61.5,29.90,SE,137,0.0,0.0,97,0.00,,---,0.00,VWS V14.01,2013-05-22 23:12:00,
2013-05-22 19:13:00,62.4,61.5,29.90,SE,137,0.0,0.0,97,0.00,,---,0.00,VWS V14.01,2013-05-22 23:13:00,
2013-05-22 19:14:00,62.4,61.5,29.90,SE,137,0.0,2.0,97,0.00,,---,0.00,VWS V14.01,2013-05-22 23:14:00,
2013-05-22 19:15:00,62.4,61.5,29.90,SE,137,0.0,2.0,97,0.00,,---,0.00,VWS V14.01,2013-05-22 23:15:00,
2013-05-22 19:16:00,62.4,61.5,29.90,SE,137,0.0,2.0,97,0.00,,---,0.00,VWS V14.01,2013-05-22 23:16:00,
2013-05-22 19:17:00,62.4,61.5,29.90,SE,137,0.0,2.0,97,0.00,,---,0.00,VWS V14.01,2013-05-22 23:17:00,
2013-05-22 19:18:00,62.4,61.5,29.90,SE,137,0.0,2.0,97,0.00,,---,0.00,VWS V14.01,2013-05-22 23:18:00,
2013-05-22 19:19:00,62.4,61.5,29.90,SE,137,0.0,2.0,97,0.00,,---,0.00,VWS V14.01,2013-05-22 23:19:00,
2013-05-22 19:20:00,62.4,61.5,29.90,SE,137,0.0,2.0,97,0.00,,---,0.00,VWS V14.01,2013-05-22 23:20:00,
2013-05-22 19:21:00,62.4,61.5,29.90,SE,137,0.0,1.0,97,0.00,,---,0.00,VWS V14.01,2013-05-22 23:21:00,
2013-05-22 19:22:00,62.4,61.5,29.90,SE,137,0.0,1.0,97,0.00,,---,0.00,VWS V14.01,2013-05-22 23:22:00,
2013-05-22 19:23:00,62.4,61.5,29.90,SE,137,0.0,1.0,97,0.00,,---,0.00,VWS V14.01,2013-05-22 23:23:00,
2013-05-22 19:24:00,62.4,61.5,29.90,SE,137,0.0,1.0,97,0.00,,---,0.00,VWS V14.01,2013-05-22 23:24:00,
2013-05-22 19:25:00,62.4,61.5,29.90,SE,137,0.0,1.0,97,0.00,,---,0.00,VWS V14.01,2013-05-22 23:25:00,
2013-05-22 19:26:00,62.6,61.7,29.90,SE,137,0.0,1.0,97,0.00,,---,0.00,VWS V14.01,2013-05-22 23:26:00,
2013-05-22 19:27:00,62.6,61.7,29.90,SE,137,0.0,1.0,97,0.00,,---,0.00,VWS V14.01,2013-05-22 23:27:00,
2013-05-22 19:28:00,62.6,61.7,29.90,SE,137,0.0,1.0,97,0.00,,---,0.00,VWS V14.01,2013-05-22 23:28:00,
2013-05-22 19:29:00,62.6,61.7,29.90,SE,137,0.0,1.0,97,0.00,,---,0.00,VWS V14.01,2013-05-22 23:29:00,
2013-05-22 19:30:00,62.6,61.7,29.90,SE,137,0.0,1.0,97,0.00,,---,0.00,VWS V14.01,2013-05-22 23:30:00,
2013-05-22 19:31:00,62.6,61.7,29.90,SE,137,0.0,1.0,97,0.00,,---,0.00,VWS V14.01,2013-05-22 23:31:00,
2013-05-22 19:32:00,62.6,61.7,29.90,SE,137,0.0,1.0,97,0.00,,---,0.00,VWS V14.01,2013-05-22 23:32:00,
2013-05-22 19:33:00,62.6,61.7,29.90,SE,137,0.0,1.0,97,0.00,,---,0.00,VWS V14.01,2013-05-22 23:33:00,
2013-05-22 19:34:00,62.6,61.7,29.90,SE,137,0.0,1.0,97,0.00,,---,0.00,VWS V14.01,2013-05-22 23:34:00,
2013-05-22 19:35:00,62.6,61.7,29.90,SE,137,0.0,1.0,97,0.00,,---,0.00,VWS V14.01,2013-05-22 23:35:00,
2013-05-22 19:36:00,62.4,61.5,29.90,SE,137,0.0,1.0,97,0.00,,---,0.00,VWS V14.01,2013-05-22 23:36:00,
2013-05-22 19:37:00,62.4,61.5,29.90,SE,137,0.0,1.0,97,0.00,,---,0.00,VWS V14.01,2013-05-22 23:37:00,
2013-05-22 19:38:00,62.4,61.5,29.90,SE,137,0.0,1.0,97,0.00,,---,0.00,VWS V14.01,2013-05-22 23:38:00,
2013-05-22 19:39:00,62.4,61.5,29.90,SE,137,1.0,2.0,97,0.00,,---,0.00,VWS V14.01,2013-05-22 23:39:00,
2013-05-22 19:40:00,62.4,61.5,29.90,SE,137,0.0,2.0,97,0.00,,---,0.00,VWS V14.01,2013-05-22 23:40:00,
2013-05-22 19:41:00,62.4,61.5,29.90,SE,137,0.0,0.0,97,0.00,,---,0.00,VWS V14.01,2013-05-22 23:41:00,
2013-05-22 19:42:00,62.4,61.5,29.90,SE,137,0.0,0.0,97,0.00,,---,0.00,VWS V14.01,2013-05-22 23:42:00,
2013-05-22 19:43:00,62.3,61.4,29.90,SE,136,0.0,4.0,97,0.00,,---,0.00,VWS V14.01,2013-05-22 23:43:00,
2013-05-22 19:44:00,62.3,61.4,29.90,SE,136,0.0,4.0,97,0.00,,---,0.00,VWS V14.01,2013-05-22 23:44:00,
2013-05-22 19:45:00,62.3,61.4,29.90,SE,136,0.0,4.0,97,0.00,,---,0.00,VWS V14.01,2013-05-22 23:45:00,
2013-05-22 19:46:00,62.1,61.2,29.90,SE,134,1.0,4.0,97,0.00,,---,0.00,VWS V14.01,2013-05-22 23:46:00,
2013-05-22 19:47:00,62.1,61.2,29.90,SE,134,0.0,4.0,97,0.00,,---,0.00,VWS V14.01,2013-05-22 23:47:00,
2013-05-22 19:48:00,62.0,61.4,29.90,SE,134,0.0,4.0,98,0.00,,---,0.00,VWS V14.01,2013-05-22 23:48:00,
2013-05-22 19:49:00,62.0,61.4,29.90,SE,134,0.0,4.0,98,0.00,,---,0.00,VWS V14.01,2013-05-22 23:49:00,
2013-05-22 19:50:00,62.0,61.4,29.90,SE,134,0.0,4.0,98,0.00,,---,0.00,VWS V14.01,2013-05-22 23:50:00,
2013-05-22 19:51:00,62.0,61.4,29.90,SE,134,0.0,0.0,98,0.00,,---,0.00,VWS V14.01,2013-05-22 23:51:00,
2013-05-22 19:52:00,62.0,61.4,29.90,SE,134,0.0,1.0,98,0.00,,---,0.00,VWS V14.01,2013-05-22 23:52:00,
2013-05-22 19:53:00,61.8,61.2,29.90,SE,134,0.0,1.0,98,0.00,,---,0.00,VWS V14.01,2013-05-22 23:53:00,
2013-05-22 19:54:00,61.8,61.2,29.90,SE,136,4.0,4.0,98,0.00,,---,0.00,VWS V14.01,2013-05-22 23:54:00,
2013-05-22 19:55:00,61.8,61.2,29.90,SE,136,0.0,4.0,98,0.00,,---,0.00,VWS V14.01,2013-05-22 23:55:00,
2013-05-22 19:56:00,61.8,61.2,29.90,SE,136,0.0,4.0,98,0.00,,---,0.00,VWS V14.01,2013-05-22 23:56:00,
2013-05-22 19:57:00,61.8,61.2,29.90,SE,136,0.0,4.0,98,0.00,,---,0.00,VWS V14.01,2013-05-22 23:57:00,
2013-05-22 19:58:00,61.8,61.2,29.90,SE,136,0.0,4.0,98,0.00,,---,0.00,VWS V14.01,2013-05-22 23:58:00,
2013-05-22 19:59:00,61.8,61.2,29.90,SE,136,0.0,4.0,98,0.00,,---,0.00,VWS V14.01,2013-05-22 23:59:00,
2013-05-22 20:00:00,61.8,61.2,29.91,SE,136,0.0,4.0,98,0.00,,---,0.00,VWS V14.01,2013-05-23 00:00:00,
2013-05-22 20:01:00,61.8,61.2,29.91,SE,136,0.0,0.0,98,0.00,,---,0.00,VWS V14.01,2013-05-23 00:01:00,
2013-05-22 20:02:00,61.8,61.2,29.91,SE,136,0.0,0.0,98,0.00,,---,0.00,VWS V14.01,2013-05-23 00:02:00,
2013-05-22 20:03:00,61.8,61.2,29.91,SE,136,0.0,0.0,98,0.00,,---,0.00,VWS V14.01,2013-05-23 00:03:00,
2013-05-22 20:04:00,61.8,61.2,29.91,SE,136,0.0,1.0,98,0.00,,---,0.00,VWS V14.01,2013-05-23 00:04:00,
2013-05-22 20:05:00,61.8,61.2,29.91,SE,136,0.0,1.0,98,0.00,,---,0.00,VWS V14.01,2013-05-23 00:05:00,
2013-05-22 20:06:00,61.8,61.2,29.91,SE,136,0.0,1.0,98,0.00,,---,0.00,VWS V14.01,2013-05-23 00:06:00,
2013-05-22 20:07:00,61.6,61.0,29.91,SE,136,0.0,1.0,98,0.00,,---,0.00,VWS V14.01,2013-05-23 00:07:00,
2013-05-22 20:08:00,61.6,61.0,29.91,SE,136,0.0,1.0,98,0.00,,---,0.00,VWS V14.01,2013-05-23 00:08:00,
2013-05-22 20:09:00,61.6,61.0,29.91,SE,136,0.0,1.0,98,0.00,,---,0.00,VWS V14.01,2013-05-23 00:09:00,
2013-05-22 20:10:00,61.6,61.0,29.91,SE,136,0.0,1.0,98,0.00,,---,0.00,VWS V14.01,2013-05-23 00:10:00,
2013-05-22 20:11:00,61.6,61.0,29.91,SE,136,0.0,0.0,98,0.00,,---,0.00,VWS V14.01,2013-05-23 00:11:00,
2013-05-22 20:12:00,61.6,61.3,29.91,SE,136,0.0,1.0,99,0.00,,---,0.00,VWS V14.01,2013-05-23 00:12:00,
2013-05-22 20:13:00,61.6,61.0,29.91,SE,136,0.0,1.0,98,0.00,,---,0.00,VWS V14.01,2013-05-23 00:13:00,
2013-05-22 20:14:00,61.6,61.3,29.91,SE,136,0.0,1.0,99,0.00,,---,0.00,VWS V14.01,2013-05-23 00:14:00,
2013-05-22 20:15:00,61.6,61.0,29.91,SE,136,0.0,1.0,98,0.00,,---,0.00,VWS V14.01,2013-05-23 00:15:00,
2013-05-22 20:16:00,61.6,61.3,29.91,SE,136,0.0,1.0,99,0.00,,---,0.00,VWS V14.01,2013-05-23 00:16:00,
2013-05-22 20:17:00,61.6,61.3,29.91,SE,136,0.0,1.0,99,0.00,,---,0.00,VWS V14.01,2013-05-23 00:17:00,
2013-05-22 20:18:00,61.6,61.3,29.91,SE,136,0.0,1.0,99,0.00,,---,0.00,VWS V14.01,2013-05-23 00:18:00,
2013-05-22 20:19:00,61.6,61.3,29.91,SE,136,0.0,1.0,99,0.00,,---,0.00,VWS V14.01,2013-05-23 00:19:00,
2013-05-22 20:20:00,61.6,61.3,29.91,SE,136,2.0,2.0,99,0.00,,---,0.00,VWS V14.01,2013-05-23 00:20:00,
2013-05-22 20:21:00,61.6,61.3,29.91,SE,136,0.0,2.0,99,0.00,,---,0.00,VWS V14.01,2013-05-23 00:21:00,
2013-05-22 20:22:00,61.6,61.3,29.91,SE,136,2.0,2.0,99,0.00,,---,0.00,VWS V14.01,2013-05-23 00:22:00,
2013-05-22 20:23:00,61.6,61.3,29.91,SE,136,0.0,2.0,99,0.00,,---,0.00,VWS V14.01,2013-05-23 00:23:00,
2013-05-22 20:24:00,61.6,61.3,29.91,SE,136,0.0,2.0,99,0.00,,---,0.00,VWS V14.01,2013-05-23 00:24:00,
2013-05-22 20:25:00,61.5,61.2,29.91,SE,136,0.0,2.0,99,0.00,,---,0.00,VWS V14.01,2013-05-23 00:25:00,
2013-05-22 20:26:00,61.5,61.2,29.91,SE,136,0.0,2.0,99,0.00,,---,0.00,VWS V14.01,2013-05-23 00:26:00,
2013-05-22 20:27:00,61.5,61.2,29.91,SE,136,0.0,2.0,99,0.00,,---,0.00,VWS V14.01,2013-05-23 00:27:00,
2013-05-22 20:28:00,61.5,61.2,29.91,SE,136,0.0,2.0,99,0.00,,---,0.00,VWS V14.01,2013-05-23 00:28:00,
2013-05-22 20:29:00,61.5,61.2,29.91,SE,136,0.0,2.0,99,0.00,,---,0.00,VWS V14.01,2013-05-23 00:29:00,
2013-05-22 20:30:00,61.5,61.2,29.92,SE,136,0.0,2.0,99,0.00,,---,0.00,VWS V14.01,2013-05-23 00:30:00,
2013-05-22 20:31:00,61.5,61.2,29.92,SE,136,0.0,0.0,99,0.00,,---,0.00,VWS V14.01,2013-05-23 00:31:00,
2013-05-22 20:32:00,61.5,61.2,29.92,SE,136,0.0,0.0,99,0.00,,---,0.00,VWS V14.01,2013-05-23 00:32:00,
2013-05-22 20:33:00,61.5,61.2,29.92,SE,136,0.0,0.0,99,0.00,,---,0.00,VWS V14.01,2013-05-23 00:33:00,
2013-05-22 20:34:00,61.5,61.2,29.92,SE,136,0.0,0.0,99,0.00,,---,0.00,VWS V14.01,2013-05-23 00:34:00,
2013-05-22 20:35:00,61.5,61.2,29.92,SE,136,0.0,1.0,99,0.00,,---,0.00,VWS V14.01,2013-05-23 00:35:00,
2013-05-22 20:36:00,61.5,61.2,29.92,SE,136,0.0,1.0,99,0.00,,---,0.00,VWS V14.01,2013-05-23 00:36:00,
2013-05-22 20:37:00,61.5,61.2,29.92,SE,136,2.0,4.0,99,0.00,,---,0.00,VWS V14.01,2013-05-23 00:37:00,
2013-05-22 20:38:00,61.5,61.2,29.92,SE,136,0.0,4.0,99,0.00,,---,0.00,VWS V14.01,2013-05-23 00:38:00,
2013-05-22 20:39:00,61.5,61.2,29.92,SE,136,0.0,4.0,99,0.00,,---,0.00,VWS V14.01,2013-05-23 00:39:00,
2013-05-22 20:40:00,61.5,61.2,29.92,SE,136,0.0,4.0,99,0.00,,---,0.00,VWS V14.01,2013-05-23 00:40:00,
2013-05-22 20:41:00,61.5,61.2,29.92,SE,136,2.0,4.0,99,0.00,,---,0.00,VWS V14.01,2013-05-23 00:41:00,
2013-05-22 20:42:00,61.5,61.2,29.92,SE,136,0.0,4.0,99,0.00,,---,0.00,VWS V14.01,2013-05-23 00:42:00,
2013-05-22 20:43:00,61.5,61.2,29.92,SE,136,0.0,4.0,99,0.00,,---,0.00,VWS V14.01,2013-05-23 00:43:00,
2013-05-22 20:44:00,61.3,61.0,29.92,SE,136,0.0,4.0,99,0.00,,---,0.00,VWS V14.01,2013-05-23 00:44:00,
2013-05-22 20:45:00,61.3,61.0,29.92,SE,136,0.0,4.0,99,0.00,,---,0.00,VWS V14.01,2013-05-23 00:45:00,
2013-05-22 20:46:00,61.3,61.0,29.92,SE,136,0.0,4.0,99,0.00,,---,0.00,VWS V14.01,2013-05-23 00:46:00,
2013-05-22 20:47:00,61.3,61.0,29.92,SE,136,0.0,4.0,99,0.00,,---,0.00,VWS V14.01,2013-05-23 00:47:00,
2013-05-22 20:48:00,61.3,61.0,29.92,SE,136,0.0,4.0,99,0.00,,---,0.00,VWS V14.01,2013-05-23 00:48:00,
2013-05-22 20:49:00,61.3,61.0,29.92,SE,136,0.0,4.0,99,0.00,,---,0.00,VWS V14.01,2013-05-23 00:49:00,
2013-05-22 20:50:00,61.3,61.0,29.92,SE,136,4.0,4.0,99,0.00,,---,0.00,VWS V14.01,2013-05-23 00:50:00,
2013-05-22 20:51:00,61.3,61.0,29.92,SE,136,1.0,4.0,99,0.00,,---,0.00,VWS V14.01,2013-05-23 00:51:00,
2013-05-22 20:52:00,61.3,61.0,29.92,SE,136,0.0,4.0,99,0.00,,---,0.00,VWS V14.01,2013-05-23 00:52:00,
2013-05-22 20:53:00,61.3,61.0,29.92,SSW,203,4.0,5.0,99,0.00,,---,0.00,VWS V14.01,2013-05-23 00:53:00,
2013-05-22 20:54:00,61.3,61.0,29.92,SSW,195,0.0,5.0,99,0.00,,---,0.00,VWS V14.01,2013-05-23 00:54:00,
2013-05-22 20:55:00,61.3,61.0,29.92,SSW,195,0.0,5.0,99,0.00,,---,0.00,VWS V14.01,2013-05-23 00:55:00,
2013-05-22 20:56:00,61.3,61.0,29.92,SSW,195,2.0,5.0,99,0.00,,---,0.00,VWS V14.01,2013-05-23 00:56:00,
2013-05-22 20:57:00,61.3,61.0,29.92,SSW,195,0.0,5.0,99,0.00,,---,0.00,VWS V14.01,2013-05-23 00:57:00,
2013-05-22 20:58:00,61.3,61.0,29.92,SSW,195,0.0,5.0,99,0.00,,---,0.00,VWS V14.01,2013-05-23 00:58:00,
2013-05-22 20:59:00,61.3,61.0,29.92,SSW,195,0.0,5.0,99,0.00,,---,0.00,VWS V14.01,2013-05-23 00:59:00,
2013-05-22 21:00:00,61.3,61.0,29.92,SSW,195,0.0,5.0,99,0.00,,---,0.00,VWS V14.01,2013-05-23 01:00:00,
2013-05-22 21:01:00,61.3,61.0,29.92,SSW,195,2.0,3.0,99,0.00,,---,0.00,VWS V14.01,2013-05-23 01:01:00,
2013-05-22 21:02:00,61.3,61.0,29.92,SSW,195,0.0,3.0,99,0.00,,---,0.00,VWS V14.01,2013-05-23 01:02:00,
2013-05-22 21:03:00,61.3,61.0,29.92,SSW,195,0.0,3.0,99,0.00,,---,0.00,VWS V14.01,2013-05-23 01:03:00,
2013-05-22 21:04:00,61.3,61.0,29.92,SSW,195,0.0,3.0,99,0.00,,---,0.00,VWS V14.01,2013-05-23 01:04:00,
2013-05-22 21:05:00,61.3,61.0,29.92,SSW,195,0.0,3.0,99,0.00,,---,0.00,VWS V14.01,2013-05-23 01:05:00,
2013-05-22 21:06:00,61.3,61.0,29.92,SSW,195,0.0,3.0,99,0.00,,---,0.00,VWS V14.01,2013-05-23 01:06:00,
2013-05-22 21:07:00,61.2,60.9,29.92,SSW,195,0.0,3.0,99,0.00,,---,0.00,VWS V14.01,2013-05-23 01:07:00,
2013-05-22 21:08:00,61.3,61.0,29.92,SSW,195,0.0,3.0,99,0.00,,---,0.00,VWS V14.01,2013-05-23 01:08:00,
2013-05-22 21:09:00,61.3,61.0,29.92,SSW,195,0.0,3.0,99,0.00,,---,0.00,VWS V14.01,2013-05-23 01:09:00,
2013-05-22 21:10:00,61.2,60.9,29.92,SSW,195,0.0,3.0,99,0.00,,---,0.00,VWS V14.01,2013-05-23 01:10:00,
2013-05-22 21:11:00,61.2,60.9,29.92,SSW,195,0.0,0.0,99,0.00,,---,0.00,VWS V14.01,2013-05-23 01:11:00,
2013-05-22 21:12:00,61.2,60.9,29.92,SSW,195,0.0,0.0,99,0.00,,---,0.00,VWS V14.01,2013-05-23 01:12:00,
2013-05-22 21:13:00,61.3,61.3,29.92,SSW,195,0.0,0.0,100,0.00,,---,0.00,VWS V14.01,2013-05-23 01:13:00,
2013-05-22 21:14:00,61.3,61.3,29.92,SSW,195,0.0,0.0,100,0.00,,---,0.00,VWS V14.01,2013-05-23 01:14:00,
2013-05-22 21:15:00,61.3,61.3,29.92,SSW,195,0.0,0.0,100,0.00,,---,0.00,VWS V14.01,2013-05-23 01:15:00,
2013-05-22 21:16:00,61.3,61.3,29.92,SSW,195,0.0,0.0,100,0.00,,---,0.00,VWS V14.01,2013-05-23 01:16:00,
2013-05-22 21:17:00,61.3,61.3,29.92,SSW,195,0.0,1.0,100,0.00,,---,0.00,VWS V14.01,2013-05-23 01:17:00,
2013-05-22 21:18:00,61.3,61.3,29.92,SSW,195,0.0,1.0,100,0.00,,---,0.00,VWS V14.01,2013-05-23 01:18:00,
2013-05-22 21:19:00,61.3,61.3,29.92,SSW,195,0.0,1.0,100,0.00,,---,0.00,VWS V14.01,2013-05-23 01:19:00,
2013-05-22 21:20:00,61.3,61.3,29.92,SSW,195,0.0,1.0,100,0.00,,---,0.00,VWS V14.01,2013-05-23 01:20:00,
2013-05-22 21:21:00,61.3,61.3,29.92,SSW,195,0.0,0.0,100,0.00,,---,0.00,VWS V14.01,2013-05-23 01:21:00,
2013-05-22 21:22:00,61.3,61.3,29.92,SSW,195,0.0,0.0,100,0.00,,---,0.00,VWS V14.01,2013-05-23 01:22:00,
2013-05-22 21:23:00,61.3,61.3,29.92,SSW,195,0.0,0.0,100,0.00,,---,0.00,VWS V14.01,2013-05-23 01:23:00,
2013-05-22 21:24:00,61.3,61.3,29.92,SSW,193,0.0,2.0,100,0.00,,---,0.00,VWS V14.01,2013-05-23 01:24:00,
2013-05-22 21:25:00,61.3,61.3,29.92,SSW,193,0.0,2.0,100,0.00,,---,0.00,VWS V14.01,2013-05-23 01:25:00,
2013-05-22 21:26:00,61.3,61.3,29.92,SSW,193,0.0,2.0,100,0.00,,---,0.00,VWS V14.01,2013-05-23 01:26:00,
2013-05-22 21:27:00,61.3,61.3,29.92,SSW,193,0.0,2.0,100,0.00,,---,0.00,VWS V14.01,2013-05-23 01:27:00,
2013-05-22 21:28:00,61.2,61.2,29.92,SSW,193,0.0,2.0,100,0.00,,---,0.00,VWS V14.01,2013-05-23 01:28:00,
2013-05-22 21:29:00,61.2,61.2,29.92,SSW,193,0.0,2.0,100,0.00,,---,0.00,VWS V14.01,2013-05-23 01:29:00,
2013-05-22 21:30:00,61.2,61.2,29.92,SSW,193,0.0,2.0,100,0.00,,---,0.00,VWS V14.01,2013-05-23 01:30:00,
2013-05-22 21:31:00,61.2,61.2,29.92,SE,144,2.0,4.0,100,0.00,,---,0.00,VWS V14.01,2013-05-23 01:31:00,
2013-05-22 21:32:00,61.2,61.2,29.92,SE,144,0.0,4.0,100,0.00,,---,0.00,VWS V14.01,2013-05-23 01:32:00,
2013-05-22 21:33:00,61.2,61.2,29.92,SE,144,0.0,4.0,100,0.00,,---,0.00,VWS V14.01,2013-05-23 01:33:00,
2013-05-22 21:34:00,61.2,61.2,29.92,SE,144,0.0,4.0,100,0.00,,---,0.00,VWS V14.01,2013-05-23 01:34:00,
2013-05-22 21:35:00,61.2,61.2,29.92,SE,144,0.0,4.0,100,0.00,,---,0.00,VWS V14.01,2013-05-23 01:35:00,
2013-05-22 21:36:00,61.2,61.2,29.92,SE,144,0.0,4.0,100,0.00,,---,0.00,VWS V14.01,2013-05-23 01:36:00,
2013-05-22 21:37:00,61.2,61.2,29.92,SE,144,0.0,4.0,100,0.00,,---,0.00,VWS V14.01,2013-05-23 01:37:00,
2013-05-22 21:38:00,61.2,61.2,29.92,SE,144,0.0,4.0,100,0.00,,---,0.00,VWS V14.01,2013-05-23 01:38:00,
2013-05-22 21:39:00,61.2,61.2,29.92,SE,144,0.0,4.0,100,0.00,,---,0.00,VWS V14.01,2013-05-23 01:39:00,
2013-05-22 21:40:00,61.2,61.2,29.92,SE,144,0.0,4.0,100,0.00,,---,0.00,VWS V14.01,2013-05-23 01:40:00,
2013-05-22 21:41:00,61.2,61.2,29.92,SSE,147,1.0,2.0,100,0.00,,---,0.00,VWS V14.01,2013-05-23 01:41:00,
2013-05-22 21:42:00,61.2,61.2,29.92,SSE,147,0.0,2.0,100,0.00,,---,0.00,VWS V14.01,2013-05-23 01:42:00,
2013-05-22 21:43:00,61.2,61.2,29.92,SSE,147,0.0,2.0,100,0.00,,---,0.00,VWS V14.01,2013-05-23 01:43:00,
2013-05-22 21:44:00,61.2,61.2,29.92,SSE,147,0.0,2.0,100,0.00,,---,0.00,VWS V14.01,2013-05-23 01:44:00,
2013-05-22 21:45:00,61.2,61.2,29.93,SSE,147,0.0,2.0,100,0.00,,---,0.00,VWS V14.01,2013-05-23 01:45:00,
2013-05-22 21:46:00,61.2,61.2,29.93,SSE,147,0.0,4.0,100,0.00,,---,0.00,VWS V14.01,2013-05-23 01:46:00,
2013-05-22 21:47:00,61.2,61.2,29.93,SSE,147,0.0,4.0,100,0.00,,---,0.00,VWS V14.01,2013-05-23 01:47:00,
2013-05-22 21:48:00,61.2,61.2,29.93,SSE,147,0.0,4.0,100,0.00,,---,0.00,VWS V14.01,2013-05-23 01:48:00,
2013-05-22 21:49:00,61.2,61.2,29.93,SSE,147,0.0,4.0,100,0.00,,---,0.00,VWS V14.01,2013-05-23 01:49:00,
2013-05-22 21:50:00,61.2,61.2,29.93,SSE,147,0.0,4.0,100,0.00,,---,0.00,VWS V14.01,2013-05-23 01:50:00,
2013-05-22 21:51:00,61.2,61.2,29.93,SSE,147,0.0,0.0,100,0.00,,---,0.00,VWS V14.01,2013-05-23 01:51:00,
2013-05-22 21:52:00,61.2,61.2,29.93,SSE,147,0.0,0.0,100,0.00,,---,0.00,VWS V14.01,2013-05-23 01:52:00,
2013-05-22 21:53:00,61.2,61.2,29.93,SSE,147,0.0,0.0,100,0.00,,---,0.00,VWS V14.01,2013-05-23 01:53:00,
2013-05-22 21:54:00,61.2,61.2,29.93,SSE,147,1.0,1.0,100,0.00,,---,0.00,VWS V14.01,2013-05-23 01:54:00,
2013-05-22 21:55:00,61.2,61.2,29.93,SSE,147,0.0,1.0,100,0.00,,---,0.00,VWS V14.01,2013-05-23 01:55:00,
2013-05-22 21:56:00,61.2,61.2,29.93,SSE,147,0.0,1.0,100,0.00,,---,0.00,VWS V14.01,2013-05-23 01:56:00,
2013-05-22 21:57:00,61.2,61.2,29.93,SSE,147,0.0,1.0,100,0.00,,---,0.00,VWS V14.01,2013-05-23 01:57:00,
2013-05-22 21:58:00,61.2,61.2,29.93,SSE,147,0.0,1.0,100,0.00,,---,0.00,VWS V14.01,2013-05-23 01:58:00,
2013-05-22 21:59:00,61.2,61.2,29.93,SSE,147,0.0,1.0,100,0.00,,---,0.00,VWS V14.01,2013-05-23 01:59:00,
2013-05-22 22:00:00,61.2,61.2,29.93,SSE,147,0.0,1.0,100,0.00,,---,0.00,VWS V14.01,2013-05-23 02:00:00,
2013-05-22 22:01:00,61.2,61.2,29.93,SSE,147,0.0,0.0,100,0.00,,---,0.00,VWS V14.01,2013-05-23 02:01:00,
2013-05-22 22:02:00,61.2,61.2,29.93,SSE,147,0.0,0.0,100,0.00,,---,0.00,VWS V14.01,2013-05-23 02:02:00,
2013-05-22 22:03:00,61.2,61.2,29.93,SSE,147,0.0,0.0,100,0.00,,---,0.00,VWS V14.01,2013-05-23 02:03:00,
2013-05-22 22:04:00,61.2,61.2,29.93,SSE,147,0.0,0.0,100,0.00,,---,0.00,VWS V14.01,2013-05-23 02:04:00,
2013-05-22 22:05:00,61.2,61.2,29.93,SSE,147,0.0,0.0,100,0.00,,---,0.00,VWS V14.01,2013-05-23 02:05:00,
2013-05-22 22:06:00,61.2,61.2,29.93,SSE,147,0.0,0.0,100,0.00,,---,0.00,VWS V14.01,2013-05-23 02:06:00,
2013-05-22 22:07:00,61.2,61.2,29.93,SSE,147,0.0,0.0,100,0.00,,---,0.00,VWS V14.01,2013-05-23 02:07:00,
2013-05-22 22:08:00,61.2,61.2,29.93,SSE,147,0.0,0.0,100,0.00,,---,0.00,VWS V14.01,2013-05-23 02:08:00,
2013-05-22 22:09:00,61.2,61.2,29.93,SSE,147,0.0,0.0,100,0.00,,---,0.00,VWS V14.01,2013-05-23 02:09:00,
2013-05-22 22:10:00,61.2,61.2,29.93,SSE,147,0.0,0.0,100,0.00,,---,0.00,VWS V14.01,2013-05-23 02:10:00,
2013-05-22 22:11:00,61.2,61.2,29.93,SSE,147,0.0,0.0,100,0.00,,---,0.00,VWS V14.01,2013-05-23 02:11:00,
2013-05-22 22:12:00,61.2,61.2,29.93,SSE,147,0.0,0.0,100,0.00,,---,0.00,VWS V14.01,2013-05-23 02:12:00,
2013-05-22 22:13:00,61.2,61.2,29.93,SSE,147,4.0,4.0,100,0.00,,---,0.00,VWS V14.01,2013-05-23 02:13:00,
2013-05-22 22:14:00,61.2,61.2,29.93,SSE,147,0.0,4.0,100,0.00,,---,0.00,VWS V14.01,2013-05-23 02:14:00,
2013-05-22 22:15:00,61.2,61.2,29.93,SSE,147,0.0,4.0,100,0.00,,---,0.00,VWS V14.01,2013-05-23 02:15:00,
2013-05-22 22:16:00,61.2,61.2,29.93,SSE,147,0.0,4.0,100,0.00,,---,0.00,VWS V14.01,2013-05-23 02:16:00,
2013-05-22 22:17:00,61.2,61.2,29.93,SSE,147,1.0,4.0,100,0.00,,---,0.00,VWS V14.01,2013-05-23 02:17:00,
2013-05-22 22:18:00,61.2,61.2,29.93,SSE,147,0.0,4.0,100,0.00,,---,0.00,VWS V14.01,2013-05-23 02:18:00,
2013-05-22 22:19:00,61.2,61.2,29.93,SSE,147,0.0,4.0,100,0.00,,---,0.00,VWS V14.01,2013-05-23 02:19:00,
2013-05-22 22:20:00,61.2,61.2,29.93,SSE,147,0.0,4.0,100,0.00,,---,0.00,VWS V14.01,2013-05-23 02:20:00,
2013-05-22 22:21:00,61.2,61.2,29.93,SSE,147,0.0,0.0,100,0.00,,---,0.00,VWS V14.01,2013-05-23 02:21:00,
2013-05-22 22:22:00,61.2,61.2,29.93,SSE,147,0.0,0.0,100,0.00,,---,0.00,VWS V14.01,2013-05-23 02:22:00,
2013-05-22 22:23:00,61.2,61.2,29.93,SSE,147,0.0,1.0,100,0.00,,---,0.00,VWS V14.01,2013-05-23 02:23:00,
2013-05-22 22:24:00,61.2,61.2,29.93,SSE,147,0.0,1.0,100,0.00,,---,0.00,VWS V14.01,2013-05-23 02:24:00,
2013-05-22 22:25:00,61.2,61.2,29.93,SSE,147,0.0,1.0,100,0.00,,---,0.00,VWS V14.01,2013-05-23 02:25:00,
2013-05-22 22:26:00,61.2,61.2,29.93,SSE,147,0.0,1.0,100,0.00,,---,0.00,VWS V14.01,2013-05-23 02:26:00,
2013-05-22 22:27:00,61.2,61.2,29.93,SSE,147,0.0,1.0,100,0.00,,---,0.00,VWS V14.01,2013-05-23 02:27:00,
2013-05-22 22:28:00,61.2,61.2,29.93,SSE,147,0.0,1.0,100,0.00,,---,0.00,VWS V14.01,2013-05-23 02:28:00,
2013-05-22 22:29:00,61.2,61.2,29.93,SSE,147,2.0,2.0,100,0.00,,---,0.00,VWS V14.01,2013-05-23 02:29:00,
2013-05-22 22:30:00,61.2,61.2,29.93,SSE,147,0.0,2.0,100,0.00,,---,0.00,VWS V14.01,2013-05-23 02:30:00,
2013-05-22 22:31:00,61.2,61.2,29.93,SSE,147,0.0,0.0,100,0.00,,---,0.00,VWS V14.01,2013-05-23 02:31:00,
2013-05-22 22:32:00,61.2,61.2,29.93,SSE,147,0.0,0.0,100,0.00,,---,0.00,VWS V14.01,2013-05-23 02:32:00,
2013-05-22 22:33:00,61.2,61.2,29.93,SSE,147,0.0,0.0,100,0.00,,---,0.00,VWS V14.01,2013-05-23 02:33:00,
2013-05-22 22:34:00,61.2,61.2,29.93,SSE,147,0.0,1.0,100,0.00,,---,0.00,VWS V14.01,2013-05-23 02:34:00,
2013-05-22 22:35:00,61.2,61.2,29.93,SSE,147,0.0,1.0,100,0.00,,---,0.00,VWS V14.01,2013-05-23 02:35:00,
2013-05-22 22:36:00,61.2,61.2,29.93,SSE,147,0.0,1.0,100,0.00,,---,0.00,VWS V14.01,2013-05-23 02:36:00,
2013-05-22 22:37:00,61.2,61.2,29.93,SSE,147,0.0,1.0,100,0.00,,---,0.00,VWS V14.01,2013-05-23 02:37:00,
2013-05-22 22:38:00,61.2,61.2,29.93,SSE,147,0.0,1.0,100,0.00,,---,0.00,VWS V14.01,2013-05-23 02:38:00,
2013-05-22 22:39:00,61.2,61.2,29.93,SSE,147,0.0,1.0,100,0.00,,---,0.00,VWS V14.01,2013-05-23 02:39:00,
2013-05-22 22:40:00,61.2,61.2,29.93,SSE,147,0.0,1.0,100,0.00,,---,0.00,VWS V14.01,2013-05-23 02:40:00,
2013-05-22 22:41:00,61.2,61.2,29.93,SSE,147,0.0,0.0,100,0.00,,---,0.00,VWS V14.01,2013-05-23 02:41:00,
2013-05-22 22:42:00,61.2,61.2,29.93,SSE,147,1.0,2.0,100,0.00,,---,0.00,VWS V14.01,2013-05-23 02:42:00,
2013-05-22 22:43:00,61.2,61.2,29.93,SSE,147,0.0,2.0,100,0.00,,---,0.00,VWS V14.01,2013-05-23 02:43:00,
2013-05-22 22:44:00,61.2,61.2,29.93,SSE,147,0.0,2.0,100,0.00,,---,0.00,VWS V14.01,2013-05-23 02:44:00,
2013-05-22 22:45:00,61.2,61.2,29.92,SSE,147,0.0,2.0,100,0.00,,---,0.00,VWS V14.01,2013-05-23 02:45:00,
2013-05-22 22:46:00,61.2,61.2,29.92,SSE,147,0.0,2.0,100,0.00,,---,0.00,VWS V14.01,2013-05-23 02:46:00,
2013-05-22 22:47:00,61.2,61.2,29.92,SSE,147,0.0,2.0,100,0.00,,---,0.00,VWS V14.01,2013-05-23 02:47:00,
2013-05-22 22:48:00,61.2,61.2,29.92,SSE,147,1.0,2.0,100,0.00,,---,0.00,VWS V14.01,2013-05-23 02:48:00,
2013-05-22 22:49:00,61.2,61.2,29.92,SSE,147,0.0,2.0,100,0.00,,---,0.00,VWS V14.01,2013-05-23 02:49:00,
2013-05-22 22:50:00,61.2,61.2,29.92,SSE,147,0.0,2.0,100,0.00,,---,0.00,VWS V14.01,2013-05-23 02:50:00,
2013-05-22 22:51:00,61.2,61.2,29.92,SSE,147,0.0,0.0,100,0.00,,---,0.00,VWS V14.01,2013-05-23 02:51:00,
2013-05-22 22:52:00,61.2,61.2,29.92,SSE,147,0.0,0.0,100,0.00,,---,0.00,VWS V14.01,2013-05-23 02:52:00,
2013-05-22 22:53:00,61.3,61.3,29.92,SSE,147,0.0,0.0,100,0.00,,---,0.00,VWS V14.01,2013-05-23 02:53:00,
2013-05-22 22:54:00,61.2,61.2,29.92,SSE,147,0.0,0.0,100,0.00,,---,0.00,VWS V14.01,2013-05-23 02:54:00,
2013-05-22 22:55:00,61.3,61.3,29.92,SSE,147,0.0,0.0,100,0.00,,---,0.00,VWS V14.01,2013-05-23 02:55:00,
2013-05-22 22:56:00,61.3,61.3,29.92,SSE,147,0.0,2.0,100,0.00,,---,0.00,VWS V14.01,2013-05-23 02:56:00,
2013-05-22 22:57:00,61.3,61.3,29.92,SSE,147,0.0,2.0,100,0.00,,---,0.00,VWS V14.01,2013-05-23 02:57:00,
2013-05-22 22:58:00,61.3,61.3,29.92,SSE,147,0.0,2.0,100,0.00,,---,0.00,VWS V14.01,2013-05-23 02:58:00,
2013-05-22 22:59:00,61.3,61.3,29.92,SSE,147,0.0,2.0,100,0.00,,---,0.00,VWS V14.01,2013-05-23 02:59:00,
2013-05-22 23:00:00,61.3,61.3,29.92,SSE,147,1.0,4.0,100,0.00,,---,0.00,VWS V14.01,2013-05-23 03:00:00,
2013-05-22 23:01:00,61.3,61.3,29.92,SSE,147,0.0,1.0,100,0.00,,---,0.00,VWS V14.01,2013-05-23 03:01:00,
2013-05-22 23:02:00,61.3,61.3,29.92,SSE,147,0.0,1.0,100,0.00,,---,0.00,VWS V14.01,2013-05-23 03:02:00,
2013-05-22 23:03:00,61.3,61.3,29.92,SSE,147,0.0,1.0,100,0.00,,---,0.00,VWS V14.01,2013-05-23 03:03:00,
2013-05-22 23:04:00,61.3,61.3,29.92,SSE,147,0.0,1.0,100,0.00,,---,0.00,VWS V14.01,2013-05-23 03:04:00,
2013-05-22 23:05:00,61.3,61.3,29.92,SSE,147,0.0,1.0,100,0.00,,---,0.00,VWS V14.01,2013-05-23 03:05:00,
2013-05-22 23:06:00,61.3,61.3,29.92,SSE,147,0.0,1.0,100,0.00,,---,0.00,VWS V14.01,2013-05-23 03:06:00,
2013-05-22 23:07:00,61.3,61.3,29.92,SSE,147,0.0,1.0,100,0.00,,---,0.00,VWS V14.01,2013-05-23 03:07:00,
2013-05-22 23:08:00,61.3,61.3,29.92,SSE,147,0.0,1.0,100,0.00,,---,0.00,VWS V14.01,2013-05-23 03:08:00,
2013-05-22 23:09:00,61.3,61.3,29.92,SSE,147,0.0,1.0,100,0.00,,---,0.00,VWS V14.01,2013-05-23 03:09:00,
2013-05-22 23:10:00,61.3,61.3,29.92,SSE,147,0.0,1.0,100,0.00,,---,0.00,VWS V14.01,2013-05-23 03:10:00,
2013-05-22 23:11:00,61.3,61.3,29.92,SSE,147,1.0,2.0,100,0.00,,---,0.00,VWS V14.01,2013-05-23 03:11:00,
2013-05-22 23:12:00,61.3,61.3,29.92,SSE,147,0.0,2.0,100,0.00,,---,0.00,VWS V14.01,2013-05-23 03:12:00,
2013-05-22 23:13:00,61.3,61.3,29.92,SSE,147,0.0,2.0,100,0.00,,---,0.00,VWS V14.01,2013-05-23 03:13:00,
2013-05-22 23:14:00,61.3,61.3,29.92,SSE,147,0.0,2.0,100,0.00,,---,0.00,VWS V14.01,2013-05-23 03:14:00,
2013-05-22 23:15:00,61.5,61.5,29.92,SSE,147,0.0,2.0,100,0.00,,---,0.00,VWS V14.01,2013-05-23 03:15:00,
2013-05-22 23:16:00,61.5,61.5,29.92,SSE,147,0.0,2.0,100,0.00,,---,0.00,VWS V14.01,2013-05-23 03:16:00,
2013-05-22 23:17:00,61.5,61.5,29.92,SSE,147,0.0,2.0,100,0.00,,---,0.00,VWS V14.01,2013-05-23 03:17:00,
2013-05-22 23:18:00,61.5,61.5,29.92,SSE,147,0.0,2.0,100,0.00,,---,0.00,VWS V14.01,2013-05-23 03:18:00,
2013-05-22 23:19:00,61.5,61.5,29.92,SSE,147,2.0,2.0,100,0.00,,---,0.00,VWS V14.01,2013-05-23 03:19:00,
2013-05-22 23:20:00,61.5,61.5,29.92,SSE,147,0.0,2.0,100,0.00,,---,0.00,VWS V14.01,2013-05-23 03:20:00,
2013-05-22 23:21:00,61.5,61.5,29.92,SSE,147,2.0,4.0,100,0.00,,---,0.00,VWS V14.01,2013-05-23 03:21:00,
2013-05-22 23:22:00,61.5,61.5,29.92,SSE,147,0.0,4.0,100,0.00,,---,0.00,VWS V14.01,2013-05-23 03:22:00,
2013-05-22 23:23:00,61.5,61.5,29.92,SSE,147,0.0,4.0,100,0.00,,---,0.00,VWS V14.01,2013-05-23 03:23:00,
2013-05-22 23:24:00,61.5,61.5,29.92,SSE,147,0.0,4.0,100,0.00,,---,0.00,VWS V14.01,2013-05-23 03:24:00,
2013-05-22 23:25:00,61.5,61.5,29.92,SSE,147,0.0,4.0,100,0.00,,---,0.00,VWS V14.01,2013-05-23 03:25:00,
2013-05-22 23:26:00,61.5,61.5,29.92,SSE,147,0.0,4.0,100,0.00,,---,0.00,VWS V14.01,2013-05-23 03:26:00,
2013-05-22 23:27:00,61.5,61.5,29.92,SSE,147,0.0,4.0,100,0.00,,---,0.00,VWS V14.01,2013-05-23 03:27:00,
2013-05-22 23:28:00,61.5,61.5,29.92,SSE,147,0.0,4.0,100,0.00,,---,0.00,VWS V14.01,2013-05-23 03:28:00,
2013-05-22 23:29:00,61.5,61.5,29.92,SSE,147,0.0,4.0,100,0.00,,---,0.00,VWS V14.01,2013-05-23 03:29:00,
2013-05-22 23:30:00,61.5,61.5,29.92,SSE,147,0.0,4.0,100,0.00,,---,0.00,VWS V14.01,2013-05-23 03:30:00,
2013-05-22 23:31:00,61.6,61.6,29.92,SSE,147,0.0,0.0,100,0.00,,---,0.00,VWS V14.01,2013-05-23 03:31:00,
2013-05-22 23:32:00,61.6,61.6,29.92,SSE,147,0.0,0.0,100,0.00,,---,0.00,VWS V14.01,2013-05-23 03:32:00,
2013-05-22 23:33:00,61.6,61.6,29.92,SSE,147,0.0,1.0,100,0.00,,---,0.00,VWS V14.01,2013-05-23 03:33:00,
2013-05-22 23:34:00,61.6,61.6,29.92,SSE,147,0.0,1.0,100,0.00,,---,0.00,VWS V14.01,2013-05-23 03:34:00,
2013-05-22 23:35:00,61.6,61.6,29.92,SSE,147,0.0,1.0,100,0.00,,---,0.00,VWS V14.01,2013-05-23 03:35:00,
2013-05-22 23:36:00,61.6,61.6,29.92,SSE,147,0.0,1.0,100,0.00,,---,0.00,VWS V14.01,2013-05-23 03:36:00,
2013-05-22 23:37:00,61.6,61.6,29.92,SSE,147,0.0,1.0,100,0.00,,---,0.00,VWS V14.01,2013-05-23 03:37:00,
2013-05-22 23:38:00,61.6,61.6,29.92,SSE,147,0.0,1.0,100,0.00,,---,0.00,VWS V14.01,2013-05-23 03:38:00,
2013-05-22 23:39:00,61.6,61.6,29.92,SSE,147,0.0,1.0,100,0.00,,---,0.00,VWS V14.01,2013-05-23 03:39:00,
2013-05-22 23:40:00,61.6,61.6,29.92,SSE,147,0.0,1.0,100,0.00,,---,0.00,VWS V14.01,2013-05-23 03:40:00,
2013-05-22 23:41:00,61.6,61.6,29.92,SSE,147,0.0,1.0,100,0.00,,---,0.00,VWS V14.01,2013-05-23 03:41:00,
2013-05-22 23:42:00,61.6,61.6,29.92,SSE,147,0.0,1.0,100,0.00,,---,0.00,VWS V14.01,2013-05-23 03:42:00,
2013-05-22 23:43:00,61.6,61.6,29.92,SSE,147,0.0,1.0,100,0.00,,---,0.00,VWS V14.01,2013-05-23 03:43:00,
2013-05-22 23:44:00,61.6,61.6,29.92,SSE,147,0.0,1.0,100,0.00,,---,0.00,VWS V14.01,2013-05-23 03:44:00,
2013-05-22 23:45:00,61.6,61.6,29.92,SSE,147,0.0,1.0,100,0.00,,---,0.00,VWS V14.01,2013-05-23 03:45:00,
2013-05-22 23:46:00,61.6,61.6,29.92,SSE,147,0.0,1.0,100,0.00,,---,0.00,VWS V14.01,2013-05-23 03:46:00,
2013-05-22 23:47:00,61.6,61.6,29.92,SSE,147,0.0,1.0,100,0.00,,---,0.00,VWS V14.01,2013-05-23 03:47:00,
2013-05-22 23:48:00,61.6,61.6,29.92,SSE,147,0.0,1.0,100,0.00,,---,0.00,VWS V14.01,2013-05-23 03:48:00,
2013-05-22 23:49:00,61.6,61.6,29.92,SSE,147,0.0,1.0,100,0.00,,---,0.00,VWS V14.01,2013-05-23 03:49:00,
2013-05-22 23:50:00,61.6,61.6,29.92,SSE,147,1.0,1.0,100,0.00,,---,0.00,VWS V14.01,2013-05-23 03:50:00,
2013-05-22 23:51:00,61.6,61.6,29.92,SSE,147,0.0,2.0,100,0.00,,---,0.00,VWS V14.01,2013-05-23 03:51:00,
2013-05-22 23:52:00,61.6,61.6,29.92,SSE,147,0.0,2.0,100,0.00,,---,0.00,VWS V14.01,2013-05-23 03:52:00,
2013-05-22 23:53:00,61.6,61.6,29.92,SSE,147,0.0,2.0,100,0.00,,---,0.00,VWS V14.01,2013-05-23 03:53:00,
2013-05-22 23:54:00,61.6,61.6,29.92,SSE,147,0.0,2.0,100,0.00,,---,0.00,VWS V14.01,2013-05-23 03:54:00,
2013-05-22 23:55:00,61.6,61.6,29.92,SSE,147,4.0,4.0,100,0.00,,---,0.00,VWS V14.01,2013-05-23 03:55:00,
2013-05-22 23:56:00,61.6,61.6,29.92,SSW,194,2.0,4.0,100,0.00,,---,0.00,VWS V14.01,2013-05-23 03:56:00,
2013-05-22 23:57:00,61.6,61.6,29.92,SSW,194,0.0,4.0,100,0.00,,---,0.00,VWS V14.01,2013-05-23 03:57:00,
2013-05-22 23:58:00,61.6,61.6,29.92,SSW,194,0.0,4.0,100,0.00,,---,0.00,VWS V14.01,2013-05-23 03:58:00,
2013-05-22 23:59:00,61.6,61.6,29.92,SSW,194,0.0,4.0,100,0.00,,---,0.00,VWS V14.01,2013-05-23 03:59:00,